<?xml version="1.0" encoding="UTF-8" standalone="no" ?>
<gpx xmlns="http://www.topografix.com/GPX/1/1" xmlns:xsi="http://www.w3.org/2001/XMLSchema-instance" xsi:schemaLocation="http://www.topografix.com/GPX/1/1 http://www.topografix.com/GPX/1/1/gpx.xsd" version="1.1" creator="VisuGPX - https://www.visugpx.com">
  <metadata>
    <name>83-Me-Cotignac</name>
    <desc><![CDATA[83-Me-Cotignac : Monastère St-Joseph - ND de Grâce
2023-01-18-01]]></desc>
  </metadata>
  <trk>
    <name><![CDATA[2023-01-18-01 M - Cotignac]]></name>
    <extensions>
      <line xmlns="http://www.topografix.com/GPX/gpx_style/0/2">
        <width>4</width>
      </line>
    </extensions>
    <trkseg>
      <trkpt lat="43.52455" lon="6.1505">
        <ele>336.8</ele>
        <time>2023-01-18T13:00:16.000Z</time>
      </trkpt>
      <trkpt lat="43.52455" lon="6.15046">
        <ele>288</ele>
        <time>2023-01-18T13:00:19.000Z</time>
      </trkpt>
      <trkpt lat="43.52453" lon="6.15053">
        <ele>238.7</ele>
        <time>2023-01-18T13:00:25.000Z</time>
      </trkpt>
      <trkpt lat="43.5245" lon="6.1506">
        <ele>228.1</ele>
        <time>2023-01-18T13:00:28.000Z</time>
      </trkpt>
      <trkpt lat="43.52446" lon="6.15061">
        <ele>216</ele>
        <time>2023-01-18T13:00:40.000Z</time>
      </trkpt>
      <trkpt lat="43.52443" lon="6.15067">
        <ele>214.8</ele>
        <time>2023-01-18T13:00:52.000Z</time>
      </trkpt>
      <trkpt lat="43.52449" lon="6.15059">
        <ele>214.8</ele>
        <time>2023-01-18T13:01:06.000Z</time>
      </trkpt>
      <trkpt lat="43.52455" lon="6.15054">
        <ele>206.4</ele>
        <time>2023-01-18T13:01:13.000Z</time>
      </trkpt>
      <trkpt lat="43.5246" lon="6.1505">
        <ele>219.9</ele>
        <time>2023-01-18T13:01:20.000Z</time>
      </trkpt>
      <trkpt lat="43.52456" lon="6.15055">
        <ele>212.1</ele>
        <time>2023-01-18T13:01:42.000Z</time>
      </trkpt>
      <trkpt lat="43.52455" lon="6.15049">
        <ele>215.4</ele>
        <time>2023-01-18T13:01:53.000Z</time>
      </trkpt>
      <trkpt lat="43.5246" lon="6.15044">
        <ele>201</ele>
        <time>2023-01-18T13:02:03.000Z</time>
      </trkpt>
      <trkpt lat="43.52465" lon="6.1504">
        <ele>205.3</ele>
        <time>2023-01-18T13:02:11.000Z</time>
      </trkpt>
      <trkpt lat="43.52469" lon="6.15035">
        <ele>225.8</ele>
        <time>2023-01-18T13:02:23.000Z</time>
      </trkpt>
      <trkpt lat="43.52464" lon="6.15033">
        <ele>228</ele>
        <time>2023-01-18T13:02:30.000Z</time>
      </trkpt>
      <trkpt lat="43.52461" lon="6.15028">
        <ele>218</ele>
        <time>2023-01-18T13:02:39.000Z</time>
      </trkpt>
      <trkpt lat="43.52465" lon="6.15032">
        <ele>214.9</ele>
        <time>2023-01-18T13:04:59.000Z</time>
      </trkpt>
      <trkpt lat="43.52469" lon="6.15029">
        <ele>215.5</ele>
        <time>2023-01-18T13:05:02.000Z</time>
      </trkpt>
      <trkpt lat="43.52475" lon="6.15027">
        <ele>216.1</ele>
        <time>2023-01-18T13:05:06.000Z</time>
      </trkpt>
      <trkpt lat="43.52479" lon="6.15024">
        <ele>216.1</ele>
        <time>2023-01-18T13:05:09.000Z</time>
      </trkpt>
      <trkpt lat="43.52483" lon="6.1502">
        <ele>216.4</ele>
        <time>2023-01-18T13:05:12.000Z</time>
      </trkpt>
      <trkpt lat="43.52487" lon="6.15014">
        <ele>216.7</ele>
        <time>2023-01-18T13:05:15.000Z</time>
      </trkpt>
      <trkpt lat="43.52491" lon="6.15011">
        <ele>216.5</ele>
        <time>2023-01-18T13:05:19.000Z</time>
      </trkpt>
      <trkpt lat="43.52493" lon="6.15005">
        <ele>216.2</ele>
        <time>2023-01-18T13:05:25.000Z</time>
      </trkpt>
      <trkpt lat="43.52494" lon="6.14999">
        <ele>217.7</ele>
        <time>2023-01-18T13:05:28.000Z</time>
      </trkpt>
      <trkpt lat="43.52497" lon="6.14993">
        <ele>218.3</ele>
        <time>2023-01-18T13:05:33.000Z</time>
      </trkpt>
      <trkpt lat="43.52501" lon="6.1499">
        <ele>218.2</ele>
        <time>2023-01-18T13:05:45.000Z</time>
      </trkpt>
      <trkpt lat="43.52506" lon="6.14987">
        <ele>218.4</ele>
        <time>2023-01-18T13:05:51.000Z</time>
      </trkpt>
      <trkpt lat="43.5251" lon="6.14984">
        <ele>219.3</ele>
        <time>2023-01-18T13:05:55.000Z</time>
      </trkpt>
      <trkpt lat="43.52514" lon="6.14979">
        <ele>218.6</ele>
        <time>2023-01-18T13:06:01.000Z</time>
      </trkpt>
      <trkpt lat="43.52517" lon="6.14976">
        <ele>219.4</ele>
        <time>2023-01-18T13:06:05.000Z</time>
      </trkpt>
      <trkpt lat="43.52521" lon="6.14972">
        <ele>219.5</ele>
        <time>2023-01-18T13:06:10.000Z</time>
      </trkpt>
      <trkpt lat="43.52525" lon="6.14968">
        <ele>219.6</ele>
        <time>2023-01-18T13:06:13.000Z</time>
      </trkpt>
      <trkpt lat="43.52528" lon="6.14962">
        <ele>219.8</ele>
        <time>2023-01-18T13:06:20.000Z</time>
      </trkpt>
      <trkpt lat="43.52532" lon="6.14958">
        <ele>220</ele>
        <time>2023-01-18T13:06:24.000Z</time>
      </trkpt>
      <trkpt lat="43.52535" lon="6.14953">
        <ele>219.6</ele>
        <time>2023-01-18T13:06:29.000Z</time>
      </trkpt>
      <trkpt lat="43.52539" lon="6.14949">
        <ele>219.3</ele>
        <time>2023-01-18T13:06:35.000Z</time>
      </trkpt>
      <trkpt lat="43.52543" lon="6.14944">
        <ele>218.8</ele>
        <time>2023-01-18T13:06:40.000Z</time>
      </trkpt>
      <trkpt lat="43.52546" lon="6.1494">
        <ele>218.9</ele>
        <time>2023-01-18T13:06:44.000Z</time>
      </trkpt>
      <trkpt lat="43.52549" lon="6.14935">
        <ele>218.2</ele>
        <time>2023-01-18T13:06:49.000Z</time>
      </trkpt>
      <trkpt lat="43.52549" lon="6.14926">
        <ele>217.5</ele>
        <time>2023-01-18T13:06:53.000Z</time>
      </trkpt>
      <trkpt lat="43.5255" lon="6.14918">
        <ele>217.6</ele>
        <time>2023-01-18T13:06:56.000Z</time>
      </trkpt>
      <trkpt lat="43.52545" lon="6.14919">
        <ele>218.3</ele>
        <time>2023-01-18T13:07:10.000Z</time>
      </trkpt>
      <trkpt lat="43.52541" lon="6.14922">
        <ele>217.6</ele>
        <time>2023-01-18T13:07:16.000Z</time>
      </trkpt>
      <trkpt lat="43.52536" lon="6.14926">
        <ele>219.3</ele>
        <time>2023-01-18T13:07:19.000Z</time>
      </trkpt>
      <trkpt lat="43.52531" lon="6.14927">
        <ele>220.6</ele>
        <time>2023-01-18T13:07:23.000Z</time>
      </trkpt>
      <trkpt lat="43.52526" lon="6.1493">
        <ele>221.7</ele>
        <time>2023-01-18T13:07:27.000Z</time>
      </trkpt>
      <trkpt lat="43.5252" lon="6.14932">
        <ele>221.8</ele>
        <time>2023-01-18T13:07:32.000Z</time>
      </trkpt>
      <trkpt lat="43.52516" lon="6.14933">
        <ele>224.5</ele>
        <time>2023-01-18T13:07:42.000Z</time>
      </trkpt>
      <trkpt lat="43.52511" lon="6.14934">
        <ele>224.9</ele>
        <time>2023-01-18T13:07:47.000Z</time>
      </trkpt>
      <trkpt lat="43.52506" lon="6.14931">
        <ele>224.5</ele>
        <time>2023-01-18T13:07:51.000Z</time>
      </trkpt>
      <trkpt lat="43.52501" lon="6.14931">
        <ele>225.1</ele>
        <time>2023-01-18T13:07:55.000Z</time>
      </trkpt>
      <trkpt lat="43.52497" lon="6.14931">
        <ele>226.1</ele>
        <time>2023-01-18T13:07:58.000Z</time>
      </trkpt>
      <trkpt lat="43.52492" lon="6.14932">
        <ele>226.7</ele>
        <time>2023-01-18T13:08:03.000Z</time>
      </trkpt>
      <trkpt lat="43.52487" lon="6.14933">
        <ele>227.3</ele>
        <time>2023-01-18T13:08:07.000Z</time>
      </trkpt>
      <trkpt lat="43.52482" lon="6.14934">
        <ele>227.7</ele>
        <time>2023-01-18T13:08:12.000Z</time>
      </trkpt>
      <trkpt lat="43.52476" lon="6.14934">
        <ele>228.6</ele>
        <time>2023-01-18T13:08:15.000Z</time>
      </trkpt>
      <trkpt lat="43.5247" lon="6.14934">
        <ele>229.2</ele>
        <time>2023-01-18T13:08:21.000Z</time>
      </trkpt>
      <trkpt lat="43.52464" lon="6.14934">
        <ele>228.5</ele>
        <time>2023-01-18T13:08:27.000Z</time>
      </trkpt>
      <trkpt lat="43.52459" lon="6.14933">
        <ele>229.3</ele>
        <time>2023-01-18T13:08:31.000Z</time>
      </trkpt>
      <trkpt lat="43.52454" lon="6.14931">
        <ele>229.5</ele>
        <time>2023-01-18T13:08:34.000Z</time>
      </trkpt>
      <trkpt lat="43.5245" lon="6.14926">
        <ele>228.6</ele>
        <time>2023-01-18T13:08:40.000Z</time>
      </trkpt>
      <trkpt lat="43.52446" lon="6.14921">
        <ele>229.1</ele>
        <time>2023-01-18T13:08:43.000Z</time>
      </trkpt>
      <trkpt lat="43.52445" lon="6.14915">
        <ele>229.6</ele>
        <time>2023-01-18T13:08:46.000Z</time>
      </trkpt>
      <trkpt lat="43.52444" lon="6.14907">
        <ele>230.2</ele>
        <time>2023-01-18T13:08:52.000Z</time>
      </trkpt>
      <trkpt lat="43.52444" lon="6.149">
        <ele>230.8</ele>
        <time>2023-01-18T13:08:55.000Z</time>
      </trkpt>
      <trkpt lat="43.52445" lon="6.14893">
        <ele>230.9</ele>
        <time>2023-01-18T13:09:00.000Z</time>
      </trkpt>
      <trkpt lat="43.52446" lon="6.14884">
        <ele>231.7</ele>
        <time>2023-01-18T13:09:03.000Z</time>
      </trkpt>
      <trkpt lat="43.52447" lon="6.14878">
        <ele>232.8</ele>
        <time>2023-01-18T13:09:09.000Z</time>
      </trkpt>
      <trkpt lat="43.52445" lon="6.14871">
        <ele>233.5</ele>
        <time>2023-01-18T13:09:12.000Z</time>
      </trkpt>
      <trkpt lat="43.52442" lon="6.14866">
        <ele>234.3</ele>
        <time>2023-01-18T13:09:17.000Z</time>
      </trkpt>
      <trkpt lat="43.52437" lon="6.14864">
        <ele>235</ele>
        <time>2023-01-18T13:09:31.000Z</time>
      </trkpt>
      <trkpt lat="43.52436" lon="6.14857">
        <ele>234.5</ele>
        <time>2023-01-18T13:09:37.000Z</time>
      </trkpt>
      <trkpt lat="43.52435" lon="6.1485">
        <ele>235.1</ele>
        <time>2023-01-18T13:09:45.000Z</time>
      </trkpt>
      <trkpt lat="43.52433" lon="6.14844">
        <ele>234.5</ele>
        <time>2023-01-18T13:09:50.000Z</time>
      </trkpt>
      <trkpt lat="43.5243" lon="6.14838">
        <ele>236</ele>
        <time>2023-01-18T13:09:53.000Z</time>
      </trkpt>
      <trkpt lat="43.52426" lon="6.14832">
        <ele>237.2</ele>
        <time>2023-01-18T13:09:59.000Z</time>
      </trkpt>
      <trkpt lat="43.52425" lon="6.14825">
        <ele>236.1</ele>
        <time>2023-01-18T13:10:04.000Z</time>
      </trkpt>
      <trkpt lat="43.52422" lon="6.14818">
        <ele>238.6</ele>
        <time>2023-01-18T13:10:08.000Z</time>
      </trkpt>
      <trkpt lat="43.5242" lon="6.14812">
        <ele>240.7</ele>
        <time>2023-01-18T13:10:15.000Z</time>
      </trkpt>
      <trkpt lat="43.52419" lon="6.14805">
        <ele>241.8</ele>
        <time>2023-01-18T13:10:18.000Z</time>
      </trkpt>
      <trkpt lat="43.52417" lon="6.14798">
        <ele>242</ele>
        <time>2023-01-18T13:10:24.000Z</time>
      </trkpt>
      <trkpt lat="43.52415" lon="6.14792">
        <ele>242.3</ele>
        <time>2023-01-18T13:10:29.000Z</time>
      </trkpt>
      <trkpt lat="43.52413" lon="6.14786">
        <ele>244</ele>
        <time>2023-01-18T13:10:33.000Z</time>
      </trkpt>
      <trkpt lat="43.52412" lon="6.1478">
        <ele>242.8</ele>
        <time>2023-01-18T13:10:38.000Z</time>
      </trkpt>
      <trkpt lat="43.5241" lon="6.14773">
        <ele>245</ele>
        <time>2023-01-18T13:10:42.000Z</time>
      </trkpt>
      <trkpt lat="43.52407" lon="6.14767">
        <ele>246.8</ele>
        <time>2023-01-18T13:10:48.000Z</time>
      </trkpt>
      <trkpt lat="43.52405" lon="6.14761">
        <ele>247</ele>
        <time>2023-01-18T13:10:54.000Z</time>
      </trkpt>
      <trkpt lat="43.52403" lon="6.14754">
        <ele>249.2</ele>
        <time>2023-01-18T13:10:58.000Z</time>
      </trkpt>
      <trkpt lat="43.52401" lon="6.14748">
        <ele>249.7</ele>
        <time>2023-01-18T13:11:04.000Z</time>
      </trkpt>
      <trkpt lat="43.52397" lon="6.14743">
        <ele>250</ele>
        <time>2023-01-18T13:11:08.000Z</time>
      </trkpt>
      <trkpt lat="43.52395" lon="6.14737">
        <ele>252.4</ele>
        <time>2023-01-18T13:11:13.000Z</time>
      </trkpt>
      <trkpt lat="43.52392" lon="6.14731">
        <ele>253.3</ele>
        <time>2023-01-18T13:11:19.000Z</time>
      </trkpt>
      <trkpt lat="43.52388" lon="6.14727">
        <ele>254.8</ele>
        <time>2023-01-18T13:11:25.000Z</time>
      </trkpt>
      <trkpt lat="43.52385" lon="6.14722">
        <ele>254.8</ele>
        <time>2023-01-18T13:11:32.000Z</time>
      </trkpt>
      <trkpt lat="43.52382" lon="6.14717">
        <ele>256.7</ele>
        <time>2023-01-18T13:11:41.000Z</time>
      </trkpt>
      <trkpt lat="43.52377" lon="6.14713">
        <ele>260.1</ele>
        <time>2023-01-18T13:11:51.000Z</time>
      </trkpt>
      <trkpt lat="43.52372" lon="6.14712">
        <ele>260.5</ele>
        <time>2023-01-18T13:11:56.000Z</time>
      </trkpt>
      <trkpt lat="43.52367" lon="6.1471">
        <ele>262.8</ele>
        <time>2023-01-18T13:12:01.000Z</time>
      </trkpt>
      <trkpt lat="43.52362" lon="6.14708">
        <ele>265</ele>
        <time>2023-01-18T13:12:07.000Z</time>
      </trkpt>
      <trkpt lat="43.52359" lon="6.14703">
        <ele>265.7</ele>
        <time>2023-01-18T13:12:15.000Z</time>
      </trkpt>
      <trkpt lat="43.52356" lon="6.14698">
        <ele>268.4</ele>
        <time>2023-01-18T13:12:23.000Z</time>
      </trkpt>
      <trkpt lat="43.52351" lon="6.147">
        <ele>269.7</ele>
        <time>2023-01-18T13:12:33.000Z</time>
      </trkpt>
      <trkpt lat="43.52347" lon="6.14702">
        <ele>269.7</ele>
        <time>2023-01-18T13:12:48.000Z</time>
      </trkpt>
      <trkpt lat="43.52344" lon="6.14707">
        <ele>270</ele>
        <time>2023-01-18T13:13:23.000Z</time>
      </trkpt>
      <trkpt lat="43.52347" lon="6.14702">
        <ele>269.9</ele>
        <time>2023-01-18T13:14:03.000Z</time>
      </trkpt>
      <trkpt lat="43.52346" lon="6.14695">
        <ele>269.4</ele>
        <time>2023-01-18T13:14:20.000Z</time>
      </trkpt>
      <trkpt lat="43.52341" lon="6.14697">
        <ele>271.9</ele>
        <time>2023-01-18T13:14:48.000Z</time>
      </trkpt>
      <trkpt lat="43.52337" lon="6.14699">
        <ele>273.9</ele>
        <time>2023-01-18T13:14:57.000Z</time>
      </trkpt>
      <trkpt lat="43.52332" lon="6.14699">
        <ele>273.1</ele>
        <time>2023-01-18T13:15:03.000Z</time>
      </trkpt>
      <trkpt lat="43.52327" lon="6.147">
        <ele>273.3</ele>
        <time>2023-01-18T13:15:08.000Z</time>
      </trkpt>
      <trkpt lat="43.52321" lon="6.14701">
        <ele>274.9</ele>
        <time>2023-01-18T13:15:15.000Z</time>
      </trkpt>
      <trkpt lat="43.52316" lon="6.147">
        <ele>275.9</ele>
        <time>2023-01-18T13:15:19.000Z</time>
      </trkpt>
      <trkpt lat="43.52311" lon="6.14702">
        <ele>277.1</ele>
        <time>2023-01-18T13:15:25.000Z</time>
      </trkpt>
      <trkpt lat="43.52305" lon="6.14705">
        <ele>273.8</ele>
        <time>2023-01-18T13:15:29.000Z</time>
      </trkpt>
      <trkpt lat="43.523" lon="6.14706">
        <ele>276.4</ele>
        <time>2023-01-18T13:15:33.000Z</time>
      </trkpt>
      <trkpt lat="43.52295" lon="6.14707">
        <ele>278.6</ele>
        <time>2023-01-18T13:15:40.000Z</time>
      </trkpt>
      <trkpt lat="43.5229" lon="6.1471">
        <ele>281.1</ele>
        <time>2023-01-18T13:15:53.000Z</time>
      </trkpt>
      <trkpt lat="43.52286" lon="6.14714">
        <ele>280.8</ele>
        <time>2023-01-18T13:16:04.000Z</time>
      </trkpt>
      <trkpt lat="43.52281" lon="6.14715">
        <ele>279.7</ele>
        <time>2023-01-18T13:16:15.000Z</time>
      </trkpt>
      <trkpt lat="43.52275" lon="6.14715">
        <ele>281</ele>
        <time>2023-01-18T13:16:20.000Z</time>
      </trkpt>
      <trkpt lat="43.52269" lon="6.14716">
        <ele>281.4</ele>
        <time>2023-01-18T13:16:26.000Z</time>
      </trkpt>
      <trkpt lat="43.52265" lon="6.14717">
        <ele>282.2</ele>
        <time>2023-01-18T13:16:30.000Z</time>
      </trkpt>
      <trkpt lat="43.5226" lon="6.14716">
        <ele>283.2</ele>
        <time>2023-01-18T13:16:36.000Z</time>
      </trkpt>
      <trkpt lat="43.52255" lon="6.14716">
        <ele>282.6</ele>
        <time>2023-01-18T13:16:40.000Z</time>
      </trkpt>
      <trkpt lat="43.52251" lon="6.14714">
        <ele>283.7</ele>
        <time>2023-01-18T13:16:47.000Z</time>
      </trkpt>
      <trkpt lat="43.52245" lon="6.14711">
        <ele>286.5</ele>
        <time>2023-01-18T13:16:54.000Z</time>
      </trkpt>
      <trkpt lat="43.52239" lon="6.14709">
        <ele>287.7</ele>
        <time>2023-01-18T13:17:00.000Z</time>
      </trkpt>
      <trkpt lat="43.52233" lon="6.14708">
        <ele>288.2</ele>
        <time>2023-01-18T13:17:06.000Z</time>
      </trkpt>
      <trkpt lat="43.52228" lon="6.14707">
        <ele>289.5</ele>
        <time>2023-01-18T13:17:10.000Z</time>
      </trkpt>
      <trkpt lat="43.52224" lon="6.14705">
        <ele>289.6</ele>
        <time>2023-01-18T13:17:14.000Z</time>
      </trkpt>
      <trkpt lat="43.52219" lon="6.14705">
        <ele>289.9</ele>
        <time>2023-01-18T13:17:20.000Z</time>
      </trkpt>
      <trkpt lat="43.52214" lon="6.14704">
        <ele>290.2</ele>
        <time>2023-01-18T13:17:30.000Z</time>
      </trkpt>
      <trkpt lat="43.52209" lon="6.14705">
        <ele>291.6</ele>
        <time>2023-01-18T13:17:34.000Z</time>
      </trkpt>
      <trkpt lat="43.52204" lon="6.14706">
        <ele>290.9</ele>
        <time>2023-01-18T13:17:38.000Z</time>
      </trkpt>
      <trkpt lat="43.522" lon="6.14709">
        <ele>292</ele>
        <time>2023-01-18T13:17:43.000Z</time>
      </trkpt>
      <trkpt lat="43.52195" lon="6.14711">
        <ele>292.5</ele>
        <time>2023-01-18T13:17:47.000Z</time>
      </trkpt>
      <trkpt lat="43.52189" lon="6.14713">
        <ele>293.5</ele>
        <time>2023-01-18T13:17:54.000Z</time>
      </trkpt>
      <trkpt lat="43.52184" lon="6.14715">
        <ele>295</ele>
        <time>2023-01-18T13:17:58.000Z</time>
      </trkpt>
      <trkpt lat="43.52178" lon="6.14714">
        <ele>296.3</ele>
        <time>2023-01-18T13:18:04.000Z</time>
      </trkpt>
      <trkpt lat="43.52174" lon="6.14716">
        <ele>295.8</ele>
        <time>2023-01-18T13:18:09.000Z</time>
      </trkpt>
      <trkpt lat="43.52168" lon="6.14718">
        <ele>295.5</ele>
        <time>2023-01-18T13:18:15.000Z</time>
      </trkpt>
      <trkpt lat="43.52163" lon="6.14721">
        <ele>297.1</ele>
        <time>2023-01-18T13:18:18.000Z</time>
      </trkpt>
      <trkpt lat="43.52158" lon="6.14724">
        <ele>297.3</ele>
        <time>2023-01-18T13:18:23.000Z</time>
      </trkpt>
      <trkpt lat="43.52153" lon="6.14727">
        <ele>296.1</ele>
        <time>2023-01-18T13:18:27.000Z</time>
      </trkpt>
      <trkpt lat="43.52148" lon="6.1473">
        <ele>297.9</ele>
        <time>2023-01-18T13:18:30.000Z</time>
      </trkpt>
      <trkpt lat="43.52143" lon="6.14733">
        <ele>297.6</ele>
        <time>2023-01-18T13:18:36.000Z</time>
      </trkpt>
      <trkpt lat="43.52138" lon="6.14734">
        <ele>299.4</ele>
        <time>2023-01-18T13:18:39.000Z</time>
      </trkpt>
      <trkpt lat="43.52132" lon="6.14736">
        <ele>298.3</ele>
        <time>2023-01-18T13:18:44.000Z</time>
      </trkpt>
      <trkpt lat="43.52127" lon="6.14738">
        <ele>300.9</ele>
        <time>2023-01-18T13:18:52.000Z</time>
      </trkpt>
      <trkpt lat="43.5212" lon="6.14738">
        <ele>303.1</ele>
        <time>2023-01-18T13:18:59.000Z</time>
      </trkpt>
      <trkpt lat="43.52116" lon="6.14739">
        <ele>303.2</ele>
        <time>2023-01-18T13:19:05.000Z</time>
      </trkpt>
      <trkpt lat="43.5211" lon="6.14739">
        <ele>306.2</ele>
        <time>2023-01-18T13:19:14.000Z</time>
      </trkpt>
      <trkpt lat="43.52106" lon="6.14742">
        <ele>306.4</ele>
        <time>2023-01-18T13:19:20.000Z</time>
      </trkpt>
      <trkpt lat="43.52101" lon="6.14743">
        <ele>307.4</ele>
        <time>2023-01-18T13:19:25.000Z</time>
      </trkpt>
      <trkpt lat="43.52096" lon="6.14743">
        <ele>309.1</ele>
        <time>2023-01-18T13:19:29.000Z</time>
      </trkpt>
      <trkpt lat="43.5209" lon="6.14744">
        <ele>309.6</ele>
        <time>2023-01-18T13:19:34.000Z</time>
      </trkpt>
      <trkpt lat="43.52085" lon="6.14745">
        <ele>311.9</ele>
        <time>2023-01-18T13:19:37.000Z</time>
      </trkpt>
      <trkpt lat="43.52081" lon="6.14744">
        <ele>311.2</ele>
        <time>2023-01-18T13:19:41.000Z</time>
      </trkpt>
      <trkpt lat="43.52076" lon="6.14745">
        <ele>312.6</ele>
        <time>2023-01-18T13:19:45.000Z</time>
      </trkpt>
      <trkpt lat="43.52069" lon="6.14746">
        <ele>313.4</ele>
        <time>2023-01-18T13:19:50.000Z</time>
      </trkpt>
      <trkpt lat="43.52065" lon="6.14748">
        <ele>314.4</ele>
        <time>2023-01-18T13:19:59.000Z</time>
      </trkpt>
      <trkpt lat="43.52058" lon="6.14748">
        <ele>315</ele>
        <time>2023-01-18T13:20:04.000Z</time>
      </trkpt>
      <trkpt lat="43.52052" lon="6.14747">
        <ele>315.6</ele>
        <time>2023-01-18T13:20:07.000Z</time>
      </trkpt>
      <trkpt lat="43.52047" lon="6.14746">
        <ele>316.9</ele>
        <time>2023-01-18T13:20:10.000Z</time>
      </trkpt>
      <trkpt lat="43.52043" lon="6.14742">
        <ele>318.1</ele>
        <time>2023-01-18T13:20:17.000Z</time>
      </trkpt>
      <trkpt lat="43.52039" lon="6.14737">
        <ele>317.7</ele>
        <time>2023-01-18T13:20:23.000Z</time>
      </trkpt>
      <trkpt lat="43.52044" lon="6.14738">
        <ele>319.6</ele>
        <time>2023-01-18T13:20:36.000Z</time>
      </trkpt>
      <trkpt lat="43.52047" lon="6.14743">
        <ele>319.7</ele>
        <time>2023-01-18T13:21:03.000Z</time>
      </trkpt>
      <trkpt lat="43.5205" lon="6.14739">
        <ele>319.7</ele>
        <time>2023-01-18T13:22:31.000Z</time>
      </trkpt>
      <trkpt lat="43.52053" lon="6.14734">
        <ele>319.8</ele>
        <time>2023-01-18T13:23:06.000Z</time>
      </trkpt>
      <trkpt lat="43.52058" lon="6.14733">
        <ele>320</ele>
        <time>2023-01-18T13:25:31.000Z</time>
      </trkpt>
      <trkpt lat="43.52062" lon="6.14731">
        <ele>319.8</ele>
        <time>2023-01-18T13:26:33.000Z</time>
      </trkpt>
      <trkpt lat="43.52067" lon="6.14731">
        <ele>319.3</ele>
        <time>2023-01-18T13:26:45.000Z</time>
      </trkpt>
      <trkpt lat="43.52064" lon="6.14726">
        <ele>320.7</ele>
        <time>2023-01-18T13:27:00.000Z</time>
      </trkpt>
      <trkpt lat="43.5206" lon="6.14721">
        <ele>321.7</ele>
        <time>2023-01-18T13:27:07.000Z</time>
      </trkpt>
      <trkpt lat="43.52057" lon="6.14716">
        <ele>324.9</ele>
        <time>2023-01-18T13:27:15.000Z</time>
      </trkpt>
      <trkpt lat="43.52057" lon="6.1471">
        <ele>328.1</ele>
        <time>2023-01-18T13:27:23.000Z</time>
      </trkpt>
      <trkpt lat="43.52055" lon="6.14704">
        <ele>329.6</ele>
        <time>2023-01-18T13:27:28.000Z</time>
      </trkpt>
      <trkpt lat="43.52052" lon="6.14698">
        <ele>329.7</ele>
        <time>2023-01-18T13:27:34.000Z</time>
      </trkpt>
      <trkpt lat="43.5205" lon="6.14693">
        <ele>329.8</ele>
        <time>2023-01-18T13:27:39.000Z</time>
      </trkpt>
      <trkpt lat="43.52044" lon="6.14692">
        <ele>329.9</ele>
        <time>2023-01-18T13:27:53.000Z</time>
      </trkpt>
      <trkpt lat="43.52039" lon="6.14694">
        <ele>329.5</ele>
        <time>2023-01-18T13:28:01.000Z</time>
      </trkpt>
      <trkpt lat="43.52033" lon="6.14687">
        <ele>329.1</ele>
        <time>2023-01-18T13:28:20.000Z</time>
      </trkpt>
      <trkpt lat="43.52027" lon="6.14686">
        <ele>328.9</ele>
        <time>2023-01-18T13:28:23.000Z</time>
      </trkpt>
      <trkpt lat="43.5202" lon="6.14686">
        <ele>329</ele>
        <time>2023-01-18T13:28:26.000Z</time>
      </trkpt>
      <trkpt lat="43.52015" lon="6.14685">
        <ele>329.1</ele>
        <time>2023-01-18T13:28:29.000Z</time>
      </trkpt>
      <trkpt lat="43.52009" lon="6.14683">
        <ele>328</ele>
        <time>2023-01-18T13:28:35.000Z</time>
      </trkpt>
      <trkpt lat="43.52022" lon="6.14685">
        <ele>328</ele>
        <time>2023-01-18T13:28:39.000Z</time>
      </trkpt>
      <trkpt lat="43.52029" lon="6.14678">
        <ele>328.7</ele>
        <time>2023-01-18T13:28:42.000Z</time>
      </trkpt>
      <trkpt lat="43.52033" lon="6.14676">
        <ele>328.8</ele>
        <time>2023-01-18T13:28:45.000Z</time>
      </trkpt>
      <trkpt lat="43.52038" lon="6.14676">
        <ele>328.9</ele>
        <time>2023-01-18T13:28:49.000Z</time>
      </trkpt>
      <trkpt lat="43.52039" lon="6.14683">
        <ele>329.3</ele>
        <time>2023-01-18T13:29:02.000Z</time>
      </trkpt>
      <trkpt lat="43.52043" lon="6.14688">
        <ele>328.6</ele>
        <time>2023-01-18T13:29:08.000Z</time>
      </trkpt>
      <trkpt lat="43.52045" lon="6.14694">
        <ele>329.1</ele>
        <time>2023-01-18T13:29:21.000Z</time>
      </trkpt>
      <trkpt lat="43.5205" lon="6.14696">
        <ele>328.6</ele>
        <time>2023-01-18T13:29:44.000Z</time>
      </trkpt>
      <trkpt lat="43.52052" lon="6.1469">
        <ele>328.7</ele>
        <time>2023-01-18T13:29:50.000Z</time>
      </trkpt>
      <trkpt lat="43.52056" lon="6.14686">
        <ele>328.8</ele>
        <time>2023-01-18T13:29:57.000Z</time>
      </trkpt>
      <trkpt lat="43.52052" lon="6.14687">
        <ele>328</ele>
        <time>2023-01-18T13:30:05.000Z</time>
      </trkpt>
      <trkpt lat="43.52041" lon="6.14685">
        <ele>328</ele>
        <time>2023-01-18T13:30:09.000Z</time>
      </trkpt>
      <trkpt lat="43.52034" lon="6.14673">
        <ele>328</ele>
        <time>2023-01-18T13:30:19.000Z</time>
      </trkpt>
      <trkpt lat="43.52039" lon="6.14671">
        <ele>328</ele>
        <time>2023-01-18T13:30:26.000Z</time>
      </trkpt>
      <trkpt lat="43.52044" lon="6.14675">
        <ele>328</ele>
        <time>2023-01-18T13:30:30.000Z</time>
      </trkpt>
      <trkpt lat="43.52036" lon="6.14679">
        <ele>329.4</ele>
        <time>2023-01-18T13:30:37.000Z</time>
      </trkpt>
      <trkpt lat="43.52042" lon="6.14679">
        <ele>329.1</ele>
        <time>2023-01-18T13:30:43.000Z</time>
      </trkpt>
      <trkpt lat="43.52037" lon="6.14676">
        <ele>329</ele>
        <time>2023-01-18T13:30:47.000Z</time>
      </trkpt>
      <trkpt lat="43.52034" lon="6.14682">
        <ele>328.8</ele>
        <time>2023-01-18T13:30:55.000Z</time>
      </trkpt>
      <trkpt lat="43.52039" lon="6.14684">
        <ele>328.7</ele>
        <time>2023-01-18T13:30:57.000Z</time>
      </trkpt>
      <trkpt lat="43.52044" lon="6.14685">
        <ele>328.3</ele>
        <time>2023-01-18T13:31:00.000Z</time>
      </trkpt>
      <trkpt lat="43.52039" lon="6.14678">
        <ele>329.2</ele>
        <time>2023-01-18T13:31:08.000Z</time>
      </trkpt>
      <trkpt lat="43.52035" lon="6.14675">
        <ele>328.9</ele>
        <time>2023-01-18T13:31:10.000Z</time>
      </trkpt>
      <trkpt lat="43.5203" lon="6.14671">
        <ele>328.8</ele>
        <time>2023-01-18T13:31:16.000Z</time>
      </trkpt>
      <trkpt lat="43.52026" lon="6.14667">
        <ele>328.9</ele>
        <time>2023-01-18T13:31:20.000Z</time>
      </trkpt>
      <trkpt lat="43.52021" lon="6.14665">
        <ele>329.1</ele>
        <time>2023-01-18T13:31:22.000Z</time>
      </trkpt>
      <trkpt lat="43.52016" lon="6.14664">
        <ele>329.2</ele>
        <time>2023-01-18T13:31:23.000Z</time>
      </trkpt>
      <trkpt lat="43.5201" lon="6.14663">
        <ele>329.4</ele>
        <time>2023-01-18T13:31:25.000Z</time>
      </trkpt>
      <trkpt lat="43.52004" lon="6.14663">
        <ele>329.6</ele>
        <time>2023-01-18T13:31:27.000Z</time>
      </trkpt>
      <trkpt lat="43.51999" lon="6.14664">
        <ele>329.5</ele>
        <time>2023-01-18T13:31:30.000Z</time>
      </trkpt>
      <trkpt lat="43.52004" lon="6.14666">
        <ele>329.4</ele>
        <time>2023-01-18T13:31:35.000Z</time>
      </trkpt>
      <trkpt lat="43.52009" lon="6.14665">
        <ele>329.4</ele>
        <time>2023-01-18T13:31:37.000Z</time>
      </trkpt>
      <trkpt lat="43.52015" lon="6.14667">
        <ele>329.4</ele>
        <time>2023-01-18T13:31:39.000Z</time>
      </trkpt>
      <trkpt lat="43.52021" lon="6.1467">
        <ele>328</ele>
        <time>2023-01-18T13:31:42.000Z</time>
      </trkpt>
      <trkpt lat="43.52028" lon="6.14673">
        <ele>328</ele>
        <time>2023-01-18T13:31:46.000Z</time>
      </trkpt>
      <trkpt lat="43.52033" lon="6.14671">
        <ele>328</ele>
        <time>2023-01-18T13:31:53.000Z</time>
      </trkpt>
      <trkpt lat="43.52039" lon="6.14676">
        <ele>328.4</ele>
        <time>2023-01-18T13:32:00.000Z</time>
      </trkpt>
      <trkpt lat="43.52038" lon="6.14683">
        <ele>328</ele>
        <time>2023-01-18T13:32:07.000Z</time>
      </trkpt>
      <trkpt lat="43.52017" lon="6.14683">
        <ele>328</ele>
        <time>2023-01-18T13:32:13.000Z</time>
      </trkpt>
      <trkpt lat="43.5203" lon="6.14706">
        <ele>328</ele>
        <time>2023-01-18T13:32:23.000Z</time>
      </trkpt>
      <trkpt lat="43.52039" lon="6.14711">
        <ele>328</ele>
        <time>2023-01-18T13:32:29.000Z</time>
      </trkpt>
      <trkpt lat="43.52053" lon="6.14712">
        <ele>328</ele>
        <time>2023-01-18T13:32:43.000Z</time>
      </trkpt>
      <trkpt lat="43.5208" lon="6.14676">
        <ele>328</ele>
        <time>2023-01-18T13:33:06.000Z</time>
      </trkpt>
      <trkpt lat="43.52065" lon="6.14649">
        <ele>328</ele>
        <time>2023-01-18T13:33:24.000Z</time>
      </trkpt>
      <trkpt lat="43.52064" lon="6.1466">
        <ele>328</ele>
        <time>2023-01-18T13:33:40.000Z</time>
      </trkpt>
      <trkpt lat="43.52048" lon="6.14624">
        <ele>328</ele>
        <time>2023-01-18T13:33:56.000Z</time>
      </trkpt>
      <trkpt lat="43.52058" lon="6.14649">
        <ele>328</ele>
        <time>2023-01-18T13:34:02.000Z</time>
      </trkpt>
      <trkpt lat="43.52061" lon="6.14657">
        <ele>328</ele>
        <time>2023-01-18T13:34:10.000Z</time>
      </trkpt>
      <trkpt lat="43.52071" lon="6.14705">
        <ele>328</ele>
        <time>2023-01-18T13:34:16.000Z</time>
      </trkpt>
      <trkpt lat="43.52071" lon="6.14721">
        <ele>328.6</ele>
        <time>2023-01-18T13:34:19.000Z</time>
      </trkpt>
      <trkpt lat="43.52075" lon="6.14732">
        <ele>328.6</ele>
        <time>2023-01-18T13:34:21.000Z</time>
      </trkpt>
      <trkpt lat="43.5207" lon="6.14731">
        <ele>328</ele>
        <time>2023-01-18T13:34:24.000Z</time>
      </trkpt>
      <trkpt lat="43.52049" lon="6.1472">
        <ele>328.6</ele>
        <time>2023-01-18T13:34:30.000Z</time>
      </trkpt>
      <trkpt lat="43.52043" lon="6.14721">
        <ele>329.1</ele>
        <time>2023-01-18T13:34:34.000Z</time>
      </trkpt>
      <trkpt lat="43.52039" lon="6.14716">
        <ele>328</ele>
        <time>2023-01-18T13:34:36.000Z</time>
      </trkpt>
      <trkpt lat="43.52037" lon="6.14698">
        <ele>328</ele>
        <time>2023-01-18T13:34:41.000Z</time>
      </trkpt>
      <trkpt lat="43.52023" lon="6.14654">
        <ele>328</ele>
        <time>2023-01-18T13:34:54.000Z</time>
      </trkpt>
      <trkpt lat="43.52021" lon="6.14648">
        <ele>328.7</ele>
        <time>2023-01-18T13:35:11.000Z</time>
      </trkpt>
      <trkpt lat="43.5202" lon="6.14641">
        <ele>328.6</ele>
        <time>2023-01-18T13:35:15.000Z</time>
      </trkpt>
      <trkpt lat="43.52015" lon="6.1464">
        <ele>328.4</ele>
        <time>2023-01-18T13:35:19.000Z</time>
      </trkpt>
      <trkpt lat="43.52011" lon="6.14643">
        <ele>328.6</ele>
        <time>2023-01-18T13:35:22.000Z</time>
      </trkpt>
      <trkpt lat="43.52028" lon="6.14672">
        <ele>328</ele>
        <time>2023-01-18T13:35:29.000Z</time>
      </trkpt>
      <trkpt lat="43.52031" lon="6.14677">
        <ele>328.7</ele>
        <time>2023-01-18T13:35:36.000Z</time>
      </trkpt>
      <trkpt lat="43.52035" lon="6.14681">
        <ele>329.1</ele>
        <time>2023-01-18T13:35:41.000Z</time>
      </trkpt>
      <trkpt lat="43.5204" lon="6.1468">
        <ele>328.7</ele>
        <time>2023-01-18T13:35:47.000Z</time>
      </trkpt>
      <trkpt lat="43.52042" lon="6.14674">
        <ele>327.4</ele>
        <time>2023-01-18T13:35:58.000Z</time>
      </trkpt>
      <trkpt lat="43.52036" lon="6.14674">
        <ele>326</ele>
        <time>2023-01-18T13:36:48.000Z</time>
      </trkpt>
      <trkpt lat="43.52041" lon="6.14677">
        <ele>326.6</ele>
        <time>2023-01-18T13:37:08.000Z</time>
      </trkpt>
      <trkpt lat="43.52047" lon="6.14681">
        <ele>327.6</ele>
        <time>2023-01-18T13:37:11.000Z</time>
      </trkpt>
      <trkpt lat="43.52052" lon="6.14685">
        <ele>326.6</ele>
        <time>2023-01-18T13:37:14.000Z</time>
      </trkpt>
      <trkpt lat="43.52054" lon="6.1469">
        <ele>328.1</ele>
        <time>2023-01-18T13:37:22.000Z</time>
      </trkpt>
      <trkpt lat="43.52053" lon="6.14696">
        <ele>331.2</ele>
        <time>2023-01-18T13:37:35.000Z</time>
      </trkpt>
      <trkpt lat="43.52056" lon="6.14701">
        <ele>330.4</ele>
        <time>2023-01-18T13:37:43.000Z</time>
      </trkpt>
      <trkpt lat="43.52057" lon="6.14694">
        <ele>330.7</ele>
        <time>2023-01-18T13:38:26.000Z</time>
      </trkpt>
      <trkpt lat="43.52058" lon="6.14687">
        <ele>330.7</ele>
        <time>2023-01-18T13:38:41.000Z</time>
      </trkpt>
      <trkpt lat="43.5206" lon="6.14681">
        <ele>331.1</ele>
        <time>2023-01-18T13:38:46.000Z</time>
      </trkpt>
      <trkpt lat="43.52063" lon="6.14675">
        <ele>330.6</ele>
        <time>2023-01-18T13:38:52.000Z</time>
      </trkpt>
      <trkpt lat="43.52064" lon="6.14669">
        <ele>331.4</ele>
        <time>2023-01-18T13:38:58.000Z</time>
      </trkpt>
      <trkpt lat="43.52063" lon="6.14663">
        <ele>331.4</ele>
        <time>2023-01-18T13:39:03.000Z</time>
      </trkpt>
      <trkpt lat="43.52065" lon="6.14657">
        <ele>331.3</ele>
        <time>2023-01-18T13:39:08.000Z</time>
      </trkpt>
      <trkpt lat="43.52068" lon="6.14651">
        <ele>331</ele>
        <time>2023-01-18T13:39:13.000Z</time>
      </trkpt>
      <trkpt lat="43.52072" lon="6.14645">
        <ele>330.9</ele>
        <time>2023-01-18T13:39:18.000Z</time>
      </trkpt>
      <trkpt lat="43.52075" lon="6.14639">
        <ele>331</ele>
        <time>2023-01-18T13:39:23.000Z</time>
      </trkpt>
      <trkpt lat="43.52078" lon="6.14634">
        <ele>331</ele>
        <time>2023-01-18T13:39:27.000Z</time>
      </trkpt>
      <trkpt lat="43.52077" lon="6.14626">
        <ele>331.4</ele>
        <time>2023-01-18T13:39:33.000Z</time>
      </trkpt>
      <trkpt lat="43.52078" lon="6.1462">
        <ele>331.5</ele>
        <time>2023-01-18T13:39:42.000Z</time>
      </trkpt>
      <trkpt lat="43.52083" lon="6.14619">
        <ele>331.4</ele>
        <time>2023-01-18T13:40:06.000Z</time>
      </trkpt>
      <trkpt lat="43.52079" lon="6.14624">
        <ele>331.1</ele>
        <time>2023-01-18T13:40:34.000Z</time>
      </trkpt>
      <trkpt lat="43.52075" lon="6.14629">
        <ele>330.8</ele>
        <time>2023-01-18T13:40:41.000Z</time>
      </trkpt>
      <trkpt lat="43.52071" lon="6.14632">
        <ele>330</ele>
        <time>2023-01-18T13:40:47.000Z</time>
      </trkpt>
      <trkpt lat="43.52067" lon="6.14636">
        <ele>330</ele>
        <time>2023-01-18T13:40:52.000Z</time>
      </trkpt>
      <trkpt lat="43.52062" lon="6.1464">
        <ele>330</ele>
        <time>2023-01-18T13:40:58.000Z</time>
      </trkpt>
      <trkpt lat="43.52058" lon="6.14642">
        <ele>330</ele>
        <time>2023-01-18T13:41:04.000Z</time>
      </trkpt>
      <trkpt lat="43.52054" lon="6.14638">
        <ele>329.6</ele>
        <time>2023-01-18T13:41:11.000Z</time>
      </trkpt>
      <trkpt lat="43.52049" lon="6.14633">
        <ele>329</ele>
        <time>2023-01-18T13:41:16.000Z</time>
      </trkpt>
      <trkpt lat="43.52048" lon="6.14626">
        <ele>328.1</ele>
        <time>2023-01-18T13:41:21.000Z</time>
      </trkpt>
      <trkpt lat="43.52049" lon="6.14619">
        <ele>327.6</ele>
        <time>2023-01-18T13:41:28.000Z</time>
      </trkpt>
      <trkpt lat="43.52047" lon="6.14612">
        <ele>326.9</ele>
        <time>2023-01-18T13:41:33.000Z</time>
      </trkpt>
      <trkpt lat="43.52046" lon="6.14606">
        <ele>325.5</ele>
        <time>2023-01-18T13:41:40.000Z</time>
      </trkpt>
      <trkpt lat="43.52052" lon="6.14604">
        <ele>324.6</ele>
        <time>2023-01-18T13:41:52.000Z</time>
      </trkpt>
      <trkpt lat="43.52057" lon="6.14604">
        <ele>323.8</ele>
        <time>2023-01-18T13:41:59.000Z</time>
      </trkpt>
      <trkpt lat="43.52061" lon="6.14602">
        <ele>324</ele>
        <time>2023-01-18T13:42:04.000Z</time>
      </trkpt>
      <trkpt lat="43.52066" lon="6.14602">
        <ele>324</ele>
        <time>2023-01-18T13:42:07.000Z</time>
      </trkpt>
      <trkpt lat="43.52071" lon="6.146">
        <ele>323.5</ele>
        <time>2023-01-18T13:42:14.000Z</time>
      </trkpt>
      <trkpt lat="43.52075" lon="6.14597">
        <ele>323.3</ele>
        <time>2023-01-18T13:42:18.000Z</time>
      </trkpt>
      <trkpt lat="43.52079" lon="6.14596">
        <ele>322.6</ele>
        <time>2023-01-18T13:42:23.000Z</time>
      </trkpt>
      <trkpt lat="43.52084" lon="6.14596">
        <ele>322.7</ele>
        <time>2023-01-18T13:42:27.000Z</time>
      </trkpt>
      <trkpt lat="43.52089" lon="6.14597">
        <ele>323.1</ele>
        <time>2023-01-18T13:42:34.000Z</time>
      </trkpt>
      <trkpt lat="43.52094" lon="6.14599">
        <ele>323.9</ele>
        <time>2023-01-18T13:42:40.000Z</time>
      </trkpt>
      <trkpt lat="43.521" lon="6.14601">
        <ele>324.3</ele>
        <time>2023-01-18T13:42:46.000Z</time>
      </trkpt>
      <trkpt lat="43.52105" lon="6.14603">
        <ele>324.7</ele>
        <time>2023-01-18T13:42:50.000Z</time>
      </trkpt>
      <trkpt lat="43.52111" lon="6.14606">
        <ele>325</ele>
        <time>2023-01-18T13:42:56.000Z</time>
      </trkpt>
      <trkpt lat="43.52115" lon="6.1461">
        <ele>325</ele>
        <time>2023-01-18T13:43:01.000Z</time>
      </trkpt>
      <trkpt lat="43.52119" lon="6.14614">
        <ele>325.2</ele>
        <time>2023-01-18T13:43:06.000Z</time>
      </trkpt>
      <trkpt lat="43.52123" lon="6.14619">
        <ele>326.2</ele>
        <time>2023-01-18T13:43:09.000Z</time>
      </trkpt>
      <trkpt lat="43.52127" lon="6.14624">
        <ele>326.6</ele>
        <time>2023-01-18T13:43:14.000Z</time>
      </trkpt>
      <trkpt lat="43.52131" lon="6.14624">
        <ele>326.8</ele>
        <time>2023-01-18T13:43:27.000Z</time>
      </trkpt>
      <trkpt lat="43.52136" lon="6.1462">
        <ele>326.5</ele>
        <time>2023-01-18T13:43:32.000Z</time>
      </trkpt>
      <trkpt lat="43.5214" lon="6.14617">
        <ele>325.9</ele>
        <time>2023-01-18T13:43:38.000Z</time>
      </trkpt>
      <trkpt lat="43.52144" lon="6.14622">
        <ele>324.1</ele>
        <time>2023-01-18T13:43:51.000Z</time>
      </trkpt>
      <trkpt lat="43.52146" lon="6.14628">
        <ele>325.4</ele>
        <time>2023-01-18T13:43:57.000Z</time>
      </trkpt>
      <trkpt lat="43.52146" lon="6.14634">
        <ele>324.9</ele>
        <time>2023-01-18T13:44:06.000Z</time>
      </trkpt>
      <trkpt lat="43.52147" lon="6.1464">
        <ele>323.6</ele>
        <time>2023-01-18T13:44:13.000Z</time>
      </trkpt>
      <trkpt lat="43.52146" lon="6.14633">
        <ele>322.7</ele>
        <time>2023-01-18T13:44:27.000Z</time>
      </trkpt>
      <trkpt lat="43.52144" lon="6.14627">
        <ele>323.7</ele>
        <time>2023-01-18T13:44:32.000Z</time>
      </trkpt>
      <trkpt lat="43.52145" lon="6.14621">
        <ele>325.2</ele>
        <time>2023-01-18T13:44:37.000Z</time>
      </trkpt>
      <trkpt lat="43.52149" lon="6.14616">
        <ele>325.9</ele>
        <time>2023-01-18T13:44:45.000Z</time>
      </trkpt>
      <trkpt lat="43.52154" lon="6.14615">
        <ele>326.2</ele>
        <time>2023-01-18T13:44:50.000Z</time>
      </trkpt>
      <trkpt lat="43.52159" lon="6.14613">
        <ele>326.1</ele>
        <time>2023-01-18T13:44:55.000Z</time>
      </trkpt>
      <trkpt lat="43.52164" lon="6.14609">
        <ele>325.7</ele>
        <time>2023-01-18T13:45:01.000Z</time>
      </trkpt>
      <trkpt lat="43.52169" lon="6.14607">
        <ele>326.3</ele>
        <time>2023-01-18T13:45:07.000Z</time>
      </trkpt>
      <trkpt lat="43.52173" lon="6.14605">
        <ele>326.5</ele>
        <time>2023-01-18T13:45:10.000Z</time>
      </trkpt>
      <trkpt lat="43.52178" lon="6.146">
        <ele>326.7</ele>
        <time>2023-01-18T13:45:16.000Z</time>
      </trkpt>
      <trkpt lat="43.52183" lon="6.14596">
        <ele>327.1</ele>
        <time>2023-01-18T13:45:22.000Z</time>
      </trkpt>
      <trkpt lat="43.52188" lon="6.14593">
        <ele>327.5</ele>
        <time>2023-01-18T13:45:27.000Z</time>
      </trkpt>
      <trkpt lat="43.52192" lon="6.1459">
        <ele>327.7</ele>
        <time>2023-01-18T13:45:31.000Z</time>
      </trkpt>
      <trkpt lat="43.52196" lon="6.14588">
        <ele>327.9</ele>
        <time>2023-01-18T13:45:37.000Z</time>
      </trkpt>
      <trkpt lat="43.52201" lon="6.14585">
        <ele>328.4</ele>
        <time>2023-01-18T13:45:43.000Z</time>
      </trkpt>
      <trkpt lat="43.52205" lon="6.14583">
        <ele>328.6</ele>
        <time>2023-01-18T13:46:01.000Z</time>
      </trkpt>
      <trkpt lat="43.5221" lon="6.14583">
        <ele>328.5</ele>
        <time>2023-01-18T13:46:48.000Z</time>
      </trkpt>
      <trkpt lat="43.52214" lon="6.14585">
        <ele>329.3</ele>
        <time>2023-01-18T13:48:25.000Z</time>
      </trkpt>
      <trkpt lat="43.52219" lon="6.14585">
        <ele>329</ele>
        <time>2023-01-18T13:48:51.000Z</time>
      </trkpt>
      <trkpt lat="43.52214" lon="6.14586">
        <ele>329.3</ele>
        <time>2023-01-18T13:49:11.000Z</time>
      </trkpt>
      <trkpt lat="43.52218" lon="6.1459">
        <ele>328.6</ele>
        <time>2023-01-18T13:49:16.000Z</time>
      </trkpt>
      <trkpt lat="43.52223" lon="6.14588">
        <ele>328.1</ele>
        <time>2023-01-18T13:49:22.000Z</time>
      </trkpt>
      <trkpt lat="43.52227" lon="6.14585">
        <ele>327.3</ele>
        <time>2023-01-18T13:49:27.000Z</time>
      </trkpt>
      <trkpt lat="43.52231" lon="6.1458">
        <ele>327</ele>
        <time>2023-01-18T13:49:31.000Z</time>
      </trkpt>
      <trkpt lat="43.52234" lon="6.14574">
        <ele>326.9</ele>
        <time>2023-01-18T13:49:34.000Z</time>
      </trkpt>
      <trkpt lat="43.52237" lon="6.14569">
        <ele>326.9</ele>
        <time>2023-01-18T13:49:37.000Z</time>
      </trkpt>
      <trkpt lat="43.52239" lon="6.14563">
        <ele>326.9</ele>
        <time>2023-01-18T13:49:40.000Z</time>
      </trkpt>
      <trkpt lat="43.52245" lon="6.1456">
        <ele>326.6</ele>
        <time>2023-01-18T13:49:44.000Z</time>
      </trkpt>
      <trkpt lat="43.52251" lon="6.14558">
        <ele>326.4</ele>
        <time>2023-01-18T13:49:48.000Z</time>
      </trkpt>
      <trkpt lat="43.52254" lon="6.14552">
        <ele>325.2</ele>
        <time>2023-01-18T13:49:54.000Z</time>
      </trkpt>
      <trkpt lat="43.52257" lon="6.14546">
        <ele>324.3</ele>
        <time>2023-01-18T13:49:59.000Z</time>
      </trkpt>
      <trkpt lat="43.52257" lon="6.1454">
        <ele>324.2</ele>
        <time>2023-01-18T13:50:02.000Z</time>
      </trkpt>
      <trkpt lat="43.52259" lon="6.14533">
        <ele>323.7</ele>
        <time>2023-01-18T13:50:06.000Z</time>
      </trkpt>
      <trkpt lat="43.52263" lon="6.14526">
        <ele>323.5</ele>
        <time>2023-01-18T13:50:10.000Z</time>
      </trkpt>
      <trkpt lat="43.52265" lon="6.1452">
        <ele>321.8</ele>
        <time>2023-01-18T13:50:17.000Z</time>
      </trkpt>
      <trkpt lat="43.52268" lon="6.14515">
        <ele>320.6</ele>
        <time>2023-01-18T13:50:21.000Z</time>
      </trkpt>
      <trkpt lat="43.52272" lon="6.14508">
        <ele>320.4</ele>
        <time>2023-01-18T13:50:26.000Z</time>
      </trkpt>
      <trkpt lat="43.52275" lon="6.14504">
        <ele>320.1</ele>
        <time>2023-01-18T13:50:29.000Z</time>
      </trkpt>
      <trkpt lat="43.52279" lon="6.145">
        <ele>319.6</ele>
        <time>2023-01-18T13:50:32.000Z</time>
      </trkpt>
      <trkpt lat="43.52282" lon="6.14494">
        <ele>320.2</ele>
        <time>2023-01-18T13:50:36.000Z</time>
      </trkpt>
      <trkpt lat="43.52286" lon="6.14489">
        <ele>319.1</ele>
        <time>2023-01-18T13:50:41.000Z</time>
      </trkpt>
      <trkpt lat="43.5229" lon="6.14484">
        <ele>318.4</ele>
        <time>2023-01-18T13:50:45.000Z</time>
      </trkpt>
      <trkpt lat="43.52295" lon="6.1448">
        <ele>318.7</ele>
        <time>2023-01-18T13:50:49.000Z</time>
      </trkpt>
      <trkpt lat="43.52298" lon="6.14476">
        <ele>318.5</ele>
        <time>2023-01-18T13:50:52.000Z</time>
      </trkpt>
      <trkpt lat="43.52303" lon="6.1447">
        <ele>318.1</ele>
        <time>2023-01-18T13:50:57.000Z</time>
      </trkpt>
      <trkpt lat="43.52307" lon="6.14466">
        <ele>318.3</ele>
        <time>2023-01-18T13:50:59.000Z</time>
      </trkpt>
      <trkpt lat="43.5231" lon="6.1446">
        <ele>318.5</ele>
        <time>2023-01-18T13:51:04.000Z</time>
      </trkpt>
      <trkpt lat="43.52314" lon="6.14454">
        <ele>318.9</ele>
        <time>2023-01-18T13:51:11.000Z</time>
      </trkpt>
      <trkpt lat="43.52317" lon="6.14449">
        <ele>319.4</ele>
        <time>2023-01-18T13:51:14.000Z</time>
      </trkpt>
      <trkpt lat="43.52322" lon="6.14444">
        <ele>319.2</ele>
        <time>2023-01-18T13:51:18.000Z</time>
      </trkpt>
      <trkpt lat="43.52326" lon="6.14438">
        <ele>318.8</ele>
        <time>2023-01-18T13:51:21.000Z</time>
      </trkpt>
      <trkpt lat="43.5233" lon="6.14432">
        <ele>319.5</ele>
        <time>2023-01-18T13:51:24.000Z</time>
      </trkpt>
      <trkpt lat="43.52333" lon="6.14426">
        <ele>320.1</ele>
        <time>2023-01-18T13:51:27.000Z</time>
      </trkpt>
      <trkpt lat="43.52336" lon="6.1442">
        <ele>319.5</ele>
        <time>2023-01-18T13:51:34.000Z</time>
      </trkpt>
      <trkpt lat="43.52339" lon="6.14417">
        <ele>319.8</ele>
        <time>2023-01-18T13:51:37.000Z</time>
      </trkpt>
      <trkpt lat="43.52343" lon="6.14411">
        <ele>319.6</ele>
        <time>2023-01-18T13:51:41.000Z</time>
      </trkpt>
      <trkpt lat="43.52346" lon="6.14407">
        <ele>319.8</ele>
        <time>2023-01-18T13:51:44.000Z</time>
      </trkpt>
      <trkpt lat="43.52351" lon="6.14404">
        <ele>322.1</ele>
        <time>2023-01-18T13:52:06.000Z</time>
      </trkpt>
      <trkpt lat="43.52354" lon="6.144">
        <ele>321.7</ele>
        <time>2023-01-18T13:52:12.000Z</time>
      </trkpt>
      <trkpt lat="43.52358" lon="6.14396">
        <ele>321.8</ele>
        <time>2023-01-18T13:52:16.000Z</time>
      </trkpt>
      <trkpt lat="43.52361" lon="6.1439">
        <ele>321.6</ele>
        <time>2023-01-18T13:52:22.000Z</time>
      </trkpt>
      <trkpt lat="43.52362" lon="6.14384">
        <ele>321.4</ele>
        <time>2023-01-18T13:52:29.000Z</time>
      </trkpt>
      <trkpt lat="43.52363" lon="6.14377">
        <ele>320.8</ele>
        <time>2023-01-18T13:52:33.000Z</time>
      </trkpt>
      <trkpt lat="43.52364" lon="6.1437">
        <ele>321.7</ele>
        <time>2023-01-18T13:52:36.000Z</time>
      </trkpt>
      <trkpt lat="43.52364" lon="6.14363">
        <ele>321.4</ele>
        <time>2023-01-18T13:52:42.000Z</time>
      </trkpt>
      <trkpt lat="43.52365" lon="6.14355">
        <ele>321.5</ele>
        <time>2023-01-18T13:52:45.000Z</time>
      </trkpt>
      <trkpt lat="43.52366" lon="6.14348">
        <ele>322</ele>
        <time>2023-01-18T13:52:48.000Z</time>
      </trkpt>
      <trkpt lat="43.5237" lon="6.14343">
        <ele>321.6</ele>
        <time>2023-01-18T13:52:52.000Z</time>
      </trkpt>
      <trkpt lat="43.52373" lon="6.14338">
        <ele>321.4</ele>
        <time>2023-01-18T13:52:56.000Z</time>
      </trkpt>
      <trkpt lat="43.52376" lon="6.14333">
        <ele>321.4</ele>
        <time>2023-01-18T13:52:59.000Z</time>
      </trkpt>
      <trkpt lat="43.52381" lon="6.14327">
        <ele>321.3</ele>
        <time>2023-01-18T13:53:02.000Z</time>
      </trkpt>
      <trkpt lat="43.52385" lon="6.14322">
        <ele>321.5</ele>
        <time>2023-01-18T13:53:05.000Z</time>
      </trkpt>
      <trkpt lat="43.52387" lon="6.14316">
        <ele>321.4</ele>
        <time>2023-01-18T13:53:09.000Z</time>
      </trkpt>
      <trkpt lat="43.52387" lon="6.14308">
        <ele>320.8</ele>
        <time>2023-01-18T13:53:14.000Z</time>
      </trkpt>
      <trkpt lat="43.52388" lon="6.14302">
        <ele>320.2</ele>
        <time>2023-01-18T13:53:17.000Z</time>
      </trkpt>
      <trkpt lat="43.5239" lon="6.14296">
        <ele>319.6</ele>
        <time>2023-01-18T13:53:22.000Z</time>
      </trkpt>
      <trkpt lat="43.52391" lon="6.14289">
        <ele>319.2</ele>
        <time>2023-01-18T13:53:27.000Z</time>
      </trkpt>
      <trkpt lat="43.52394" lon="6.14285">
        <ele>319.5</ele>
        <time>2023-01-18T13:53:31.000Z</time>
      </trkpt>
      <trkpt lat="43.52397" lon="6.14279">
        <ele>319.9</ele>
        <time>2023-01-18T13:53:35.000Z</time>
      </trkpt>
      <trkpt lat="43.52401" lon="6.14274">
        <ele>320.1</ele>
        <time>2023-01-18T13:53:38.000Z</time>
      </trkpt>
      <trkpt lat="43.52404" lon="6.14269">
        <ele>320.1</ele>
        <time>2023-01-18T13:53:41.000Z</time>
      </trkpt>
      <trkpt lat="43.52408" lon="6.14263">
        <ele>319.7</ele>
        <time>2023-01-18T13:53:44.000Z</time>
      </trkpt>
      <trkpt lat="43.52413" lon="6.14257">
        <ele>319.6</ele>
        <time>2023-01-18T13:53:47.000Z</time>
      </trkpt>
      <trkpt lat="43.52416" lon="6.14251">
        <ele>320</ele>
        <time>2023-01-18T13:53:50.000Z</time>
      </trkpt>
      <trkpt lat="43.52418" lon="6.14245">
        <ele>319.8</ele>
        <time>2023-01-18T13:53:54.000Z</time>
      </trkpt>
      <trkpt lat="43.52422" lon="6.14239">
        <ele>319.1</ele>
        <time>2023-01-18T13:54:00.000Z</time>
      </trkpt>
      <trkpt lat="43.52424" lon="6.14232">
        <ele>320</ele>
        <time>2023-01-18T13:54:05.000Z</time>
      </trkpt>
      <trkpt lat="43.52425" lon="6.14224">
        <ele>319.3</ele>
        <time>2023-01-18T13:54:09.000Z</time>
      </trkpt>
      <trkpt lat="43.52425" lon="6.14216">
        <ele>320.1</ele>
        <time>2023-01-18T13:54:12.000Z</time>
      </trkpt>
      <trkpt lat="43.52427" lon="6.14209">
        <ele>320.1</ele>
        <time>2023-01-18T13:54:17.000Z</time>
      </trkpt>
      <trkpt lat="43.52428" lon="6.14201">
        <ele>320.9</ele>
        <time>2023-01-18T13:54:22.000Z</time>
      </trkpt>
      <trkpt lat="43.52428" lon="6.14194">
        <ele>320.9</ele>
        <time>2023-01-18T13:54:24.000Z</time>
      </trkpt>
      <trkpt lat="43.52427" lon="6.14186">
        <ele>321.8</ele>
        <time>2023-01-18T13:54:27.000Z</time>
      </trkpt>
      <trkpt lat="43.52427" lon="6.1418">
        <ele>321.1</ele>
        <time>2023-01-18T13:54:31.000Z</time>
      </trkpt>
      <trkpt lat="43.52426" lon="6.14172">
        <ele>321</ele>
        <time>2023-01-18T13:54:37.000Z</time>
      </trkpt>
      <trkpt lat="43.52423" lon="6.14165">
        <ele>321.8</ele>
        <time>2023-01-18T13:54:40.000Z</time>
      </trkpt>
      <trkpt lat="43.52425" lon="6.1416">
        <ele>321.2</ele>
        <time>2023-01-18T13:54:45.000Z</time>
      </trkpt>
      <trkpt lat="43.52428" lon="6.14155">
        <ele>323.3</ele>
        <time>2023-01-18T13:54:54.000Z</time>
      </trkpt>
      <trkpt lat="43.52425" lon="6.1415">
        <ele>323.1</ele>
        <time>2023-01-18T13:55:14.000Z</time>
      </trkpt>
      <trkpt lat="43.52424" lon="6.14144">
        <ele>323.5</ele>
        <time>2023-01-18T13:55:18.000Z</time>
      </trkpt>
      <trkpt lat="43.52422" lon="6.14137">
        <ele>323.8</ele>
        <time>2023-01-18T13:55:23.000Z</time>
      </trkpt>
      <trkpt lat="43.52421" lon="6.14129">
        <ele>323.8</ele>
        <time>2023-01-18T13:55:28.000Z</time>
      </trkpt>
      <trkpt lat="43.52419" lon="6.14123">
        <ele>324.4</ele>
        <time>2023-01-18T13:55:31.000Z</time>
      </trkpt>
      <trkpt lat="43.52419" lon="6.14116">
        <ele>324.3</ele>
        <time>2023-01-18T13:55:36.000Z</time>
      </trkpt>
      <trkpt lat="43.52417" lon="6.14111">
        <ele>325</ele>
        <time>2023-01-18T13:55:40.000Z</time>
      </trkpt>
      <trkpt lat="43.52417" lon="6.14104">
        <ele>325.7</ele>
        <time>2023-01-18T13:55:43.000Z</time>
      </trkpt>
      <trkpt lat="43.52416" lon="6.14098">
        <ele>325.8</ele>
        <time>2023-01-18T13:55:53.000Z</time>
      </trkpt>
      <trkpt lat="43.52415" lon="6.14092">
        <ele>325.4</ele>
        <time>2023-01-18T13:56:20.000Z</time>
      </trkpt>
      <trkpt lat="43.52416" lon="6.14086">
        <ele>326.2</ele>
        <time>2023-01-18T13:56:32.000Z</time>
      </trkpt>
      <trkpt lat="43.52416" lon="6.1408">
        <ele>326.1</ele>
        <time>2023-01-18T13:56:35.000Z</time>
      </trkpt>
      <trkpt lat="43.5242" lon="6.14084">
        <ele>326.2</ele>
        <time>2023-01-18T13:57:03.000Z</time>
      </trkpt>
      <trkpt lat="43.52424" lon="6.14088">
        <ele>325.9</ele>
        <time>2023-01-18T13:57:14.000Z</time>
      </trkpt>
      <trkpt lat="43.52429" lon="6.14088">
        <ele>325.8</ele>
        <time>2023-01-18T13:57:30.000Z</time>
      </trkpt>
      <trkpt lat="43.52425" lon="6.14083">
        <ele>325.2</ele>
        <time>2023-01-18T13:57:38.000Z</time>
      </trkpt>
      <trkpt lat="43.52426" lon="6.14077">
        <ele>324.6</ele>
        <time>2023-01-18T13:57:43.000Z</time>
      </trkpt>
      <trkpt lat="43.52425" lon="6.14069">
        <ele>325.1</ele>
        <time>2023-01-18T13:57:47.000Z</time>
      </trkpt>
      <trkpt lat="43.52425" lon="6.14063">
        <ele>325.9</ele>
        <time>2023-01-18T13:57:50.000Z</time>
      </trkpt>
      <trkpt lat="43.52427" lon="6.14056">
        <ele>327.2</ele>
        <time>2023-01-18T13:57:53.000Z</time>
      </trkpt>
      <trkpt lat="43.52429" lon="6.1405">
        <ele>329.2</ele>
        <time>2023-01-18T13:58:01.000Z</time>
      </trkpt>
      <trkpt lat="43.52433" lon="6.14047">
        <ele>330.2</ele>
        <time>2023-01-18T13:58:07.000Z</time>
      </trkpt>
      <trkpt lat="43.52438" lon="6.14044">
        <ele>331.7</ele>
        <time>2023-01-18T13:58:11.000Z</time>
      </trkpt>
      <trkpt lat="43.52442" lon="6.1404">
        <ele>332.6</ele>
        <time>2023-01-18T13:58:14.000Z</time>
      </trkpt>
      <trkpt lat="43.52446" lon="6.14035">
        <ele>333.5</ele>
        <time>2023-01-18T13:58:19.000Z</time>
      </trkpt>
      <trkpt lat="43.52449" lon="6.1403">
        <ele>334.3</ele>
        <time>2023-01-18T13:58:22.000Z</time>
      </trkpt>
      <trkpt lat="43.52448" lon="6.14022">
        <ele>334.7</ele>
        <time>2023-01-18T13:58:25.000Z</time>
      </trkpt>
      <trkpt lat="43.52451" lon="6.14016">
        <ele>334.4</ele>
        <time>2023-01-18T13:58:28.000Z</time>
      </trkpt>
      <trkpt lat="43.52454" lon="6.14009">
        <ele>334.1</ele>
        <time>2023-01-18T13:58:31.000Z</time>
      </trkpt>
      <trkpt lat="43.52456" lon="6.14004">
        <ele>334</ele>
        <time>2023-01-18T13:58:34.000Z</time>
      </trkpt>
      <trkpt lat="43.52459" lon="6.13997">
        <ele>334</ele>
        <time>2023-01-18T13:58:38.000Z</time>
      </trkpt>
      <trkpt lat="43.5246" lon="6.13991">
        <ele>333.8</ele>
        <time>2023-01-18T13:58:42.000Z</time>
      </trkpt>
      <trkpt lat="43.52461" lon="6.13984">
        <ele>333.3</ele>
        <time>2023-01-18T13:58:47.000Z</time>
      </trkpt>
      <trkpt lat="43.52461" lon="6.13977">
        <ele>333</ele>
        <time>2023-01-18T13:58:53.000Z</time>
      </trkpt>
      <trkpt lat="43.52465" lon="6.13973">
        <ele>333.7</ele>
        <time>2023-01-18T13:58:57.000Z</time>
      </trkpt>
      <trkpt lat="43.5247" lon="6.13967">
        <ele>334</ele>
        <time>2023-01-18T13:59:02.000Z</time>
      </trkpt>
      <trkpt lat="43.52473" lon="6.13961">
        <ele>334</ele>
        <time>2023-01-18T13:59:06.000Z</time>
      </trkpt>
      <trkpt lat="43.52476" lon="6.13955">
        <ele>334.6</ele>
        <time>2023-01-18T13:59:10.000Z</time>
      </trkpt>
      <trkpt lat="43.52478" lon="6.13949">
        <ele>333.9</ele>
        <time>2023-01-18T13:59:14.000Z</time>
      </trkpt>
      <trkpt lat="43.52481" lon="6.13944">
        <ele>335</ele>
        <time>2023-01-18T13:59:17.000Z</time>
      </trkpt>
      <trkpt lat="43.52485" lon="6.13939">
        <ele>335.7</ele>
        <time>2023-01-18T13:59:20.000Z</time>
      </trkpt>
      <trkpt lat="43.52489" lon="6.13932">
        <ele>335.4</ele>
        <time>2023-01-18T13:59:23.000Z</time>
      </trkpt>
      <trkpt lat="43.52491" lon="6.13927">
        <ele>335.6</ele>
        <time>2023-01-18T13:59:25.000Z</time>
      </trkpt>
      <trkpt lat="43.52495" lon="6.13921">
        <ele>336.8</ele>
        <time>2023-01-18T13:59:28.000Z</time>
      </trkpt>
      <trkpt lat="43.52498" lon="6.13917">
        <ele>337.3</ele>
        <time>2023-01-18T13:59:30.000Z</time>
      </trkpt>
      <trkpt lat="43.52502" lon="6.13911">
        <ele>337.8</ele>
        <time>2023-01-18T13:59:33.000Z</time>
      </trkpt>
      <trkpt lat="43.52505" lon="6.13906">
        <ele>337.5</ele>
        <time>2023-01-18T13:59:39.000Z</time>
      </trkpt>
      <trkpt lat="43.52509" lon="6.13901">
        <ele>338.7</ele>
        <time>2023-01-18T13:59:42.000Z</time>
      </trkpt>
      <trkpt lat="43.52513" lon="6.13896">
        <ele>338.9</ele>
        <time>2023-01-18T13:59:45.000Z</time>
      </trkpt>
      <trkpt lat="43.52516" lon="6.13891">
        <ele>339.8</ele>
        <time>2023-01-18T13:59:48.000Z</time>
      </trkpt>
      <trkpt lat="43.52519" lon="6.13884">
        <ele>340.1</ele>
        <time>2023-01-18T13:59:56.000Z</time>
      </trkpt>
      <trkpt lat="43.52523" lon="6.13883">
        <ele>339.6</ele>
        <time>2023-01-18T13:59:58.000Z</time>
      </trkpt>
      <trkpt lat="43.52528" lon="6.13881">
        <ele>340.8</ele>
        <time>2023-01-18T14:00:00.000Z</time>
      </trkpt>
      <trkpt lat="43.52531" lon="6.13876">
        <ele>340.6</ele>
        <time>2023-01-18T14:00:05.000Z</time>
      </trkpt>
      <trkpt lat="43.52534" lon="6.1387">
        <ele>341.2</ele>
        <time>2023-01-18T14:00:10.000Z</time>
      </trkpt>
      <trkpt lat="43.52534" lon="6.13863">
        <ele>342.1</ele>
        <time>2023-01-18T14:00:17.000Z</time>
      </trkpt>
      <trkpt lat="43.52538" lon="6.13858">
        <ele>341.9</ele>
        <time>2023-01-18T14:00:20.000Z</time>
      </trkpt>
      <trkpt lat="43.52541" lon="6.13852">
        <ele>343.9</ele>
        <time>2023-01-18T14:00:25.000Z</time>
      </trkpt>
      <trkpt lat="43.52543" lon="6.13845">
        <ele>345.6</ele>
        <time>2023-01-18T14:00:31.000Z</time>
      </trkpt>
      <trkpt lat="43.52543" lon="6.13838">
        <ele>346.6</ele>
        <time>2023-01-18T14:00:36.000Z</time>
      </trkpt>
      <trkpt lat="43.52544" lon="6.13832">
        <ele>347.1</ele>
        <time>2023-01-18T14:00:47.000Z</time>
      </trkpt>
      <trkpt lat="43.52548" lon="6.13828">
        <ele>347.2</ele>
        <time>2023-01-18T14:00:51.000Z</time>
      </trkpt>
      <trkpt lat="43.5255" lon="6.13821">
        <ele>346.8</ele>
        <time>2023-01-18T14:00:58.000Z</time>
      </trkpt>
      <trkpt lat="43.5255" lon="6.13814">
        <ele>347.9</ele>
        <time>2023-01-18T14:01:04.000Z</time>
      </trkpt>
      <trkpt lat="43.52554" lon="6.13808">
        <ele>349.2</ele>
        <time>2023-01-18T14:01:09.000Z</time>
      </trkpt>
      <trkpt lat="43.52556" lon="6.13803">
        <ele>350.1</ele>
        <time>2023-01-18T14:01:14.000Z</time>
      </trkpt>
      <trkpt lat="43.52557" lon="6.13795">
        <ele>350.5</ele>
        <time>2023-01-18T14:01:20.000Z</time>
      </trkpt>
      <trkpt lat="43.52558" lon="6.13789">
        <ele>350.4</ele>
        <time>2023-01-18T14:01:25.000Z</time>
      </trkpt>
      <trkpt lat="43.52559" lon="6.13782">
        <ele>350.3</ele>
        <time>2023-01-18T14:01:31.000Z</time>
      </trkpt>
      <trkpt lat="43.5256" lon="6.13776">
        <ele>351.9</ele>
        <time>2023-01-18T14:01:36.000Z</time>
      </trkpt>
      <trkpt lat="43.52561" lon="6.13769">
        <ele>352.7</ele>
        <time>2023-01-18T14:01:40.000Z</time>
      </trkpt>
      <trkpt lat="43.52563" lon="6.13763">
        <ele>353.7</ele>
        <time>2023-01-18T14:01:46.000Z</time>
      </trkpt>
      <trkpt lat="43.52562" lon="6.13757">
        <ele>352.9</ele>
        <time>2023-01-18T14:01:53.000Z</time>
      </trkpt>
      <trkpt lat="43.52564" lon="6.1375">
        <ele>354.4</ele>
        <time>2023-01-18T14:01:59.000Z</time>
      </trkpt>
      <trkpt lat="43.52564" lon="6.13743">
        <ele>355.1</ele>
        <time>2023-01-18T14:02:04.000Z</time>
      </trkpt>
      <trkpt lat="43.52565" lon="6.13737">
        <ele>354.8</ele>
        <time>2023-01-18T14:02:09.000Z</time>
      </trkpt>
      <trkpt lat="43.52568" lon="6.13729">
        <ele>356.1</ele>
        <time>2023-01-18T14:02:16.000Z</time>
      </trkpt>
      <trkpt lat="43.52571" lon="6.13723">
        <ele>357.6</ele>
        <time>2023-01-18T14:02:22.000Z</time>
      </trkpt>
      <trkpt lat="43.52572" lon="6.13716">
        <ele>358</ele>
        <time>2023-01-18T14:02:28.000Z</time>
      </trkpt>
      <trkpt lat="43.52573" lon="6.1371">
        <ele>358.9</ele>
        <time>2023-01-18T14:02:34.000Z</time>
      </trkpt>
      <trkpt lat="43.52574" lon="6.13703">
        <ele>360.3</ele>
        <time>2023-01-18T14:02:39.000Z</time>
      </trkpt>
      <trkpt lat="43.52577" lon="6.13697">
        <ele>360.3</ele>
        <time>2023-01-18T14:02:45.000Z</time>
      </trkpt>
      <trkpt lat="43.5258" lon="6.13692">
        <ele>360.8</ele>
        <time>2023-01-18T14:02:48.000Z</time>
      </trkpt>
      <trkpt lat="43.52584" lon="6.13686">
        <ele>363.2</ele>
        <time>2023-01-18T14:02:55.000Z</time>
      </trkpt>
      <trkpt lat="43.52588" lon="6.13681">
        <ele>364.6</ele>
        <time>2023-01-18T14:03:03.000Z</time>
      </trkpt>
      <trkpt lat="43.52592" lon="6.13677">
        <ele>364.7</ele>
        <time>2023-01-18T14:03:09.000Z</time>
      </trkpt>
      <trkpt lat="43.52596" lon="6.13674">
        <ele>367.2</ele>
        <time>2023-01-18T14:03:14.000Z</time>
      </trkpt>
      <trkpt lat="43.52598" lon="6.13668">
        <ele>367.2</ele>
        <time>2023-01-18T14:03:20.000Z</time>
      </trkpt>
      <trkpt lat="43.52601" lon="6.13664">
        <ele>367.4</ele>
        <time>2023-01-18T14:03:25.000Z</time>
      </trkpt>
      <trkpt lat="43.52604" lon="6.13658">
        <ele>368.7</ele>
        <time>2023-01-18T14:03:30.000Z</time>
      </trkpt>
      <trkpt lat="43.52609" lon="6.13652">
        <ele>369.8</ele>
        <time>2023-01-18T14:03:35.000Z</time>
      </trkpt>
      <trkpt lat="43.52612" lon="6.13647">
        <ele>369.6</ele>
        <time>2023-01-18T14:03:41.000Z</time>
      </trkpt>
      <trkpt lat="43.52615" lon="6.13641">
        <ele>370.2</ele>
        <time>2023-01-18T14:03:56.000Z</time>
      </trkpt>
      <trkpt lat="43.52619" lon="6.13638">
        <ele>369.7</ele>
        <time>2023-01-18T14:04:03.000Z</time>
      </trkpt>
      <trkpt lat="43.52622" lon="6.13633">
        <ele>369.4</ele>
        <time>2023-01-18T14:04:07.000Z</time>
      </trkpt>
      <trkpt lat="43.52626" lon="6.13629">
        <ele>369.2</ele>
        <time>2023-01-18T14:04:11.000Z</time>
      </trkpt>
      <trkpt lat="43.52631" lon="6.13625">
        <ele>368.9</ele>
        <time>2023-01-18T14:04:16.000Z</time>
      </trkpt>
      <trkpt lat="43.52634" lon="6.1362">
        <ele>368.3</ele>
        <time>2023-01-18T14:04:23.000Z</time>
      </trkpt>
      <trkpt lat="43.52637" lon="6.13616">
        <ele>367.3</ele>
        <time>2023-01-18T14:04:28.000Z</time>
      </trkpt>
      <trkpt lat="43.5264" lon="6.13611">
        <ele>366.5</ele>
        <time>2023-01-18T14:04:35.000Z</time>
      </trkpt>
      <trkpt lat="43.52645" lon="6.13606">
        <ele>366.3</ele>
        <time>2023-01-18T14:04:40.000Z</time>
      </trkpt>
      <trkpt lat="43.5265" lon="6.13603">
        <ele>366.8</ele>
        <time>2023-01-18T14:04:44.000Z</time>
      </trkpt>
      <trkpt lat="43.52654" lon="6.13598">
        <ele>366.4</ele>
        <time>2023-01-18T14:04:50.000Z</time>
      </trkpt>
      <trkpt lat="43.52659" lon="6.13597">
        <ele>366.7</ele>
        <time>2023-01-18T14:04:53.000Z</time>
      </trkpt>
      <trkpt lat="43.52664" lon="6.13596">
        <ele>366.9</ele>
        <time>2023-01-18T14:04:58.000Z</time>
      </trkpt>
      <trkpt lat="43.52668" lon="6.13591">
        <ele>367</ele>
        <time>2023-01-18T14:05:03.000Z</time>
      </trkpt>
      <trkpt lat="43.52672" lon="6.13587">
        <ele>366.9</ele>
        <time>2023-01-18T14:05:08.000Z</time>
      </trkpt>
      <trkpt lat="43.52676" lon="6.13582">
        <ele>366.8</ele>
        <time>2023-01-18T14:05:13.000Z</time>
      </trkpt>
      <trkpt lat="43.52678" lon="6.13576">
        <ele>366.9</ele>
        <time>2023-01-18T14:05:19.000Z</time>
      </trkpt>
      <trkpt lat="43.5268" lon="6.13571">
        <ele>367.2</ele>
        <time>2023-01-18T14:05:23.000Z</time>
      </trkpt>
      <trkpt lat="43.52683" lon="6.13565">
        <ele>366.7</ele>
        <time>2023-01-18T14:05:28.000Z</time>
      </trkpt>
      <trkpt lat="43.52686" lon="6.13559">
        <ele>366.4</ele>
        <time>2023-01-18T14:05:33.000Z</time>
      </trkpt>
      <trkpt lat="43.52689" lon="6.13555">
        <ele>366.3</ele>
        <time>2023-01-18T14:05:37.000Z</time>
      </trkpt>
      <trkpt lat="43.52692" lon="6.1355">
        <ele>366.5</ele>
        <time>2023-01-18T14:05:43.000Z</time>
      </trkpt>
      <trkpt lat="43.52697" lon="6.13546">
        <ele>367.5</ele>
        <time>2023-01-18T14:05:46.000Z</time>
      </trkpt>
      <trkpt lat="43.527" lon="6.13541">
        <ele>368.7</ele>
        <time>2023-01-18T14:05:53.000Z</time>
      </trkpt>
      <trkpt lat="43.52705" lon="6.13538">
        <ele>368.7</ele>
        <time>2023-01-18T14:05:58.000Z</time>
      </trkpt>
      <trkpt lat="43.52709" lon="6.13534">
        <ele>370</ele>
        <time>2023-01-18T14:06:03.000Z</time>
      </trkpt>
      <trkpt lat="43.52714" lon="6.13532">
        <ele>371.2</ele>
        <time>2023-01-18T14:06:08.000Z</time>
      </trkpt>
      <trkpt lat="43.52715" lon="6.13525">
        <ele>371.6</ele>
        <time>2023-01-18T14:06:13.000Z</time>
      </trkpt>
      <trkpt lat="43.52717" lon="6.1352">
        <ele>371.5</ele>
        <time>2023-01-18T14:06:18.000Z</time>
      </trkpt>
      <trkpt lat="43.5272" lon="6.13513">
        <ele>371.1</ele>
        <time>2023-01-18T14:06:24.000Z</time>
      </trkpt>
      <trkpt lat="43.52721" lon="6.13507">
        <ele>371.2</ele>
        <time>2023-01-18T14:06:28.000Z</time>
      </trkpt>
      <trkpt lat="43.52722" lon="6.135">
        <ele>370</ele>
        <time>2023-01-18T14:06:33.000Z</time>
      </trkpt>
      <trkpt lat="43.52724" lon="6.13494">
        <ele>371.5</ele>
        <time>2023-01-18T14:06:37.000Z</time>
      </trkpt>
      <trkpt lat="43.52726" lon="6.13488">
        <ele>372</ele>
        <time>2023-01-18T14:06:41.000Z</time>
      </trkpt>
      <trkpt lat="43.52727" lon="6.13481">
        <ele>372.9</ele>
        <time>2023-01-18T14:06:46.000Z</time>
      </trkpt>
      <trkpt lat="43.52728" lon="6.13474">
        <ele>373.2</ele>
        <time>2023-01-18T14:06:50.000Z</time>
      </trkpt>
      <trkpt lat="43.52729" lon="6.13466">
        <ele>373.4</ele>
        <time>2023-01-18T14:06:56.000Z</time>
      </trkpt>
      <trkpt lat="43.52729" lon="6.1346">
        <ele>373.9</ele>
        <time>2023-01-18T14:06:59.000Z</time>
      </trkpt>
      <trkpt lat="43.52732" lon="6.13454">
        <ele>373.9</ele>
        <time>2023-01-18T14:07:04.000Z</time>
      </trkpt>
      <trkpt lat="43.52732" lon="6.13447">
        <ele>374.8</ele>
        <time>2023-01-18T14:07:08.000Z</time>
      </trkpt>
      <trkpt lat="43.52735" lon="6.1344">
        <ele>375</ele>
        <time>2023-01-18T14:07:14.000Z</time>
      </trkpt>
      <trkpt lat="43.52737" lon="6.13434">
        <ele>375</ele>
        <time>2023-01-18T14:07:19.000Z</time>
      </trkpt>
      <trkpt lat="43.5274" lon="6.13426">
        <ele>375.6</ele>
        <time>2023-01-18T14:07:25.000Z</time>
      </trkpt>
      <trkpt lat="43.52742" lon="6.1342">
        <ele>376</ele>
        <time>2023-01-18T14:07:30.000Z</time>
      </trkpt>
      <trkpt lat="43.52746" lon="6.13415">
        <ele>376.2</ele>
        <time>2023-01-18T14:07:33.000Z</time>
      </trkpt>
      <trkpt lat="43.52749" lon="6.13409">
        <ele>376.7</ele>
        <time>2023-01-18T14:07:38.000Z</time>
      </trkpt>
      <trkpt lat="43.52749" lon="6.13403">
        <ele>377.1</ele>
        <time>2023-01-18T14:07:44.000Z</time>
      </trkpt>
      <trkpt lat="43.52753" lon="6.13398">
        <ele>377.6</ele>
        <time>2023-01-18T14:07:47.000Z</time>
      </trkpt>
      <trkpt lat="43.52756" lon="6.13394">
        <ele>377.9</ele>
        <time>2023-01-18T14:07:52.000Z</time>
      </trkpt>
      <trkpt lat="43.52756" lon="6.13387">
        <ele>378.4</ele>
        <time>2023-01-18T14:07:59.000Z</time>
      </trkpt>
      <trkpt lat="43.52761" lon="6.13389">
        <ele>379.1</ele>
        <time>2023-01-18T14:08:31.000Z</time>
      </trkpt>
      <trkpt lat="43.52765" lon="6.13386">
        <ele>378.5</ele>
        <time>2023-01-18T14:08:38.000Z</time>
      </trkpt>
      <trkpt lat="43.52769" lon="6.13384">
        <ele>379.1</ele>
        <time>2023-01-18T14:08:41.000Z</time>
      </trkpt>
      <trkpt lat="43.52773" lon="6.13381">
        <ele>379.4</ele>
        <time>2023-01-18T14:08:47.000Z</time>
      </trkpt>
      <trkpt lat="43.52778" lon="6.13378">
        <ele>379.3</ele>
        <time>2023-01-18T14:08:51.000Z</time>
      </trkpt>
      <trkpt lat="43.52783" lon="6.13376">
        <ele>379.2</ele>
        <time>2023-01-18T14:08:54.000Z</time>
      </trkpt>
      <trkpt lat="43.52788" lon="6.13374">
        <ele>379.1</ele>
        <time>2023-01-18T14:08:58.000Z</time>
      </trkpt>
      <trkpt lat="43.52793" lon="6.13373">
        <ele>379.1</ele>
        <time>2023-01-18T14:09:02.000Z</time>
      </trkpt>
      <trkpt lat="43.52798" lon="6.1337">
        <ele>378.9</ele>
        <time>2023-01-18T14:09:06.000Z</time>
      </trkpt>
      <trkpt lat="43.52802" lon="6.13366">
        <ele>378</ele>
        <time>2023-01-18T14:09:13.000Z</time>
      </trkpt>
      <trkpt lat="43.52807" lon="6.13364">
        <ele>378.1</ele>
        <time>2023-01-18T14:09:17.000Z</time>
      </trkpt>
      <trkpt lat="43.52812" lon="6.13362">
        <ele>378.2</ele>
        <time>2023-01-18T14:09:21.000Z</time>
      </trkpt>
      <trkpt lat="43.52817" lon="6.13359">
        <ele>378</ele>
        <time>2023-01-18T14:09:25.000Z</time>
      </trkpt>
      <trkpt lat="43.52821" lon="6.13356">
        <ele>378.1</ele>
        <time>2023-01-18T14:09:28.000Z</time>
      </trkpt>
      <trkpt lat="43.52826" lon="6.13353">
        <ele>377.6</ele>
        <time>2023-01-18T14:09:35.000Z</time>
      </trkpt>
      <trkpt lat="43.5283" lon="6.13351">
        <ele>377.6</ele>
        <time>2023-01-18T14:09:39.000Z</time>
      </trkpt>
      <trkpt lat="43.52837" lon="6.13348">
        <ele>377.4</ele>
        <time>2023-01-18T14:09:43.000Z</time>
      </trkpt>
      <trkpt lat="43.52843" lon="6.13347">
        <ele>377.6</ele>
        <time>2023-01-18T14:09:47.000Z</time>
      </trkpt>
      <trkpt lat="43.52847" lon="6.13344">
        <ele>377.3</ele>
        <time>2023-01-18T14:09:51.000Z</time>
      </trkpt>
      <trkpt lat="43.52851" lon="6.13343">
        <ele>376.6</ele>
        <time>2023-01-18T14:09:56.000Z</time>
      </trkpt>
      <trkpt lat="43.52856" lon="6.13342">
        <ele>376.1</ele>
        <time>2023-01-18T14:10:05.000Z</time>
      </trkpt>
      <trkpt lat="43.5286" lon="6.13344">
        <ele>376</ele>
        <time>2023-01-18T14:10:20.000Z</time>
      </trkpt>
      <trkpt lat="43.52862" lon="6.13338">
        <ele>376.2</ele>
        <time>2023-01-18T14:10:28.000Z</time>
      </trkpt>
      <trkpt lat="43.52864" lon="6.13331">
        <ele>376</ele>
        <time>2023-01-18T14:10:34.000Z</time>
      </trkpt>
      <trkpt lat="43.52868" lon="6.13326">
        <ele>375.6</ele>
        <time>2023-01-18T14:10:38.000Z</time>
      </trkpt>
      <trkpt lat="43.52874" lon="6.13324">
        <ele>375.5</ele>
        <time>2023-01-18T14:10:42.000Z</time>
      </trkpt>
      <trkpt lat="43.52879" lon="6.13323">
        <ele>374.8</ele>
        <time>2023-01-18T14:10:47.000Z</time>
      </trkpt>
      <trkpt lat="43.52884" lon="6.13321">
        <ele>373.8</ele>
        <time>2023-01-18T14:10:52.000Z</time>
      </trkpt>
      <trkpt lat="43.52888" lon="6.13318">
        <ele>373.9</ele>
        <time>2023-01-18T14:10:57.000Z</time>
      </trkpt>
      <trkpt lat="43.52892" lon="6.13313">
        <ele>373.8</ele>
        <time>2023-01-18T14:11:01.000Z</time>
      </trkpt>
      <trkpt lat="43.52896" lon="6.1331">
        <ele>373.7</ele>
        <time>2023-01-18T14:11:05.000Z</time>
      </trkpt>
      <trkpt lat="43.529" lon="6.13307">
        <ele>373.2</ele>
        <time>2023-01-18T14:11:12.000Z</time>
      </trkpt>
      <trkpt lat="43.52905" lon="6.13304">
        <ele>373.3</ele>
        <time>2023-01-18T14:11:16.000Z</time>
      </trkpt>
      <trkpt lat="43.52909" lon="6.133">
        <ele>373.3</ele>
        <time>2023-01-18T14:11:19.000Z</time>
      </trkpt>
      <trkpt lat="43.52915" lon="6.13298">
        <ele>373.3</ele>
        <time>2023-01-18T14:11:23.000Z</time>
      </trkpt>
      <trkpt lat="43.52919" lon="6.13295">
        <ele>373.3</ele>
        <time>2023-01-18T14:11:28.000Z</time>
      </trkpt>
      <trkpt lat="43.52925" lon="6.13292">
        <ele>373.4</ele>
        <time>2023-01-18T14:11:31.000Z</time>
      </trkpt>
      <trkpt lat="43.52929" lon="6.13289">
        <ele>373.4</ele>
        <time>2023-01-18T14:11:34.000Z</time>
      </trkpt>
      <trkpt lat="43.52933" lon="6.13286">
        <ele>373.4</ele>
        <time>2023-01-18T14:11:39.000Z</time>
      </trkpt>
      <trkpt lat="43.52938" lon="6.13283">
        <ele>373.3</ele>
        <time>2023-01-18T14:11:45.000Z</time>
      </trkpt>
      <trkpt lat="43.52942" lon="6.13281">
        <ele>373</ele>
        <time>2023-01-18T14:11:48.000Z</time>
      </trkpt>
      <trkpt lat="43.52947" lon="6.13279">
        <ele>373</ele>
        <time>2023-01-18T14:11:53.000Z</time>
      </trkpt>
      <trkpt lat="43.52952" lon="6.13276">
        <ele>373</ele>
        <time>2023-01-18T14:11:57.000Z</time>
      </trkpt>
      <trkpt lat="43.52955" lon="6.13272">
        <ele>372.7</ele>
        <time>2023-01-18T14:12:00.000Z</time>
      </trkpt>
      <trkpt lat="43.5296" lon="6.13272">
        <ele>372.7</ele>
        <time>2023-01-18T14:12:03.000Z</time>
      </trkpt>
      <trkpt lat="43.52965" lon="6.1327">
        <ele>372.4</ele>
        <time>2023-01-18T14:12:08.000Z</time>
      </trkpt>
      <trkpt lat="43.5297" lon="6.13267">
        <ele>372.5</ele>
        <time>2023-01-18T14:12:12.000Z</time>
      </trkpt>
      <trkpt lat="43.52975" lon="6.13265">
        <ele>372.5</ele>
        <time>2023-01-18T14:12:16.000Z</time>
      </trkpt>
      <trkpt lat="43.52979" lon="6.1326">
        <ele>372</ele>
        <time>2023-01-18T14:12:22.000Z</time>
      </trkpt>
      <trkpt lat="43.52983" lon="6.13258">
        <ele>372.1</ele>
        <time>2023-01-18T14:12:26.000Z</time>
      </trkpt>
      <trkpt lat="43.52988" lon="6.13254">
        <ele>372.2</ele>
        <time>2023-01-18T14:12:32.000Z</time>
      </trkpt>
      <trkpt lat="43.52993" lon="6.13252">
        <ele>372.7</ele>
        <time>2023-01-18T14:12:36.000Z</time>
      </trkpt>
      <trkpt lat="43.52997" lon="6.13248">
        <ele>372.8</ele>
        <time>2023-01-18T14:12:41.000Z</time>
      </trkpt>
      <trkpt lat="43.53001" lon="6.13244">
        <ele>373.4</ele>
        <time>2023-01-18T14:12:47.000Z</time>
      </trkpt>
      <trkpt lat="43.53006" lon="6.13241">
        <ele>373.5</ele>
        <time>2023-01-18T14:12:52.000Z</time>
      </trkpt>
      <trkpt lat="43.5301" lon="6.13239">
        <ele>373.5</ele>
        <time>2023-01-18T14:12:56.000Z</time>
      </trkpt>
      <trkpt lat="43.53015" lon="6.13237">
        <ele>373.4</ele>
        <time>2023-01-18T14:13:00.000Z</time>
      </trkpt>
      <trkpt lat="43.53019" lon="6.13235">
        <ele>373.2</ele>
        <time>2023-01-18T14:13:04.000Z</time>
      </trkpt>
      <trkpt lat="43.53022" lon="6.1323">
        <ele>372.9</ele>
        <time>2023-01-18T14:13:08.000Z</time>
      </trkpt>
      <trkpt lat="43.53025" lon="6.13224">
        <ele>373</ele>
        <time>2023-01-18T14:13:12.000Z</time>
      </trkpt>
      <trkpt lat="43.5303" lon="6.1322">
        <ele>372.8</ele>
        <time>2023-01-18T14:13:17.000Z</time>
      </trkpt>
      <trkpt lat="43.53034" lon="6.13215">
        <ele>373.1</ele>
        <time>2023-01-18T14:13:21.000Z</time>
      </trkpt>
      <trkpt lat="43.53037" lon="6.13211">
        <ele>373.2</ele>
        <time>2023-01-18T14:13:26.000Z</time>
      </trkpt>
      <trkpt lat="43.5304" lon="6.13206">
        <ele>373.4</ele>
        <time>2023-01-18T14:13:29.000Z</time>
      </trkpt>
      <trkpt lat="43.53044" lon="6.13199">
        <ele>373.3</ele>
        <time>2023-01-18T14:13:35.000Z</time>
      </trkpt>
      <trkpt lat="43.53047" lon="6.13193">
        <ele>373.5</ele>
        <time>2023-01-18T14:13:38.000Z</time>
      </trkpt>
      <trkpt lat="43.53049" lon="6.13187">
        <ele>373</ele>
        <time>2023-01-18T14:13:43.000Z</time>
      </trkpt>
      <trkpt lat="43.53052" lon="6.13181">
        <ele>373.6</ele>
        <time>2023-01-18T14:13:46.000Z</time>
      </trkpt>
      <trkpt lat="43.53054" lon="6.13175">
        <ele>374</ele>
        <time>2023-01-18T14:13:51.000Z</time>
      </trkpt>
      <trkpt lat="43.53057" lon="6.1317">
        <ele>374</ele>
        <time>2023-01-18T14:13:54.000Z</time>
      </trkpt>
      <trkpt lat="43.53061" lon="6.13166">
        <ele>374</ele>
        <time>2023-01-18T14:13:58.000Z</time>
      </trkpt>
      <trkpt lat="43.53062" lon="6.1316">
        <ele>374.1</ele>
        <time>2023-01-18T14:14:02.000Z</time>
      </trkpt>
      <trkpt lat="43.53063" lon="6.13153">
        <ele>374.4</ele>
        <time>2023-01-18T14:14:07.000Z</time>
      </trkpt>
      <trkpt lat="43.53067" lon="6.13147">
        <ele>374.6</ele>
        <time>2023-01-18T14:14:11.000Z</time>
      </trkpt>
      <trkpt lat="43.53068" lon="6.13141">
        <ele>374.6</ele>
        <time>2023-01-18T14:14:16.000Z</time>
      </trkpt>
      <trkpt lat="43.5307" lon="6.13133">
        <ele>374.8</ele>
        <time>2023-01-18T14:14:21.000Z</time>
      </trkpt>
      <trkpt lat="43.53075" lon="6.13128">
        <ele>375</ele>
        <time>2023-01-18T14:14:25.000Z</time>
      </trkpt>
      <trkpt lat="43.53078" lon="6.13122">
        <ele>375.1</ele>
        <time>2023-01-18T14:14:30.000Z</time>
      </trkpt>
      <trkpt lat="43.53082" lon="6.13118">
        <ele>375.1</ele>
        <time>2023-01-18T14:14:34.000Z</time>
      </trkpt>
      <trkpt lat="43.53086" lon="6.13112">
        <ele>374.6</ele>
        <time>2023-01-18T14:14:41.000Z</time>
      </trkpt>
      <trkpt lat="43.53089" lon="6.13106">
        <ele>374.6</ele>
        <time>2023-01-18T14:14:45.000Z</time>
      </trkpt>
      <trkpt lat="43.53093" lon="6.13101">
        <ele>374.4</ele>
        <time>2023-01-18T14:14:51.000Z</time>
      </trkpt>
      <trkpt lat="43.53097" lon="6.13096">
        <ele>374.2</ele>
        <time>2023-01-18T14:14:55.000Z</time>
      </trkpt>
      <trkpt lat="43.531" lon="6.1309">
        <ele>374.1</ele>
        <time>2023-01-18T14:14:58.000Z</time>
      </trkpt>
      <trkpt lat="43.53103" lon="6.13085">
        <ele>374.5</ele>
        <time>2023-01-18T14:15:04.000Z</time>
      </trkpt>
      <trkpt lat="43.53106" lon="6.1308">
        <ele>374.4</ele>
        <time>2023-01-18T14:15:08.000Z</time>
      </trkpt>
      <trkpt lat="43.53109" lon="6.13075">
        <ele>374.4</ele>
        <time>2023-01-18T14:15:11.000Z</time>
      </trkpt>
      <trkpt lat="43.53112" lon="6.13071">
        <ele>374.2</ele>
        <time>2023-01-18T14:15:16.000Z</time>
      </trkpt>
      <trkpt lat="43.53115" lon="6.13065">
        <ele>374.3</ele>
        <time>2023-01-18T14:15:20.000Z</time>
      </trkpt>
      <trkpt lat="43.53118" lon="6.1306">
        <ele>373.9</ele>
        <time>2023-01-18T14:15:23.000Z</time>
      </trkpt>
      <trkpt lat="43.53121" lon="6.13054">
        <ele>373.5</ele>
        <time>2023-01-18T14:15:29.000Z</time>
      </trkpt>
      <trkpt lat="43.53125" lon="6.1305">
        <ele>373.2</ele>
        <time>2023-01-18T14:15:34.000Z</time>
      </trkpt>
      <trkpt lat="43.5313" lon="6.13046">
        <ele>372.9</ele>
        <time>2023-01-18T14:15:37.000Z</time>
      </trkpt>
      <trkpt lat="43.53134" lon="6.13043">
        <ele>372.8</ele>
        <time>2023-01-18T14:15:42.000Z</time>
      </trkpt>
      <trkpt lat="43.53139" lon="6.1304">
        <ele>372.3</ele>
        <time>2023-01-18T14:15:47.000Z</time>
      </trkpt>
      <trkpt lat="43.53144" lon="6.13036">
        <ele>372</ele>
        <time>2023-01-18T14:15:50.000Z</time>
      </trkpt>
      <trkpt lat="43.53147" lon="6.13032">
        <ele>371.5</ele>
        <time>2023-01-18T14:15:54.000Z</time>
      </trkpt>
      <trkpt lat="43.53151" lon="6.13029">
        <ele>370.9</ele>
        <time>2023-01-18T14:16:00.000Z</time>
      </trkpt>
      <trkpt lat="43.53157" lon="6.13024">
        <ele>371</ele>
        <time>2023-01-18T14:16:04.000Z</time>
      </trkpt>
      <trkpt lat="43.53161" lon="6.13021">
        <ele>370.8</ele>
        <time>2023-01-18T14:16:08.000Z</time>
      </trkpt>
      <trkpt lat="43.53166" lon="6.13018">
        <ele>370.7</ele>
        <time>2023-01-18T14:16:14.000Z</time>
      </trkpt>
      <trkpt lat="43.5317" lon="6.13014">
        <ele>370.7</ele>
        <time>2023-01-18T14:16:18.000Z</time>
      </trkpt>
      <trkpt lat="43.53175" lon="6.1301">
        <ele>370.5</ele>
        <time>2023-01-18T14:16:24.000Z</time>
      </trkpt>
      <trkpt lat="43.53179" lon="6.13005">
        <ele>370.5</ele>
        <time>2023-01-18T14:16:28.000Z</time>
      </trkpt>
      <trkpt lat="43.53183" lon="6.13002">
        <ele>370.4</ele>
        <time>2023-01-18T14:16:32.000Z</time>
      </trkpt>
      <trkpt lat="43.53187" lon="6.12998">
        <ele>370.3</ele>
        <time>2023-01-18T14:16:37.000Z</time>
      </trkpt>
      <trkpt lat="43.53191" lon="6.12995">
        <ele>370.3</ele>
        <time>2023-01-18T14:16:40.000Z</time>
      </trkpt>
      <trkpt lat="43.53196" lon="6.12993">
        <ele>370.5</ele>
        <time>2023-01-18T14:16:43.000Z</time>
      </trkpt>
      <trkpt lat="43.53201" lon="6.1299">
        <ele>370.2</ele>
        <time>2023-01-18T14:16:49.000Z</time>
      </trkpt>
      <trkpt lat="43.53205" lon="6.12987">
        <ele>370.2</ele>
        <time>2023-01-18T14:16:52.000Z</time>
      </trkpt>
      <trkpt lat="43.5321" lon="6.12984">
        <ele>370.4</ele>
        <time>2023-01-18T14:16:56.000Z</time>
      </trkpt>
      <trkpt lat="43.53215" lon="6.1298">
        <ele>370.3</ele>
        <time>2023-01-18T14:17:02.000Z</time>
      </trkpt>
      <trkpt lat="43.53219" lon="6.12975">
        <ele>370.3</ele>
        <time>2023-01-18T14:17:06.000Z</time>
      </trkpt>
      <trkpt lat="43.53223" lon="6.1297">
        <ele>370</ele>
        <time>2023-01-18T14:17:11.000Z</time>
      </trkpt>
      <trkpt lat="43.53227" lon="6.12964">
        <ele>370.2</ele>
        <time>2023-01-18T14:17:15.000Z</time>
      </trkpt>
      <trkpt lat="43.5323" lon="6.12959">
        <ele>370.1</ele>
        <time>2023-01-18T14:17:18.000Z</time>
      </trkpt>
      <trkpt lat="43.53232" lon="6.12953">
        <ele>370.1</ele>
        <time>2023-01-18T14:17:21.000Z</time>
      </trkpt>
      <trkpt lat="43.53234" lon="6.12946">
        <ele>369.6</ele>
        <time>2023-01-18T14:17:27.000Z</time>
      </trkpt>
      <trkpt lat="43.53237" lon="6.1294">
        <ele>369.9</ele>
        <time>2023-01-18T14:17:30.000Z</time>
      </trkpt>
      <trkpt lat="43.53241" lon="6.12936">
        <ele>370.2</ele>
        <time>2023-01-18T14:17:33.000Z</time>
      </trkpt>
      <trkpt lat="43.53245" lon="6.1293">
        <ele>370.2</ele>
        <time>2023-01-18T14:17:39.000Z</time>
      </trkpt>
      <trkpt lat="43.53249" lon="6.12926">
        <ele>370.1</ele>
        <time>2023-01-18T14:17:42.000Z</time>
      </trkpt>
      <trkpt lat="43.53252" lon="6.12919">
        <ele>370</ele>
        <time>2023-01-18T14:17:46.000Z</time>
      </trkpt>
      <trkpt lat="43.53255" lon="6.12914">
        <ele>369.7</ele>
        <time>2023-01-18T14:17:52.000Z</time>
      </trkpt>
      <trkpt lat="43.53259" lon="6.1291">
        <ele>369.9</ele>
        <time>2023-01-18T14:17:55.000Z</time>
      </trkpt>
      <trkpt lat="43.53264" lon="6.12908">
        <ele>370</ele>
        <time>2023-01-18T14:17:58.000Z</time>
      </trkpt>
      <trkpt lat="43.53269" lon="6.12906">
        <ele>370.3</ele>
        <time>2023-01-18T14:18:01.000Z</time>
      </trkpt>
      <trkpt lat="43.53273" lon="6.12901">
        <ele>370.3</ele>
        <time>2023-01-18T14:18:08.000Z</time>
      </trkpt>
      <trkpt lat="43.53278" lon="6.12897">
        <ele>370.3</ele>
        <time>2023-01-18T14:18:11.000Z</time>
      </trkpt>
      <trkpt lat="43.53281" lon="6.12892">
        <ele>370.2</ele>
        <time>2023-01-18T14:18:14.000Z</time>
      </trkpt>
      <trkpt lat="43.53285" lon="6.12887">
        <ele>369.4</ele>
        <time>2023-01-18T14:18:20.000Z</time>
      </trkpt>
      <trkpt lat="43.53289" lon="6.12882">
        <ele>369.9</ele>
        <time>2023-01-18T14:18:24.000Z</time>
      </trkpt>
      <trkpt lat="43.53291" lon="6.12876">
        <ele>369.7</ele>
        <time>2023-01-18T14:18:31.000Z</time>
      </trkpt>
      <trkpt lat="43.53295" lon="6.12871">
        <ele>369.9</ele>
        <time>2023-01-18T14:18:35.000Z</time>
      </trkpt>
      <trkpt lat="43.533" lon="6.12867">
        <ele>370</ele>
        <time>2023-01-18T14:18:38.000Z</time>
      </trkpt>
      <trkpt lat="43.53303" lon="6.12863">
        <ele>370</ele>
        <time>2023-01-18T14:18:43.000Z</time>
      </trkpt>
      <trkpt lat="43.53307" lon="6.12857">
        <ele>369.9</ele>
        <time>2023-01-18T14:18:47.000Z</time>
      </trkpt>
      <trkpt lat="43.53312" lon="6.12852">
        <ele>370</ele>
        <time>2023-01-18T14:18:50.000Z</time>
      </trkpt>
      <trkpt lat="43.53315" lon="6.12848">
        <ele>370.2</ele>
        <time>2023-01-18T14:18:57.000Z</time>
      </trkpt>
      <trkpt lat="43.53319" lon="6.12844">
        <ele>370.6</ele>
        <time>2023-01-18T14:19:00.000Z</time>
      </trkpt>
      <trkpt lat="43.53323" lon="6.1284">
        <ele>370.9</ele>
        <time>2023-01-18T14:19:04.000Z</time>
      </trkpt>
      <trkpt lat="43.53327" lon="6.12835">
        <ele>371</ele>
        <time>2023-01-18T14:19:10.000Z</time>
      </trkpt>
      <trkpt lat="43.53332" lon="6.12831">
        <ele>371.1</ele>
        <time>2023-01-18T14:19:14.000Z</time>
      </trkpt>
      <trkpt lat="43.53336" lon="6.12827">
        <ele>371.2</ele>
        <time>2023-01-18T14:19:18.000Z</time>
      </trkpt>
      <trkpt lat="43.53341" lon="6.12823">
        <ele>371.1</ele>
        <time>2023-01-18T14:19:22.000Z</time>
      </trkpt>
      <trkpt lat="43.53346" lon="6.1282">
        <ele>371</ele>
        <time>2023-01-18T14:19:25.000Z</time>
      </trkpt>
      <trkpt lat="43.53349" lon="6.12815">
        <ele>371</ele>
        <time>2023-01-18T14:19:30.000Z</time>
      </trkpt>
      <trkpt lat="43.53354" lon="6.1281">
        <ele>371.3</ele>
        <time>2023-01-18T14:19:34.000Z</time>
      </trkpt>
      <trkpt lat="43.53358" lon="6.12806">
        <ele>371.5</ele>
        <time>2023-01-18T14:19:37.000Z</time>
      </trkpt>
      <trkpt lat="43.53362" lon="6.128">
        <ele>371.4</ele>
        <time>2023-01-18T14:19:43.000Z</time>
      </trkpt>
      <trkpt lat="43.53365" lon="6.12793">
        <ele>371.5</ele>
        <time>2023-01-18T14:19:47.000Z</time>
      </trkpt>
      <trkpt lat="43.53367" lon="6.12786">
        <ele>371.1</ele>
        <time>2023-01-18T14:19:53.000Z</time>
      </trkpt>
      <trkpt lat="43.53369" lon="6.12781">
        <ele>371</ele>
        <time>2023-01-18T14:19:56.000Z</time>
      </trkpt>
      <trkpt lat="43.53372" lon="6.12776">
        <ele>370.6</ele>
        <time>2023-01-18T14:20:00.000Z</time>
      </trkpt>
      <trkpt lat="43.53373" lon="6.12769">
        <ele>370.9</ele>
        <time>2023-01-18T14:20:05.000Z</time>
      </trkpt>
      <trkpt lat="43.53374" lon="6.12762">
        <ele>371.4</ele>
        <time>2023-01-18T14:20:08.000Z</time>
      </trkpt>
      <trkpt lat="43.53377" lon="6.12757">
        <ele>371.9</ele>
        <time>2023-01-18T14:20:14.000Z</time>
      </trkpt>
      <trkpt lat="43.53381" lon="6.12752">
        <ele>371.8</ele>
        <time>2023-01-18T14:20:16.000Z</time>
      </trkpt>
      <trkpt lat="43.53383" lon="6.12745">
        <ele>371.8</ele>
        <time>2023-01-18T14:20:22.000Z</time>
      </trkpt>
      <trkpt lat="43.53387" lon="6.12743">
        <ele>371.9</ele>
        <time>2023-01-18T14:20:25.000Z</time>
      </trkpt>
      <trkpt lat="43.53392" lon="6.12739">
        <ele>372.4</ele>
        <time>2023-01-18T14:20:30.000Z</time>
      </trkpt>
      <trkpt lat="43.53397" lon="6.12738">
        <ele>372.1</ele>
        <time>2023-01-18T14:20:32.000Z</time>
      </trkpt>
      <trkpt lat="43.53401" lon="6.12736">
        <ele>372.7</ele>
        <time>2023-01-18T14:20:37.000Z</time>
      </trkpt>
      <trkpt lat="43.53406" lon="6.12735">
        <ele>372.7</ele>
        <time>2023-01-18T14:20:42.000Z</time>
      </trkpt>
      <trkpt lat="43.5341" lon="6.12731">
        <ele>372.7</ele>
        <time>2023-01-18T14:20:45.000Z</time>
      </trkpt>
      <trkpt lat="43.53414" lon="6.12728">
        <ele>373.1</ele>
        <time>2023-01-18T14:20:48.000Z</time>
      </trkpt>
      <trkpt lat="43.53419" lon="6.12724">
        <ele>373</ele>
        <time>2023-01-18T14:20:54.000Z</time>
      </trkpt>
      <trkpt lat="43.53423" lon="6.12721">
        <ele>373.1</ele>
        <time>2023-01-18T14:20:59.000Z</time>
      </trkpt>
      <trkpt lat="43.53427" lon="6.12717">
        <ele>373.1</ele>
        <time>2023-01-18T14:21:04.000Z</time>
      </trkpt>
      <trkpt lat="43.53433" lon="6.12713">
        <ele>373.5</ele>
        <time>2023-01-18T14:21:09.000Z</time>
      </trkpt>
      <trkpt lat="43.53438" lon="6.12711">
        <ele>373.8</ele>
        <time>2023-01-18T14:21:14.000Z</time>
      </trkpt>
      <trkpt lat="43.53442" lon="6.12708">
        <ele>374.1</ele>
        <time>2023-01-18T14:21:20.000Z</time>
      </trkpt>
      <trkpt lat="43.53445" lon="6.12703">
        <ele>374.3</ele>
        <time>2023-01-18T14:21:24.000Z</time>
      </trkpt>
      <trkpt lat="43.5345" lon="6.127">
        <ele>374.3</ele>
        <time>2023-01-18T14:21:29.000Z</time>
      </trkpt>
      <trkpt lat="43.53455" lon="6.12697">
        <ele>374.7</ele>
        <time>2023-01-18T14:21:33.000Z</time>
      </trkpt>
      <trkpt lat="43.53459" lon="6.12693">
        <ele>374.7</ele>
        <time>2023-01-18T14:21:40.000Z</time>
      </trkpt>
      <trkpt lat="43.53463" lon="6.12692">
        <ele>374.7</ele>
        <time>2023-01-18T14:21:45.000Z</time>
      </trkpt>
      <trkpt lat="43.53466" lon="6.12686">
        <ele>374.6</ele>
        <time>2023-01-18T14:21:55.000Z</time>
      </trkpt>
      <trkpt lat="43.5347" lon="6.12682">
        <ele>375</ele>
        <time>2023-01-18T14:22:18.000Z</time>
      </trkpt>
      <trkpt lat="43.53473" lon="6.12677">
        <ele>375</ele>
        <time>2023-01-18T14:23:09.000Z</time>
      </trkpt>
      <trkpt lat="43.53474" lon="6.1267">
        <ele>374.8</ele>
        <time>2023-01-18T14:23:15.000Z</time>
      </trkpt>
      <trkpt lat="43.53472" lon="6.12664">
        <ele>375.1</ele>
        <time>2023-01-18T14:23:18.000Z</time>
      </trkpt>
      <trkpt lat="43.53471" lon="6.12657">
        <ele>374.3</ele>
        <time>2023-01-18T14:23:24.000Z</time>
      </trkpt>
      <trkpt lat="43.53468" lon="6.1265">
        <ele>374.7</ele>
        <time>2023-01-18T14:23:29.000Z</time>
      </trkpt>
      <trkpt lat="43.53467" lon="6.12644">
        <ele>374.9</ele>
        <time>2023-01-18T14:23:32.000Z</time>
      </trkpt>
      <trkpt lat="43.53466" lon="6.12637">
        <ele>374.8</ele>
        <time>2023-01-18T14:23:37.000Z</time>
      </trkpt>
      <trkpt lat="43.53465" lon="6.12629">
        <ele>375.1</ele>
        <time>2023-01-18T14:23:42.000Z</time>
      </trkpt>
      <trkpt lat="43.53463" lon="6.12623">
        <ele>375.2</ele>
        <time>2023-01-18T14:23:45.000Z</time>
      </trkpt>
      <trkpt lat="43.53461" lon="6.12617">
        <ele>375.1</ele>
        <time>2023-01-18T14:23:51.000Z</time>
      </trkpt>
      <trkpt lat="43.53458" lon="6.12612">
        <ele>375.3</ele>
        <time>2023-01-18T14:23:55.000Z</time>
      </trkpt>
      <trkpt lat="43.53455" lon="6.12607">
        <ele>375.5</ele>
        <time>2023-01-18T14:23:58.000Z</time>
      </trkpt>
      <trkpt lat="43.53452" lon="6.126">
        <ele>374.9</ele>
        <time>2023-01-18T14:24:05.000Z</time>
      </trkpt>
      <trkpt lat="43.53448" lon="6.12595">
        <ele>374.9</ele>
        <time>2023-01-18T14:24:08.000Z</time>
      </trkpt>
      <trkpt lat="43.53446" lon="6.12589">
        <ele>375.3</ele>
        <time>2023-01-18T14:24:14.000Z</time>
      </trkpt>
      <trkpt lat="43.53442" lon="6.12585">
        <ele>375.4</ele>
        <time>2023-01-18T14:24:17.000Z</time>
      </trkpt>
      <trkpt lat="43.53439" lon="6.12579">
        <ele>375.4</ele>
        <time>2023-01-18T14:24:21.000Z</time>
      </trkpt>
      <trkpt lat="43.53436" lon="6.12573">
        <ele>375.6</ele>
        <time>2023-01-18T14:24:26.000Z</time>
      </trkpt>
      <trkpt lat="43.53434" lon="6.12567">
        <ele>375.8</ele>
        <time>2023-01-18T14:24:30.000Z</time>
      </trkpt>
      <trkpt lat="43.53431" lon="6.12562">
        <ele>375.2</ele>
        <time>2023-01-18T14:24:35.000Z</time>
      </trkpt>
      <trkpt lat="43.53427" lon="6.12556">
        <ele>375.3</ele>
        <time>2023-01-18T14:24:39.000Z</time>
      </trkpt>
      <trkpt lat="43.53426" lon="6.1255">
        <ele>375.3</ele>
        <time>2023-01-18T14:24:43.000Z</time>
      </trkpt>
      <trkpt lat="43.53425" lon="6.12542">
        <ele>375.6</ele>
        <time>2023-01-18T14:24:48.000Z</time>
      </trkpt>
      <trkpt lat="43.53424" lon="6.12536">
        <ele>376.1</ele>
        <time>2023-01-18T14:24:54.000Z</time>
      </trkpt>
      <trkpt lat="43.53424" lon="6.12529">
        <ele>376.3</ele>
        <time>2023-01-18T14:24:57.000Z</time>
      </trkpt>
      <trkpt lat="43.53424" lon="6.12522">
        <ele>376.3</ele>
        <time>2023-01-18T14:25:02.000Z</time>
      </trkpt>
      <trkpt lat="43.53423" lon="6.12515">
        <ele>376</ele>
        <time>2023-01-18T14:25:07.000Z</time>
      </trkpt>
      <trkpt lat="43.53424" lon="6.12509">
        <ele>376.8</ele>
        <time>2023-01-18T14:25:12.000Z</time>
      </trkpt>
      <trkpt lat="43.53427" lon="6.12504">
        <ele>377.2</ele>
        <time>2023-01-18T14:25:16.000Z</time>
      </trkpt>
      <trkpt lat="43.53427" lon="6.12495">
        <ele>376.5</ele>
        <time>2023-01-18T14:25:22.000Z</time>
      </trkpt>
      <trkpt lat="43.53428" lon="6.12489">
        <ele>377.7</ele>
        <time>2023-01-18T14:25:26.000Z</time>
      </trkpt>
      <trkpt lat="43.53429" lon="6.12482">
        <ele>377.5</ele>
        <time>2023-01-18T14:25:32.000Z</time>
      </trkpt>
      <trkpt lat="43.53426" lon="6.12474">
        <ele>377.6</ele>
        <time>2023-01-18T14:25:35.000Z</time>
      </trkpt>
      <trkpt lat="43.53424" lon="6.12468">
        <ele>378</ele>
        <time>2023-01-18T14:25:38.000Z</time>
      </trkpt>
      <trkpt lat="43.53425" lon="6.12461">
        <ele>377.7</ele>
        <time>2023-01-18T14:25:42.000Z</time>
      </trkpt>
      <trkpt lat="43.53423" lon="6.12453">
        <ele>378</ele>
        <time>2023-01-18T14:25:47.000Z</time>
      </trkpt>
      <trkpt lat="43.53422" lon="6.12446">
        <ele>379.3</ele>
        <time>2023-01-18T14:25:50.000Z</time>
      </trkpt>
      <trkpt lat="43.53421" lon="6.1244">
        <ele>380</ele>
        <time>2023-01-18T14:25:55.000Z</time>
      </trkpt>
      <trkpt lat="43.53419" lon="6.12432">
        <ele>380.2</ele>
        <time>2023-01-18T14:25:59.000Z</time>
      </trkpt>
      <trkpt lat="43.53419" lon="6.12426">
        <ele>380.6</ele>
        <time>2023-01-18T14:26:02.000Z</time>
      </trkpt>
      <trkpt lat="43.53418" lon="6.12419">
        <ele>380.9</ele>
        <time>2023-01-18T14:26:08.000Z</time>
      </trkpt>
      <trkpt lat="43.53415" lon="6.12411">
        <ele>381.5</ele>
        <time>2023-01-18T14:26:12.000Z</time>
      </trkpt>
      <trkpt lat="43.53414" lon="6.12404">
        <ele>383.4</ele>
        <time>2023-01-18T14:26:18.000Z</time>
      </trkpt>
      <trkpt lat="43.53412" lon="6.12395">
        <ele>382.5</ele>
        <time>2023-01-18T14:26:22.000Z</time>
      </trkpt>
      <trkpt lat="43.53413" lon="6.12388">
        <ele>383.5</ele>
        <time>2023-01-18T14:26:26.000Z</time>
      </trkpt>
      <trkpt lat="43.53412" lon="6.12381">
        <ele>383.9</ele>
        <time>2023-01-18T14:26:31.000Z</time>
      </trkpt>
      <trkpt lat="43.53411" lon="6.12374">
        <ele>384.6</ele>
        <time>2023-01-18T14:26:34.000Z</time>
      </trkpt>
      <trkpt lat="43.53411" lon="6.12367">
        <ele>385.4</ele>
        <time>2023-01-18T14:26:37.000Z</time>
      </trkpt>
      <trkpt lat="43.53411" lon="6.1236">
        <ele>385.4</ele>
        <time>2023-01-18T14:26:43.000Z</time>
      </trkpt>
      <trkpt lat="43.53413" lon="6.12353">
        <ele>384.4</ele>
        <time>2023-01-18T14:26:46.000Z</time>
      </trkpt>
      <trkpt lat="43.53413" lon="6.12347">
        <ele>386.1</ele>
        <time>2023-01-18T14:26:49.000Z</time>
      </trkpt>
      <trkpt lat="43.53415" lon="6.12341">
        <ele>385.9</ele>
        <time>2023-01-18T14:26:55.000Z</time>
      </trkpt>
      <trkpt lat="43.53413" lon="6.12333">
        <ele>386.3</ele>
        <time>2023-01-18T14:26:58.000Z</time>
      </trkpt>
      <trkpt lat="43.53413" lon="6.12326">
        <ele>388.1</ele>
        <time>2023-01-18T14:27:01.000Z</time>
      </trkpt>
      <trkpt lat="43.53411" lon="6.12319">
        <ele>389.1</ele>
        <time>2023-01-18T14:27:07.000Z</time>
      </trkpt>
      <trkpt lat="43.53413" lon="6.12313">
        <ele>387.5</ele>
        <time>2023-01-18T14:27:10.000Z</time>
      </trkpt>
      <trkpt lat="43.53412" lon="6.12306">
        <ele>388.7</ele>
        <time>2023-01-18T14:27:13.000Z</time>
      </trkpt>
      <trkpt lat="43.53412" lon="6.123">
        <ele>390</ele>
        <time>2023-01-18T14:27:19.000Z</time>
      </trkpt>
      <trkpt lat="43.53411" lon="6.12293">
        <ele>391.1</ele>
        <time>2023-01-18T14:27:23.000Z</time>
      </trkpt>
      <trkpt lat="43.53412" lon="6.12286">
        <ele>392.4</ele>
        <time>2023-01-18T14:27:27.000Z</time>
      </trkpt>
      <trkpt lat="43.53412" lon="6.12279">
        <ele>393</ele>
        <time>2023-01-18T14:27:33.000Z</time>
      </trkpt>
      <trkpt lat="43.53411" lon="6.12271">
        <ele>392.4</ele>
        <time>2023-01-18T14:27:36.000Z</time>
      </trkpt>
      <trkpt lat="43.53409" lon="6.12264">
        <ele>394.4</ele>
        <time>2023-01-18T14:27:39.000Z</time>
      </trkpt>
      <trkpt lat="43.53407" lon="6.12258">
        <ele>395.3</ele>
        <time>2023-01-18T14:27:44.000Z</time>
      </trkpt>
      <trkpt lat="43.53405" lon="6.12251">
        <ele>396</ele>
        <time>2023-01-18T14:27:48.000Z</time>
      </trkpt>
      <trkpt lat="43.53407" lon="6.12244">
        <ele>395.5</ele>
        <time>2023-01-18T14:27:51.000Z</time>
      </trkpt>
      <trkpt lat="43.53405" lon="6.12238">
        <ele>396.8</ele>
        <time>2023-01-18T14:27:54.000Z</time>
      </trkpt>
      <trkpt lat="43.53401" lon="6.12233">
        <ele>396.3</ele>
        <time>2023-01-18T14:27:59.000Z</time>
      </trkpt>
      <trkpt lat="43.53398" lon="6.12227">
        <ele>397.6</ele>
        <time>2023-01-18T14:28:03.000Z</time>
      </trkpt>
      <trkpt lat="43.53395" lon="6.1222">
        <ele>398.3</ele>
        <time>2023-01-18T14:28:07.000Z</time>
      </trkpt>
      <trkpt lat="43.53393" lon="6.12214">
        <ele>398.6</ele>
        <time>2023-01-18T14:28:11.000Z</time>
      </trkpt>
      <trkpt lat="43.5339" lon="6.12207">
        <ele>398.6</ele>
        <time>2023-01-18T14:28:14.000Z</time>
      </trkpt>
      <trkpt lat="43.53386" lon="6.12201">
        <ele>398.5</ele>
        <time>2023-01-18T14:28:17.000Z</time>
      </trkpt>
      <trkpt lat="43.53389" lon="6.12196">
        <ele>399.6</ele>
        <time>2023-01-18T14:28:32.000Z</time>
      </trkpt>
      <trkpt lat="43.53384" lon="6.12195">
        <ele>399.6</ele>
        <time>2023-01-18T14:29:02.000Z</time>
      </trkpt>
      <trkpt lat="43.53385" lon="6.12201">
        <ele>399.5</ele>
        <time>2023-01-18T14:29:38.000Z</time>
      </trkpt>
      <trkpt lat="43.53381" lon="6.12198">
        <ele>399.8</ele>
        <time>2023-01-18T14:29:57.000Z</time>
      </trkpt>
      <trkpt lat="43.53377" lon="6.12193">
        <ele>399.9</ele>
        <time>2023-01-18T14:30:02.000Z</time>
      </trkpt>
      <trkpt lat="43.53374" lon="6.12187">
        <ele>398.9</ele>
        <time>2023-01-18T14:30:08.000Z</time>
      </trkpt>
      <trkpt lat="43.53374" lon="6.1218">
        <ele>399.6</ele>
        <time>2023-01-18T14:30:13.000Z</time>
      </trkpt>
      <trkpt lat="43.53373" lon="6.12174">
        <ele>401.2</ele>
        <time>2023-01-18T14:30:17.000Z</time>
      </trkpt>
      <trkpt lat="43.53375" lon="6.12167">
        <ele>401.6</ele>
        <time>2023-01-18T14:30:23.000Z</time>
      </trkpt>
      <trkpt lat="43.53378" lon="6.12162">
        <ele>403.1</ele>
        <time>2023-01-18T14:30:31.000Z</time>
      </trkpt>
      <trkpt lat="43.53382" lon="6.12158">
        <ele>403.6</ele>
        <time>2023-01-18T14:30:37.000Z</time>
      </trkpt>
      <trkpt lat="43.53386" lon="6.12153">
        <ele>404.1</ele>
        <time>2023-01-18T14:30:43.000Z</time>
      </trkpt>
      <trkpt lat="43.5339" lon="6.12149">
        <ele>405.3</ele>
        <time>2023-01-18T14:30:49.000Z</time>
      </trkpt>
      <trkpt lat="43.53393" lon="6.12144">
        <ele>406</ele>
        <time>2023-01-18T14:30:55.000Z</time>
      </trkpt>
      <trkpt lat="43.53398" lon="6.1214">
        <ele>407</ele>
        <time>2023-01-18T14:31:01.000Z</time>
      </trkpt>
      <trkpt lat="43.53401" lon="6.12134">
        <ele>407.1</ele>
        <time>2023-01-18T14:31:08.000Z</time>
      </trkpt>
      <trkpt lat="43.53405" lon="6.12129">
        <ele>408.9</ele>
        <time>2023-01-18T14:31:14.000Z</time>
      </trkpt>
      <trkpt lat="43.53408" lon="6.12124">
        <ele>408.5</ele>
        <time>2023-01-18T14:31:18.000Z</time>
      </trkpt>
      <trkpt lat="43.53413" lon="6.12121">
        <ele>410.4</ele>
        <time>2023-01-18T14:31:24.000Z</time>
      </trkpt>
      <trkpt lat="43.53418" lon="6.1212">
        <ele>411.3</ele>
        <time>2023-01-18T14:31:30.000Z</time>
      </trkpt>
      <trkpt lat="43.53424" lon="6.12123">
        <ele>411.6</ele>
        <time>2023-01-18T14:31:37.000Z</time>
      </trkpt>
      <trkpt lat="43.53429" lon="6.12124">
        <ele>412.7</ele>
        <time>2023-01-18T14:31:42.000Z</time>
      </trkpt>
      <trkpt lat="43.53433" lon="6.12127">
        <ele>413.5</ele>
        <time>2023-01-18T14:31:45.000Z</time>
      </trkpt>
      <trkpt lat="43.53438" lon="6.1213">
        <ele>414.1</ele>
        <time>2023-01-18T14:31:51.000Z</time>
      </trkpt>
      <trkpt lat="43.53444" lon="6.12133">
        <ele>415.8</ele>
        <time>2023-01-18T14:31:56.000Z</time>
      </trkpt>
      <trkpt lat="43.53449" lon="6.12135">
        <ele>416.6</ele>
        <time>2023-01-18T14:32:01.000Z</time>
      </trkpt>
      <trkpt lat="43.53453" lon="6.12132">
        <ele>418.5</ele>
        <time>2023-01-18T14:32:05.000Z</time>
      </trkpt>
      <trkpt lat="43.53458" lon="6.12126">
        <ele>419</ele>
        <time>2023-01-18T14:32:09.000Z</time>
      </trkpt>
      <trkpt lat="43.5346" lon="6.1212">
        <ele>419.5</ele>
        <time>2023-01-18T14:32:14.000Z</time>
      </trkpt>
      <trkpt lat="43.53462" lon="6.12114">
        <ele>420</ele>
        <time>2023-01-18T14:32:18.000Z</time>
      </trkpt>
      <trkpt lat="43.53465" lon="6.12109">
        <ele>420.8</ele>
        <time>2023-01-18T14:32:25.000Z</time>
      </trkpt>
      <trkpt lat="43.53466" lon="6.12102">
        <ele>420.5</ele>
        <time>2023-01-18T14:32:29.000Z</time>
      </trkpt>
      <trkpt lat="43.53468" lon="6.12096">
        <ele>420.1</ele>
        <time>2023-01-18T14:32:35.000Z</time>
      </trkpt>
      <trkpt lat="43.53469" lon="6.12089">
        <ele>421.5</ele>
        <time>2023-01-18T14:32:39.000Z</time>
      </trkpt>
      <trkpt lat="43.53465" lon="6.12083">
        <ele>422.8</ele>
        <time>2023-01-18T14:32:44.000Z</time>
      </trkpt>
      <trkpt lat="43.53463" lon="6.12077">
        <ele>423.3</ele>
        <time>2023-01-18T14:32:49.000Z</time>
      </trkpt>
      <trkpt lat="43.53461" lon="6.12071">
        <ele>423.5</ele>
        <time>2023-01-18T14:32:53.000Z</time>
      </trkpt>
      <trkpt lat="43.53457" lon="6.12066">
        <ele>423.6</ele>
        <time>2023-01-18T14:32:58.000Z</time>
      </trkpt>
      <trkpt lat="43.53453" lon="6.12061">
        <ele>423.9</ele>
        <time>2023-01-18T14:33:03.000Z</time>
      </trkpt>
      <trkpt lat="43.53449" lon="6.12056">
        <ele>424.6</ele>
        <time>2023-01-18T14:33:07.000Z</time>
      </trkpt>
      <trkpt lat="43.53445" lon="6.1205">
        <ele>424.6</ele>
        <time>2023-01-18T14:33:13.000Z</time>
      </trkpt>
      <trkpt lat="43.5344" lon="6.12046">
        <ele>424.9</ele>
        <time>2023-01-18T14:33:18.000Z</time>
      </trkpt>
      <trkpt lat="43.53436" lon="6.12041">
        <ele>425.1</ele>
        <time>2023-01-18T14:33:21.000Z</time>
      </trkpt>
      <trkpt lat="43.53432" lon="6.12038">
        <ele>425</ele>
        <time>2023-01-18T14:33:25.000Z</time>
      </trkpt>
      <trkpt lat="43.53428" lon="6.12034">
        <ele>425.5</ele>
        <time>2023-01-18T14:33:29.000Z</time>
      </trkpt>
      <trkpt lat="43.53423" lon="6.12031">
        <ele>425.4</ele>
        <time>2023-01-18T14:33:33.000Z</time>
      </trkpt>
      <trkpt lat="43.5342" lon="6.12026">
        <ele>425.9</ele>
        <time>2023-01-18T14:33:38.000Z</time>
      </trkpt>
      <trkpt lat="43.53416" lon="6.12021">
        <ele>425.7</ele>
        <time>2023-01-18T14:33:44.000Z</time>
      </trkpt>
      <trkpt lat="43.53412" lon="6.12018">
        <ele>426.1</ele>
        <time>2023-01-18T14:33:49.000Z</time>
      </trkpt>
      <trkpt lat="43.53408" lon="6.12014">
        <ele>426.6</ele>
        <time>2023-01-18T14:33:52.000Z</time>
      </trkpt>
      <trkpt lat="43.53404" lon="6.1201">
        <ele>428.1</ele>
        <time>2023-01-18T14:33:57.000Z</time>
      </trkpt>
      <trkpt lat="43.534" lon="6.12007">
        <ele>428.5</ele>
        <time>2023-01-18T14:34:00.000Z</time>
      </trkpt>
      <trkpt lat="43.53396" lon="6.12003">
        <ele>427.9</ele>
        <time>2023-01-18T14:34:04.000Z</time>
      </trkpt>
      <trkpt lat="43.53392" lon="6.11997">
        <ele>428.9</ele>
        <time>2023-01-18T14:34:09.000Z</time>
      </trkpt>
      <trkpt lat="43.53389" lon="6.11992">
        <ele>430</ele>
        <time>2023-01-18T14:34:12.000Z</time>
      </trkpt>
      <trkpt lat="43.53385" lon="6.11987">
        <ele>430.3</ele>
        <time>2023-01-18T14:34:16.000Z</time>
      </trkpt>
      <trkpt lat="43.53381" lon="6.11982">
        <ele>431</ele>
        <time>2023-01-18T14:34:20.000Z</time>
      </trkpt>
      <trkpt lat="43.53377" lon="6.11979">
        <ele>431.7</ele>
        <time>2023-01-18T14:34:25.000Z</time>
      </trkpt>
      <trkpt lat="43.53374" lon="6.11973">
        <ele>432.2</ele>
        <time>2023-01-18T14:34:29.000Z</time>
      </trkpt>
      <trkpt lat="43.53371" lon="6.11967">
        <ele>432.5</ele>
        <time>2023-01-18T14:34:33.000Z</time>
      </trkpt>
      <trkpt lat="43.53367" lon="6.11963">
        <ele>432.6</ele>
        <time>2023-01-18T14:34:37.000Z</time>
      </trkpt>
      <trkpt lat="43.53363" lon="6.11958">
        <ele>432.8</ele>
        <time>2023-01-18T14:34:41.000Z</time>
      </trkpt>
      <trkpt lat="43.53359" lon="6.11953">
        <ele>432.8</ele>
        <time>2023-01-18T14:34:44.000Z</time>
      </trkpt>
      <trkpt lat="43.53357" lon="6.11947">
        <ele>432.6</ele>
        <time>2023-01-18T14:34:49.000Z</time>
      </trkpt>
      <trkpt lat="43.53352" lon="6.11943">
        <ele>432.3</ele>
        <time>2023-01-18T14:34:55.000Z</time>
      </trkpt>
      <trkpt lat="43.53349" lon="6.11938">
        <ele>432.2</ele>
        <time>2023-01-18T14:34:58.000Z</time>
      </trkpt>
      <trkpt lat="43.53347" lon="6.11932">
        <ele>432.4</ele>
        <time>2023-01-18T14:35:20.000Z</time>
      </trkpt>
      <trkpt lat="43.53344" lon="6.11926">
        <ele>432.3</ele>
        <time>2023-01-18T14:35:34.000Z</time>
      </trkpt>
      <trkpt lat="43.5334" lon="6.11921">
        <ele>432.7</ele>
        <time>2023-01-18T14:35:39.000Z</time>
      </trkpt>
      <trkpt lat="43.53336" lon="6.11916">
        <ele>432.8</ele>
        <time>2023-01-18T14:35:44.000Z</time>
      </trkpt>
      <trkpt lat="43.53331" lon="6.11912">
        <ele>433.5</ele>
        <time>2023-01-18T14:35:49.000Z</time>
      </trkpt>
      <trkpt lat="43.53326" lon="6.11909">
        <ele>434</ele>
        <time>2023-01-18T14:35:54.000Z</time>
      </trkpt>
      <trkpt lat="43.53322" lon="6.11905">
        <ele>434</ele>
        <time>2023-01-18T14:36:06.000Z</time>
      </trkpt>
      <trkpt lat="43.53319" lon="6.11902">
        <ele>434.3</ele>
        <time>2023-01-18T14:36:11.000Z</time>
      </trkpt>
      <trkpt lat="43.53315" lon="6.11898">
        <ele>435.6</ele>
        <time>2023-01-18T14:36:21.000Z</time>
      </trkpt>
      <trkpt lat="43.53319" lon="6.11902">
        <ele>436.2</ele>
        <time>2023-01-18T14:36:45.000Z</time>
      </trkpt>
      <trkpt lat="43.53323" lon="6.11905">
        <ele>435.6</ele>
        <time>2023-01-18T14:36:50.000Z</time>
      </trkpt>
      <trkpt lat="43.53327" lon="6.1191">
        <ele>434.9</ele>
        <time>2023-01-18T14:36:56.000Z</time>
      </trkpt>
      <trkpt lat="43.53331" lon="6.11914">
        <ele>434.6</ele>
        <time>2023-01-18T14:37:00.000Z</time>
      </trkpt>
      <trkpt lat="43.53335" lon="6.11918">
        <ele>433.8</ele>
        <time>2023-01-18T14:37:05.000Z</time>
      </trkpt>
      <trkpt lat="43.53339" lon="6.11922">
        <ele>433.4</ele>
        <time>2023-01-18T14:37:08.000Z</time>
      </trkpt>
      <trkpt lat="43.53343" lon="6.11926">
        <ele>432.2</ele>
        <time>2023-01-18T14:37:14.000Z</time>
      </trkpt>
      <trkpt lat="43.53345" lon="6.11921">
        <ele>431</ele>
        <time>2023-01-18T14:40:42.000Z</time>
      </trkpt>
      <trkpt lat="43.53341" lon="6.11919">
        <ele>431.4</ele>
        <time>2023-01-18T14:42:50.000Z</time>
      </trkpt>
      <trkpt lat="43.53345" lon="6.11925">
        <ele>431.4</ele>
        <time>2023-01-18T14:43:01.000Z</time>
      </trkpt>
      <trkpt lat="43.53342" lon="6.1192">
        <ele>431.9</ele>
        <time>2023-01-18T14:43:08.000Z</time>
      </trkpt>
      <trkpt lat="43.53338" lon="6.11915">
        <ele>432.6</ele>
        <time>2023-01-18T14:43:14.000Z</time>
      </trkpt>
      <trkpt lat="43.53333" lon="6.11911">
        <ele>432.1</ele>
        <time>2023-01-18T14:43:18.000Z</time>
      </trkpt>
      <trkpt lat="43.53328" lon="6.11907">
        <ele>432.4</ele>
        <time>2023-01-18T14:43:21.000Z</time>
      </trkpt>
      <trkpt lat="43.53324" lon="6.11904">
        <ele>433.3</ele>
        <time>2023-01-18T14:43:27.000Z</time>
      </trkpt>
      <trkpt lat="43.53319" lon="6.11901">
        <ele>434.4</ele>
        <time>2023-01-18T14:43:31.000Z</time>
      </trkpt>
      <trkpt lat="43.53315" lon="6.11897">
        <ele>435</ele>
        <time>2023-01-18T14:43:37.000Z</time>
      </trkpt>
      <trkpt lat="43.53312" lon="6.11891">
        <ele>436</ele>
        <time>2023-01-18T14:43:50.000Z</time>
      </trkpt>
      <trkpt lat="43.53312" lon="6.11883">
        <ele>436.1</ele>
        <time>2023-01-18T14:43:57.000Z</time>
      </trkpt>
      <trkpt lat="43.53308" lon="6.11881">
        <ele>436.2</ele>
        <time>2023-01-18T14:44:05.000Z</time>
      </trkpt>
      <trkpt lat="43.53307" lon="6.11873">
        <ele>436.3</ele>
        <time>2023-01-18T14:44:12.000Z</time>
      </trkpt>
      <trkpt lat="43.53303" lon="6.1187">
        <ele>436.3</ele>
        <time>2023-01-18T14:44:22.000Z</time>
      </trkpt>
      <trkpt lat="43.53298" lon="6.11869">
        <ele>436.2</ele>
        <time>2023-01-18T14:44:31.000Z</time>
      </trkpt>
      <trkpt lat="43.53294" lon="6.11865">
        <ele>436.2</ele>
        <time>2023-01-18T14:44:36.000Z</time>
      </trkpt>
      <trkpt lat="43.53298" lon="6.11861">
        <ele>436.4</ele>
        <time>2023-01-18T14:44:56.000Z</time>
      </trkpt>
      <trkpt lat="43.533" lon="6.11867">
        <ele>436.5</ele>
        <time>2023-01-18T14:45:04.000Z</time>
      </trkpt>
      <trkpt lat="43.53299" lon="6.11877">
        <ele>436.4</ele>
        <time>2023-01-18T14:45:07.000Z</time>
      </trkpt>
      <trkpt lat="43.53299" lon="6.11883">
        <ele>436.2</ele>
        <time>2023-01-18T14:45:10.000Z</time>
      </trkpt>
      <trkpt lat="43.53301" lon="6.11889">
        <ele>436.1</ele>
        <time>2023-01-18T14:45:16.000Z</time>
      </trkpt>
      <trkpt lat="43.53298" lon="6.11896">
        <ele>436.1</ele>
        <time>2023-01-18T14:45:28.000Z</time>
      </trkpt>
      <trkpt lat="43.53302" lon="6.11899">
        <ele>435.9</ele>
        <time>2023-01-18T14:45:35.000Z</time>
      </trkpt>
      <trkpt lat="43.53307" lon="6.11896">
        <ele>435.9</ele>
        <time>2023-01-18T14:45:45.000Z</time>
      </trkpt>
      <trkpt lat="43.53312" lon="6.11898">
        <ele>436.4</ele>
        <time>2023-01-18T14:46:00.000Z</time>
      </trkpt>
      <trkpt lat="43.53317" lon="6.11898">
        <ele>436</ele>
        <time>2023-01-18T14:46:14.000Z</time>
      </trkpt>
      <trkpt lat="43.53321" lon="6.11903">
        <ele>435.5</ele>
        <time>2023-01-18T14:46:29.000Z</time>
      </trkpt>
      <trkpt lat="43.53323" lon="6.11909">
        <ele>435</ele>
        <time>2023-01-18T14:46:37.000Z</time>
      </trkpt>
      <trkpt lat="43.53328" lon="6.11914">
        <ele>434.5</ele>
        <time>2023-01-18T14:46:43.000Z</time>
      </trkpt>
      <trkpt lat="43.53332" lon="6.11918">
        <ele>434</ele>
        <time>2023-01-18T14:46:50.000Z</time>
      </trkpt>
      <trkpt lat="43.53335" lon="6.11922">
        <ele>433.5</ele>
        <time>2023-01-18T14:46:56.000Z</time>
      </trkpt>
      <trkpt lat="43.5334" lon="6.11927">
        <ele>432.9</ele>
        <time>2023-01-18T14:47:02.000Z</time>
      </trkpt>
      <trkpt lat="43.53343" lon="6.11932">
        <ele>432.4</ele>
        <time>2023-01-18T14:47:09.000Z</time>
      </trkpt>
      <trkpt lat="43.53339" lon="6.1193">
        <ele>431.6</ele>
        <time>2023-01-18T14:47:19.000Z</time>
      </trkpt>
      <trkpt lat="43.53334" lon="6.11926">
        <ele>431</ele>
        <time>2023-01-18T14:47:25.000Z</time>
      </trkpt>
      <trkpt lat="43.5333" lon="6.11922">
        <ele>430.6</ele>
        <time>2023-01-18T14:47:31.000Z</time>
      </trkpt>
      <trkpt lat="43.53326" lon="6.11919">
        <ele>430.3</ele>
        <time>2023-01-18T14:47:36.000Z</time>
      </trkpt>
      <trkpt lat="43.53321" lon="6.11916">
        <ele>430.5</ele>
        <time>2023-01-18T14:47:41.000Z</time>
      </trkpt>
      <trkpt lat="43.53316" lon="6.11914">
        <ele>430.5</ele>
        <time>2023-01-18T14:47:46.000Z</time>
      </trkpt>
      <trkpt lat="43.53312" lon="6.11911">
        <ele>430.9</ele>
        <time>2023-01-18T14:47:50.000Z</time>
      </trkpt>
      <trkpt lat="43.53307" lon="6.11909">
        <ele>430.7</ele>
        <time>2023-01-18T14:47:55.000Z</time>
      </trkpt>
      <trkpt lat="43.53302" lon="6.11907">
        <ele>430.8</ele>
        <time>2023-01-18T14:48:00.000Z</time>
      </trkpt>
      <trkpt lat="43.53297" lon="6.11904">
        <ele>430.9</ele>
        <time>2023-01-18T14:48:05.000Z</time>
      </trkpt>
      <trkpt lat="43.53293" lon="6.119">
        <ele>430.7</ele>
        <time>2023-01-18T14:48:12.000Z</time>
      </trkpt>
      <trkpt lat="43.5329" lon="6.11903">
        <ele>431.9</ele>
        <time>2023-01-18T14:48:27.000Z</time>
      </trkpt>
      <trkpt lat="43.5329" lon="6.1191">
        <ele>433</ele>
        <time>2023-01-18T14:49:41.000Z</time>
      </trkpt>
      <trkpt lat="43.53291" lon="6.11916">
        <ele>432.5</ele>
        <time>2023-01-18T14:50:29.000Z</time>
      </trkpt>
      <trkpt lat="43.53295" lon="6.11912">
        <ele>432.8</ele>
        <time>2023-01-18T14:50:43.000Z</time>
      </trkpt>
      <trkpt lat="43.53293" lon="6.11906">
        <ele>432.9</ele>
        <time>2023-01-18T14:51:02.000Z</time>
      </trkpt>
      <trkpt lat="43.53295" lon="6.11912">
        <ele>432.4</ele>
        <time>2023-01-18T14:51:31.000Z</time>
      </trkpt>
      <trkpt lat="43.53291" lon="6.11915">
        <ele>432.3</ele>
        <time>2023-01-18T14:51:39.000Z</time>
      </trkpt>
      <trkpt lat="43.53287" lon="6.11912">
        <ele>431.9</ele>
        <time>2023-01-18T14:51:48.000Z</time>
      </trkpt>
      <trkpt lat="43.53291" lon="6.11914">
        <ele>430.7</ele>
        <time>2023-01-18T14:52:32.000Z</time>
      </trkpt>
      <trkpt lat="43.53296" lon="6.11919">
        <ele>430.3</ele>
        <time>2023-01-18T14:52:39.000Z</time>
      </trkpt>
      <trkpt lat="43.53302" lon="6.1192">
        <ele>430.3</ele>
        <time>2023-01-18T14:52:43.000Z</time>
      </trkpt>
      <trkpt lat="43.53306" lon="6.11923">
        <ele>429.7</ele>
        <time>2023-01-18T14:52:49.000Z</time>
      </trkpt>
      <trkpt lat="43.53311" lon="6.11924">
        <ele>429.6</ele>
        <time>2023-01-18T14:52:53.000Z</time>
      </trkpt>
      <trkpt lat="43.53315" lon="6.11926">
        <ele>429.6</ele>
        <time>2023-01-18T14:52:56.000Z</time>
      </trkpt>
      <trkpt lat="43.53321" lon="6.11928">
        <ele>429.1</ele>
        <time>2023-01-18T14:53:04.000Z</time>
      </trkpt>
      <trkpt lat="43.53326" lon="6.11929">
        <ele>429.5</ele>
        <time>2023-01-18T14:53:08.000Z</time>
      </trkpt>
      <trkpt lat="43.53332" lon="6.11931">
        <ele>429.9</ele>
        <time>2023-01-18T14:53:14.000Z</time>
      </trkpt>
      <trkpt lat="43.53336" lon="6.11934">
        <ele>430</ele>
        <time>2023-01-18T14:53:19.000Z</time>
      </trkpt>
      <trkpt lat="43.53342" lon="6.11938">
        <ele>431.1</ele>
        <time>2023-01-18T14:53:24.000Z</time>
      </trkpt>
      <trkpt lat="43.53346" lon="6.11941">
        <ele>430.8</ele>
        <time>2023-01-18T14:53:27.000Z</time>
      </trkpt>
      <trkpt lat="43.53349" lon="6.11945">
        <ele>431.3</ele>
        <time>2023-01-18T14:53:30.000Z</time>
      </trkpt>
      <trkpt lat="43.53353" lon="6.11951">
        <ele>430.7</ele>
        <time>2023-01-18T14:53:37.000Z</time>
      </trkpt>
      <trkpt lat="43.53358" lon="6.11956">
        <ele>430.9</ele>
        <time>2023-01-18T14:53:41.000Z</time>
      </trkpt>
      <trkpt lat="43.53361" lon="6.11961">
        <ele>431</ele>
        <time>2023-01-18T14:53:46.000Z</time>
      </trkpt>
      <trkpt lat="43.53365" lon="6.11966">
        <ele>431.4</ele>
        <time>2023-01-18T14:53:50.000Z</time>
      </trkpt>
      <trkpt lat="43.53368" lon="6.11971">
        <ele>431.6</ele>
        <time>2023-01-18T14:53:53.000Z</time>
      </trkpt>
      <trkpt lat="43.53371" lon="6.11976">
        <ele>431.4</ele>
        <time>2023-01-18T14:53:58.000Z</time>
      </trkpt>
      <trkpt lat="43.53376" lon="6.11981">
        <ele>431.4</ele>
        <time>2023-01-18T14:54:04.000Z</time>
      </trkpt>
      <trkpt lat="43.53379" lon="6.11985">
        <ele>430.7</ele>
        <time>2023-01-18T14:54:08.000Z</time>
      </trkpt>
      <trkpt lat="43.53383" lon="6.1199">
        <ele>429.8</ele>
        <time>2023-01-18T14:54:12.000Z</time>
      </trkpt>
      <trkpt lat="43.53386" lon="6.11995">
        <ele>429.3</ele>
        <time>2023-01-18T14:54:16.000Z</time>
      </trkpt>
      <trkpt lat="43.53389" lon="6.12001">
        <ele>429.1</ele>
        <time>2023-01-18T14:54:19.000Z</time>
      </trkpt>
      <trkpt lat="43.53393" lon="6.12007">
        <ele>428.9</ele>
        <time>2023-01-18T14:54:22.000Z</time>
      </trkpt>
      <trkpt lat="43.53396" lon="6.12011">
        <ele>428.6</ele>
        <time>2023-01-18T14:54:25.000Z</time>
      </trkpt>
      <trkpt lat="43.534" lon="6.12017">
        <ele>428</ele>
        <time>2023-01-18T14:54:29.000Z</time>
      </trkpt>
      <trkpt lat="43.53404" lon="6.12021">
        <ele>427</ele>
        <time>2023-01-18T14:54:35.000Z</time>
      </trkpt>
      <trkpt lat="43.53408" lon="6.12025">
        <ele>426.5</ele>
        <time>2023-01-18T14:54:41.000Z</time>
      </trkpt>
      <trkpt lat="43.53412" lon="6.12029">
        <ele>426.2</ele>
        <time>2023-01-18T14:54:45.000Z</time>
      </trkpt>
      <trkpt lat="43.53418" lon="6.12034">
        <ele>425.6</ele>
        <time>2023-01-18T14:54:49.000Z</time>
      </trkpt>
      <trkpt lat="43.53423" lon="6.12038">
        <ele>425.3</ele>
        <time>2023-01-18T14:54:52.000Z</time>
      </trkpt>
      <trkpt lat="43.53428" lon="6.12042">
        <ele>425.2</ele>
        <time>2023-01-18T14:54:55.000Z</time>
      </trkpt>
      <trkpt lat="43.53431" lon="6.12046">
        <ele>424.9</ele>
        <time>2023-01-18T14:54:59.000Z</time>
      </trkpt>
      <trkpt lat="43.53435" lon="6.12051">
        <ele>424.9</ele>
        <time>2023-01-18T14:55:06.000Z</time>
      </trkpt>
      <trkpt lat="43.53439" lon="6.12055">
        <ele>424.3</ele>
        <time>2023-01-18T14:55:11.000Z</time>
      </trkpt>
      <trkpt lat="43.53443" lon="6.1206">
        <ele>424</ele>
        <time>2023-01-18T14:55:15.000Z</time>
      </trkpt>
      <trkpt lat="43.5344" lon="6.12066">
        <ele>423</ele>
        <time>2023-01-18T14:55:25.000Z</time>
      </trkpt>
      <trkpt lat="43.53436" lon="6.12072">
        <ele>421.3</ele>
        <time>2023-01-18T14:55:30.000Z</time>
      </trkpt>
      <trkpt lat="43.53436" lon="6.12078">
        <ele>419.4</ele>
        <time>2023-01-18T14:55:35.000Z</time>
      </trkpt>
      <trkpt lat="43.53435" lon="6.12085">
        <ele>417.9</ele>
        <time>2023-01-18T14:55:41.000Z</time>
      </trkpt>
      <trkpt lat="43.53433" lon="6.12091">
        <ele>417.2</ele>
        <time>2023-01-18T14:55:45.000Z</time>
      </trkpt>
      <trkpt lat="43.53429" lon="6.12096">
        <ele>416</ele>
        <time>2023-01-18T14:55:51.000Z</time>
      </trkpt>
      <trkpt lat="43.53425" lon="6.121">
        <ele>414.8</ele>
        <time>2023-01-18T14:55:55.000Z</time>
      </trkpt>
      <trkpt lat="43.5342" lon="6.12103">
        <ele>413.2</ele>
        <time>2023-01-18T14:56:00.000Z</time>
      </trkpt>
      <trkpt lat="43.53418" lon="6.12108">
        <ele>411.4</ele>
        <time>2023-01-18T14:56:31.000Z</time>
      </trkpt>
      <trkpt lat="43.53413" lon="6.12108">
        <ele>411.6</ele>
        <time>2023-01-18T14:56:40.000Z</time>
      </trkpt>
      <trkpt lat="43.53408" lon="6.12111">
        <ele>411</ele>
        <time>2023-01-18T14:56:48.000Z</time>
      </trkpt>
      <trkpt lat="43.53404" lon="6.12115">
        <ele>409.3</ele>
        <time>2023-01-18T14:56:56.000Z</time>
      </trkpt>
      <trkpt lat="43.534" lon="6.1212">
        <ele>408.1</ele>
        <time>2023-01-18T14:57:01.000Z</time>
      </trkpt>
      <trkpt lat="43.53396" lon="6.12124">
        <ele>407</ele>
        <time>2023-01-18T14:57:05.000Z</time>
      </trkpt>
      <trkpt lat="43.53392" lon="6.12126">
        <ele>406.7</ele>
        <time>2023-01-18T14:57:08.000Z</time>
      </trkpt>
      <trkpt lat="43.53387" lon="6.1213">
        <ele>405.7</ele>
        <time>2023-01-18T14:57:14.000Z</time>
      </trkpt>
      <trkpt lat="43.53383" lon="6.12134">
        <ele>404.7</ele>
        <time>2023-01-18T14:57:19.000Z</time>
      </trkpt>
      <trkpt lat="43.5338" lon="6.12139">
        <ele>404.3</ele>
        <time>2023-01-18T14:57:22.000Z</time>
      </trkpt>
      <trkpt lat="43.53377" lon="6.12144">
        <ele>403.9</ele>
        <time>2023-01-18T14:57:25.000Z</time>
      </trkpt>
      <trkpt lat="43.53372" lon="6.1215">
        <ele>403.6</ele>
        <time>2023-01-18T14:57:28.000Z</time>
      </trkpt>
      <trkpt lat="43.53369" lon="6.12155">
        <ele>402.7</ele>
        <time>2023-01-18T14:57:33.000Z</time>
      </trkpt>
      <trkpt lat="43.53368" lon="6.12161">
        <ele>401.8</ele>
        <time>2023-01-18T14:57:38.000Z</time>
      </trkpt>
      <trkpt lat="43.53369" lon="6.12169">
        <ele>400.8</ele>
        <time>2023-01-18T14:57:43.000Z</time>
      </trkpt>
      <trkpt lat="43.5337" lon="6.12176">
        <ele>400.2</ele>
        <time>2023-01-18T14:57:47.000Z</time>
      </trkpt>
      <trkpt lat="43.53372" lon="6.12183">
        <ele>400</ele>
        <time>2023-01-18T14:57:50.000Z</time>
      </trkpt>
      <trkpt lat="43.53375" lon="6.12189">
        <ele>399.1</ele>
        <time>2023-01-18T14:57:57.000Z</time>
      </trkpt>
      <trkpt lat="43.53379" lon="6.12193">
        <ele>398.9</ele>
        <time>2023-01-18T14:58:01.000Z</time>
      </trkpt>
      <trkpt lat="43.53382" lon="6.12198">
        <ele>398.5</ele>
        <time>2023-01-18T14:58:05.000Z</time>
      </trkpt>
      <trkpt lat="43.53385" lon="6.12203">
        <ele>397.8</ele>
        <time>2023-01-18T14:58:10.000Z</time>
      </trkpt>
      <trkpt lat="43.53388" lon="6.1221">
        <ele>397.6</ele>
        <time>2023-01-18T14:58:13.000Z</time>
      </trkpt>
      <trkpt lat="43.53391" lon="6.12216">
        <ele>397.7</ele>
        <time>2023-01-18T14:58:17.000Z</time>
      </trkpt>
      <trkpt lat="43.53394" lon="6.12222">
        <ele>397.6</ele>
        <time>2023-01-18T14:58:23.000Z</time>
      </trkpt>
      <trkpt lat="43.53396" lon="6.1223">
        <ele>397.5</ele>
        <time>2023-01-18T14:58:27.000Z</time>
      </trkpt>
      <trkpt lat="43.53398" lon="6.12236">
        <ele>397.6</ele>
        <time>2023-01-18T14:58:30.000Z</time>
      </trkpt>
      <trkpt lat="43.534" lon="6.12242">
        <ele>397.3</ele>
        <time>2023-01-18T14:58:34.000Z</time>
      </trkpt>
      <trkpt lat="43.53401" lon="6.12249">
        <ele>396</ele>
        <time>2023-01-18T14:58:41.000Z</time>
      </trkpt>
      <trkpt lat="43.53403" lon="6.12255">
        <ele>395.2</ele>
        <time>2023-01-18T14:58:45.000Z</time>
      </trkpt>
      <trkpt lat="43.53404" lon="6.12262">
        <ele>394.3</ele>
        <time>2023-01-18T14:58:50.000Z</time>
      </trkpt>
      <trkpt lat="43.53404" lon="6.12269">
        <ele>393.7</ele>
        <time>2023-01-18T14:58:56.000Z</time>
      </trkpt>
      <trkpt lat="43.53405" lon="6.12276">
        <ele>392.8</ele>
        <time>2023-01-18T14:59:02.000Z</time>
      </trkpt>
      <trkpt lat="43.53405" lon="6.12283">
        <ele>392.4</ele>
        <time>2023-01-18T14:59:07.000Z</time>
      </trkpt>
      <trkpt lat="43.53405" lon="6.1229">
        <ele>392.2</ele>
        <time>2023-01-18T14:59:10.000Z</time>
      </trkpt>
      <trkpt lat="43.53404" lon="6.12297">
        <ele>391.2</ele>
        <time>2023-01-18T14:59:15.000Z</time>
      </trkpt>
      <trkpt lat="43.53404" lon="6.12303">
        <ele>390</ele>
        <time>2023-01-18T14:59:20.000Z</time>
      </trkpt>
      <trkpt lat="43.53404" lon="6.12309">
        <ele>389.4</ele>
        <time>2023-01-18T14:59:24.000Z</time>
      </trkpt>
      <trkpt lat="43.53404" lon="6.12317">
        <ele>388.8</ele>
        <time>2023-01-18T14:59:28.000Z</time>
      </trkpt>
      <trkpt lat="43.53404" lon="6.12323">
        <ele>387.6</ele>
        <time>2023-01-18T14:59:34.000Z</time>
      </trkpt>
      <trkpt lat="43.53405" lon="6.1233">
        <ele>387.4</ele>
        <time>2023-01-18T14:59:37.000Z</time>
      </trkpt>
      <trkpt lat="43.53405" lon="6.12336">
        <ele>386.9</ele>
        <time>2023-01-18T14:59:43.000Z</time>
      </trkpt>
      <trkpt lat="43.53406" lon="6.12343">
        <ele>386.5</ele>
        <time>2023-01-18T14:59:47.000Z</time>
      </trkpt>
      <trkpt lat="43.53406" lon="6.1235">
        <ele>386.2</ele>
        <time>2023-01-18T14:59:51.000Z</time>
      </trkpt>
      <trkpt lat="43.53405" lon="6.12356">
        <ele>385.3</ele>
        <time>2023-01-18T14:59:57.000Z</time>
      </trkpt>
      <trkpt lat="43.53406" lon="6.12362">
        <ele>384.6</ele>
        <time>2023-01-18T15:00:01.000Z</time>
      </trkpt>
      <trkpt lat="43.53406" lon="6.1237">
        <ele>384.3</ele>
        <time>2023-01-18T15:00:04.000Z</time>
      </trkpt>
      <trkpt lat="43.53406" lon="6.12377">
        <ele>383.8</ele>
        <time>2023-01-18T15:00:07.000Z</time>
      </trkpt>
      <trkpt lat="43.53406" lon="6.12383">
        <ele>383.1</ele>
        <time>2023-01-18T15:00:12.000Z</time>
      </trkpt>
      <trkpt lat="43.53407" lon="6.1239">
        <ele>382.6</ele>
        <time>2023-01-18T15:00:17.000Z</time>
      </trkpt>
      <trkpt lat="43.53409" lon="6.12396">
        <ele>382.6</ele>
        <time>2023-01-18T15:00:20.000Z</time>
      </trkpt>
      <trkpt lat="43.53411" lon="6.12402">
        <ele>382</ele>
        <time>2023-01-18T15:00:25.000Z</time>
      </trkpt>
      <trkpt lat="43.53411" lon="6.12409">
        <ele>381.4</ele>
        <time>2023-01-18T15:00:29.000Z</time>
      </trkpt>
      <trkpt lat="43.53413" lon="6.12416">
        <ele>380.9</ele>
        <time>2023-01-18T15:00:33.000Z</time>
      </trkpt>
      <trkpt lat="43.53414" lon="6.12422">
        <ele>379.5</ele>
        <time>2023-01-18T15:00:39.000Z</time>
      </trkpt>
      <trkpt lat="43.53414" lon="6.12428">
        <ele>379.1</ele>
        <time>2023-01-18T15:00:42.000Z</time>
      </trkpt>
      <trkpt lat="43.53415" lon="6.12435">
        <ele>379</ele>
        <time>2023-01-18T15:00:47.000Z</time>
      </trkpt>
      <trkpt lat="43.53417" lon="6.12443">
        <ele>379.1</ele>
        <time>2023-01-18T15:00:52.000Z</time>
      </trkpt>
      <trkpt lat="43.53418" lon="6.12449">
        <ele>378.9</ele>
        <time>2023-01-18T15:00:56.000Z</time>
      </trkpt>
      <trkpt lat="43.53419" lon="6.12456">
        <ele>378.1</ele>
        <time>2023-01-18T15:01:03.000Z</time>
      </trkpt>
      <trkpt lat="43.53419" lon="6.12463">
        <ele>377.6</ele>
        <time>2023-01-18T15:01:09.000Z</time>
      </trkpt>
      <trkpt lat="43.5342" lon="6.12469">
        <ele>377.2</ele>
        <time>2023-01-18T15:01:14.000Z</time>
      </trkpt>
      <trkpt lat="43.53421" lon="6.12476">
        <ele>377.1</ele>
        <time>2023-01-18T15:01:19.000Z</time>
      </trkpt>
      <trkpt lat="43.53422" lon="6.12482">
        <ele>377.1</ele>
        <time>2023-01-18T15:01:23.000Z</time>
      </trkpt>
      <trkpt lat="43.53423" lon="6.12489">
        <ele>376.9</ele>
        <time>2023-01-18T15:01:27.000Z</time>
      </trkpt>
      <trkpt lat="43.53422" lon="6.12496">
        <ele>376.4</ele>
        <time>2023-01-18T15:01:32.000Z</time>
      </trkpt>
      <trkpt lat="43.53421" lon="6.12502">
        <ele>376.4</ele>
        <time>2023-01-18T15:01:36.000Z</time>
      </trkpt>
      <trkpt lat="43.53418" lon="6.12509">
        <ele>375.9</ele>
        <time>2023-01-18T15:01:41.000Z</time>
      </trkpt>
      <trkpt lat="43.53416" lon="6.12516">
        <ele>375.8</ele>
        <time>2023-01-18T15:01:47.000Z</time>
      </trkpt>
      <trkpt lat="43.53415" lon="6.12522">
        <ele>375.5</ele>
        <time>2023-01-18T15:01:51.000Z</time>
      </trkpt>
      <trkpt lat="43.53414" lon="6.12528">
        <ele>375.2</ele>
        <time>2023-01-18T15:01:56.000Z</time>
      </trkpt>
      <trkpt lat="43.53413" lon="6.12536">
        <ele>375</ele>
        <time>2023-01-18T15:02:02.000Z</time>
      </trkpt>
      <trkpt lat="43.53415" lon="6.12544">
        <ele>375.1</ele>
        <time>2023-01-18T15:02:06.000Z</time>
      </trkpt>
      <trkpt lat="43.53417" lon="6.12551">
        <ele>375.4</ele>
        <time>2023-01-18T15:02:10.000Z</time>
      </trkpt>
      <trkpt lat="43.53418" lon="6.12558">
        <ele>375</ele>
        <time>2023-01-18T15:02:16.000Z</time>
      </trkpt>
      <trkpt lat="43.53422" lon="6.12563">
        <ele>375</ele>
        <time>2023-01-18T15:02:21.000Z</time>
      </trkpt>
      <trkpt lat="43.53425" lon="6.1257">
        <ele>374.5</ele>
        <time>2023-01-18T15:02:25.000Z</time>
      </trkpt>
      <trkpt lat="43.53428" lon="6.12575">
        <ele>374.4</ele>
        <time>2023-01-18T15:02:28.000Z</time>
      </trkpt>
      <trkpt lat="43.53431" lon="6.1258">
        <ele>374.1</ele>
        <time>2023-01-18T15:02:32.000Z</time>
      </trkpt>
      <trkpt lat="43.53434" lon="6.12586">
        <ele>373.3</ele>
        <time>2023-01-18T15:02:38.000Z</time>
      </trkpt>
      <trkpt lat="43.53438" lon="6.12592">
        <ele>373.3</ele>
        <time>2023-01-18T15:02:42.000Z</time>
      </trkpt>
      <trkpt lat="43.53441" lon="6.12598">
        <ele>373.4</ele>
        <time>2023-01-18T15:02:45.000Z</time>
      </trkpt>
      <trkpt lat="43.53445" lon="6.12602">
        <ele>373.6</ele>
        <time>2023-01-18T15:02:48.000Z</time>
      </trkpt>
      <trkpt lat="43.53448" lon="6.12608">
        <ele>373.6</ele>
        <time>2023-01-18T15:02:54.000Z</time>
      </trkpt>
      <trkpt lat="43.53452" lon="6.12614">
        <ele>373.8</ele>
        <time>2023-01-18T15:02:58.000Z</time>
      </trkpt>
      <trkpt lat="43.53455" lon="6.12619">
        <ele>374</ele>
        <time>2023-01-18T15:03:01.000Z</time>
      </trkpt>
      <trkpt lat="43.53457" lon="6.12625">
        <ele>373.9</ele>
        <time>2023-01-18T15:03:06.000Z</time>
      </trkpt>
      <trkpt lat="43.53458" lon="6.12633">
        <ele>374</ele>
        <time>2023-01-18T15:03:11.000Z</time>
      </trkpt>
      <trkpt lat="43.53459" lon="6.12641">
        <ele>373.9</ele>
        <time>2023-01-18T15:03:15.000Z</time>
      </trkpt>
      <trkpt lat="43.53461" lon="6.12647">
        <ele>374</ele>
        <time>2023-01-18T15:03:18.000Z</time>
      </trkpt>
      <trkpt lat="43.53462" lon="6.12654">
        <ele>373.6</ele>
        <time>2023-01-18T15:03:24.000Z</time>
      </trkpt>
      <trkpt lat="43.53466" lon="6.1266">
        <ele>373.3</ele>
        <time>2023-01-18T15:03:28.000Z</time>
      </trkpt>
      <trkpt lat="43.53469" lon="6.12665">
        <ele>373.2</ele>
        <time>2023-01-18T15:03:31.000Z</time>
      </trkpt>
      <trkpt lat="43.53471" lon="6.12671">
        <ele>372.9</ele>
        <time>2023-01-18T15:03:36.000Z</time>
      </trkpt>
      <trkpt lat="43.53473" lon="6.12677">
        <ele>372.5</ele>
        <time>2023-01-18T15:03:41.000Z</time>
      </trkpt>
      <trkpt lat="43.53468" lon="6.1268">
        <ele>372.5</ele>
        <time>2023-01-18T15:03:52.000Z</time>
      </trkpt>
      <trkpt lat="43.53464" lon="6.12684">
        <ele>372</ele>
        <time>2023-01-18T15:03:58.000Z</time>
      </trkpt>
      <trkpt lat="43.53459" lon="6.12687">
        <ele>371.7</ele>
        <time>2023-01-18T15:04:05.000Z</time>
      </trkpt>
      <trkpt lat="43.53454" lon="6.1269">
        <ele>372</ele>
        <time>2023-01-18T15:04:10.000Z</time>
      </trkpt>
      <trkpt lat="43.5345" lon="6.12693">
        <ele>372.1</ele>
        <time>2023-01-18T15:04:17.000Z</time>
      </trkpt>
      <trkpt lat="43.53446" lon="6.12697">
        <ele>371.4</ele>
        <time>2023-01-18T15:04:22.000Z</time>
      </trkpt>
      <trkpt lat="43.53441" lon="6.127">
        <ele>370.9</ele>
        <time>2023-01-18T15:04:27.000Z</time>
      </trkpt>
      <trkpt lat="43.53437" lon="6.12703">
        <ele>370.5</ele>
        <time>2023-01-18T15:04:33.000Z</time>
      </trkpt>
      <trkpt lat="43.53432" lon="6.12705">
        <ele>370.5</ele>
        <time>2023-01-18T15:04:37.000Z</time>
      </trkpt>
      <trkpt lat="43.53428" lon="6.12708">
        <ele>370.4</ele>
        <time>2023-01-18T15:04:42.000Z</time>
      </trkpt>
      <trkpt lat="43.53423" lon="6.1271">
        <ele>370.5</ele>
        <time>2023-01-18T15:04:46.000Z</time>
      </trkpt>
      <trkpt lat="43.53418" lon="6.12713">
        <ele>370.4</ele>
        <time>2023-01-18T15:04:51.000Z</time>
      </trkpt>
      <trkpt lat="43.53413" lon="6.12716">
        <ele>370.3</ele>
        <time>2023-01-18T15:04:56.000Z</time>
      </trkpt>
      <trkpt lat="43.53408" lon="6.12719">
        <ele>370.1</ele>
        <time>2023-01-18T15:05:00.000Z</time>
      </trkpt>
      <trkpt lat="43.53403" lon="6.12721">
        <ele>370.2</ele>
        <time>2023-01-18T15:05:05.000Z</time>
      </trkpt>
      <trkpt lat="43.53399" lon="6.12723">
        <ele>370.6</ele>
        <time>2023-01-18T15:05:09.000Z</time>
      </trkpt>
      <trkpt lat="43.53394" lon="6.12727">
        <ele>370</ele>
        <time>2023-01-18T15:05:15.000Z</time>
      </trkpt>
      <trkpt lat="43.5339" lon="6.12731">
        <ele>370.3</ele>
        <time>2023-01-18T15:05:19.000Z</time>
      </trkpt>
      <trkpt lat="43.53386" lon="6.12736">
        <ele>370</ele>
        <time>2023-01-18T15:05:25.000Z</time>
      </trkpt>
      <trkpt lat="43.53383" lon="6.12741">
        <ele>369.7</ele>
        <time>2023-01-18T15:05:30.000Z</time>
      </trkpt>
      <trkpt lat="43.5338" lon="6.12747">
        <ele>369.6</ele>
        <time>2023-01-18T15:05:34.000Z</time>
      </trkpt>
      <trkpt lat="43.53377" lon="6.12752">
        <ele>369.4</ele>
        <time>2023-01-18T15:05:39.000Z</time>
      </trkpt>
      <trkpt lat="43.53373" lon="6.12759">
        <ele>369.2</ele>
        <time>2023-01-18T15:05:43.000Z</time>
      </trkpt>
      <trkpt lat="43.53372" lon="6.12766">
        <ele>368.5</ele>
        <time>2023-01-18T15:05:49.000Z</time>
      </trkpt>
      <trkpt lat="43.53369" lon="6.12772">
        <ele>368.4</ele>
        <time>2023-01-18T15:05:53.000Z</time>
      </trkpt>
      <trkpt lat="43.53366" lon="6.12777">
        <ele>368.1</ele>
        <time>2023-01-18T15:05:58.000Z</time>
      </trkpt>
      <trkpt lat="43.53364" lon="6.12783">
        <ele>368.1</ele>
        <time>2023-01-18T15:06:02.000Z</time>
      </trkpt>
      <trkpt lat="43.53362" lon="6.12788">
        <ele>368.1</ele>
        <time>2023-01-18T15:06:07.000Z</time>
      </trkpt>
      <trkpt lat="43.53357" lon="6.12794">
        <ele>368.3</ele>
        <time>2023-01-18T15:06:11.000Z</time>
      </trkpt>
      <trkpt lat="43.53353" lon="6.12798">
        <ele>367.9</ele>
        <time>2023-01-18T15:06:16.000Z</time>
      </trkpt>
      <trkpt lat="43.5335" lon="6.12802">
        <ele>367.8</ele>
        <time>2023-01-18T15:06:20.000Z</time>
      </trkpt>
      <trkpt lat="43.53346" lon="6.12808">
        <ele>367.7</ele>
        <time>2023-01-18T15:06:24.000Z</time>
      </trkpt>
      <trkpt lat="43.53342" lon="6.12812">
        <ele>367.5</ele>
        <time>2023-01-18T15:06:29.000Z</time>
      </trkpt>
      <trkpt lat="43.53338" lon="6.12816">
        <ele>367.9</ele>
        <time>2023-01-18T15:06:32.000Z</time>
      </trkpt>
      <trkpt lat="43.53334" lon="6.1282">
        <ele>368</ele>
        <time>2023-01-18T15:06:35.000Z</time>
      </trkpt>
      <trkpt lat="43.53329" lon="6.12824">
        <ele>367.6</ele>
        <time>2023-01-18T15:06:41.000Z</time>
      </trkpt>
      <trkpt lat="43.53325" lon="6.12827">
        <ele>367.6</ele>
        <time>2023-01-18T15:06:44.000Z</time>
      </trkpt>
      <trkpt lat="43.53322" lon="6.12831">
        <ele>367.4</ele>
        <time>2023-01-18T15:06:48.000Z</time>
      </trkpt>
      <trkpt lat="43.53317" lon="6.12835">
        <ele>367.4</ele>
        <time>2023-01-18T15:06:54.000Z</time>
      </trkpt>
      <trkpt lat="43.53313" lon="6.12841">
        <ele>367.4</ele>
        <time>2023-01-18T15:06:58.000Z</time>
      </trkpt>
      <trkpt lat="43.53308" lon="6.12843">
        <ele>367.2</ele>
        <time>2023-01-18T15:07:04.000Z</time>
      </trkpt>
      <trkpt lat="43.53304" lon="6.12848">
        <ele>367.1</ele>
        <time>2023-01-18T15:07:09.000Z</time>
      </trkpt>
      <trkpt lat="43.53301" lon="6.12854">
        <ele>367.1</ele>
        <time>2023-01-18T15:07:15.000Z</time>
      </trkpt>
      <trkpt lat="43.53297" lon="6.12858">
        <ele>367.2</ele>
        <time>2023-01-18T15:07:21.000Z</time>
      </trkpt>
      <trkpt lat="43.53293" lon="6.12862">
        <ele>366.9</ele>
        <time>2023-01-18T15:07:25.000Z</time>
      </trkpt>
      <trkpt lat="43.53289" lon="6.12867">
        <ele>367</ele>
        <time>2023-01-18T15:07:29.000Z</time>
      </trkpt>
      <trkpt lat="43.53285" lon="6.12871">
        <ele>367.1</ele>
        <time>2023-01-18T15:07:33.000Z</time>
      </trkpt>
      <trkpt lat="43.53282" lon="6.12876">
        <ele>366.7</ele>
        <time>2023-01-18T15:07:38.000Z</time>
      </trkpt>
      <trkpt lat="43.53278" lon="6.12882">
        <ele>366.8</ele>
        <time>2023-01-18T15:07:43.000Z</time>
      </trkpt>
      <trkpt lat="43.53274" lon="6.12886">
        <ele>366.8</ele>
        <time>2023-01-18T15:07:47.000Z</time>
      </trkpt>
      <trkpt lat="43.5327" lon="6.12891">
        <ele>366.2</ele>
        <time>2023-01-18T15:07:53.000Z</time>
      </trkpt>
      <trkpt lat="43.53266" lon="6.12895">
        <ele>366.3</ele>
        <time>2023-01-18T15:07:56.000Z</time>
      </trkpt>
      <trkpt lat="43.53262" lon="6.129">
        <ele>366.3</ele>
        <time>2023-01-18T15:08:01.000Z</time>
      </trkpt>
      <trkpt lat="43.53258" lon="6.12903">
        <ele>366.5</ele>
        <time>2023-01-18T15:08:04.000Z</time>
      </trkpt>
      <trkpt lat="43.53254" lon="6.12907">
        <ele>366.7</ele>
        <time>2023-01-18T15:08:08.000Z</time>
      </trkpt>
      <trkpt lat="43.5325" lon="6.12912">
        <ele>366.3</ele>
        <time>2023-01-18T15:08:13.000Z</time>
      </trkpt>
      <trkpt lat="43.53247" lon="6.12917">
        <ele>366.2</ele>
        <time>2023-01-18T15:08:16.000Z</time>
      </trkpt>
      <trkpt lat="43.53243" lon="6.12922">
        <ele>366.1</ele>
        <time>2023-01-18T15:08:21.000Z</time>
      </trkpt>
      <trkpt lat="43.5324" lon="6.12928">
        <ele>366.5</ele>
        <time>2023-01-18T15:08:26.000Z</time>
      </trkpt>
      <trkpt lat="43.53237" lon="6.12934">
        <ele>366.2</ele>
        <time>2023-01-18T15:08:32.000Z</time>
      </trkpt>
      <trkpt lat="43.53235" lon="6.12941">
        <ele>365.8</ele>
        <time>2023-01-18T15:08:37.000Z</time>
      </trkpt>
      <trkpt lat="43.53232" lon="6.12947">
        <ele>365.8</ele>
        <time>2023-01-18T15:08:42.000Z</time>
      </trkpt>
      <trkpt lat="43.53229" lon="6.12952">
        <ele>365.7</ele>
        <time>2023-01-18T15:08:46.000Z</time>
      </trkpt>
      <trkpt lat="43.53224" lon="6.12956">
        <ele>365.9</ele>
        <time>2023-01-18T15:08:50.000Z</time>
      </trkpt>
      <trkpt lat="43.5322" lon="6.12961">
        <ele>365.4</ele>
        <time>2023-01-18T15:08:55.000Z</time>
      </trkpt>
      <trkpt lat="43.53216" lon="6.12964">
        <ele>365.3</ele>
        <time>2023-01-18T15:08:58.000Z</time>
      </trkpt>
      <trkpt lat="43.53212" lon="6.12968">
        <ele>365.8</ele>
        <time>2023-01-18T15:09:03.000Z</time>
      </trkpt>
      <trkpt lat="43.53208" lon="6.12971">
        <ele>366.5</ele>
        <time>2023-01-18T15:09:07.000Z</time>
      </trkpt>
      <trkpt lat="43.53204" lon="6.12974">
        <ele>366.8</ele>
        <time>2023-01-18T15:09:11.000Z</time>
      </trkpt>
      <trkpt lat="43.532" lon="6.1298">
        <ele>366.5</ele>
        <time>2023-01-18T15:09:16.000Z</time>
      </trkpt>
      <trkpt lat="43.53196" lon="6.12983">
        <ele>366.6</ele>
        <time>2023-01-18T15:09:19.000Z</time>
      </trkpt>
      <trkpt lat="43.53192" lon="6.12987">
        <ele>366.3</ele>
        <time>2023-01-18T15:09:24.000Z</time>
      </trkpt>
      <trkpt lat="43.53187" lon="6.12991">
        <ele>366.2</ele>
        <time>2023-01-18T15:09:28.000Z</time>
      </trkpt>
      <trkpt lat="43.53183" lon="6.12996">
        <ele>366.1</ele>
        <time>2023-01-18T15:09:31.000Z</time>
      </trkpt>
      <trkpt lat="43.53179" lon="6.12999">
        <ele>365.7</ele>
        <time>2023-01-18T15:09:35.000Z</time>
      </trkpt>
      <trkpt lat="43.53176" lon="6.13003">
        <ele>365.5</ele>
        <time>2023-01-18T15:09:39.000Z</time>
      </trkpt>
      <trkpt lat="43.53171" lon="6.13006">
        <ele>366.2</ele>
        <time>2023-01-18T15:09:44.000Z</time>
      </trkpt>
      <trkpt lat="43.53166" lon="6.13009">
        <ele>366.6</ele>
        <time>2023-01-18T15:09:48.000Z</time>
      </trkpt>
      <trkpt lat="43.53162" lon="6.13013">
        <ele>366.8</ele>
        <time>2023-01-18T15:09:54.000Z</time>
      </trkpt>
      <trkpt lat="43.53158" lon="6.13016">
        <ele>367</ele>
        <time>2023-01-18T15:09:59.000Z</time>
      </trkpt>
      <trkpt lat="43.53154" lon="6.13021">
        <ele>366.8</ele>
        <time>2023-01-18T15:10:03.000Z</time>
      </trkpt>
      <trkpt lat="43.5315" lon="6.13024">
        <ele>366.8</ele>
        <time>2023-01-18T15:10:07.000Z</time>
      </trkpt>
      <trkpt lat="43.53145" lon="6.13028">
        <ele>367.4</ele>
        <time>2023-01-18T15:10:12.000Z</time>
      </trkpt>
      <trkpt lat="43.5314" lon="6.13031">
        <ele>367.5</ele>
        <time>2023-01-18T15:10:18.000Z</time>
      </trkpt>
      <trkpt lat="43.53136" lon="6.13033">
        <ele>368</ele>
        <time>2023-01-18T15:10:21.000Z</time>
      </trkpt>
      <trkpt lat="43.53132" lon="6.13037">
        <ele>368.1</ele>
        <time>2023-01-18T15:10:26.000Z</time>
      </trkpt>
      <trkpt lat="43.53128" lon="6.13041">
        <ele>369.3</ele>
        <time>2023-01-18T15:10:30.000Z</time>
      </trkpt>
      <trkpt lat="43.53125" lon="6.13044">
        <ele>369.1</ele>
        <time>2023-01-18T15:10:33.000Z</time>
      </trkpt>
      <trkpt lat="43.53121" lon="6.1305">
        <ele>368.6</ele>
        <time>2023-01-18T15:10:38.000Z</time>
      </trkpt>
      <trkpt lat="43.53117" lon="6.13055">
        <ele>369</ele>
        <time>2023-01-18T15:10:41.000Z</time>
      </trkpt>
      <trkpt lat="43.53114" lon="6.1306">
        <ele>369.1</ele>
        <time>2023-01-18T15:10:46.000Z</time>
      </trkpt>
      <trkpt lat="43.53111" lon="6.13066">
        <ele>369.4</ele>
        <time>2023-01-18T15:10:51.000Z</time>
      </trkpt>
      <trkpt lat="43.53107" lon="6.13071">
        <ele>369.5</ele>
        <time>2023-01-18T15:10:55.000Z</time>
      </trkpt>
      <trkpt lat="43.53104" lon="6.13076">
        <ele>369.7</ele>
        <time>2023-01-18T15:11:00.000Z</time>
      </trkpt>
      <trkpt lat="43.53101" lon="6.13081">
        <ele>369.4</ele>
        <time>2023-01-18T15:11:06.000Z</time>
      </trkpt>
      <trkpt lat="43.53098" lon="6.13086">
        <ele>369.7</ele>
        <time>2023-01-18T15:11:10.000Z</time>
      </trkpt>
      <trkpt lat="43.53094" lon="6.13091">
        <ele>369.9</ele>
        <time>2023-01-18T15:11:15.000Z</time>
      </trkpt>
      <trkpt lat="43.53091" lon="6.13096">
        <ele>370.4</ele>
        <time>2023-01-18T15:11:18.000Z</time>
      </trkpt>
      <trkpt lat="43.53087" lon="6.13101">
        <ele>370.6</ele>
        <time>2023-01-18T15:11:23.000Z</time>
      </trkpt>
      <trkpt lat="43.53083" lon="6.13106">
        <ele>370.6</ele>
        <time>2023-01-18T15:11:26.000Z</time>
      </trkpt>
      <trkpt lat="43.5308" lon="6.13111">
        <ele>370.2</ele>
        <time>2023-01-18T15:11:32.000Z</time>
      </trkpt>
      <trkpt lat="43.53075" lon="6.13116">
        <ele>370.7</ele>
        <time>2023-01-18T15:11:38.000Z</time>
      </trkpt>
      <trkpt lat="43.53071" lon="6.13121">
        <ele>370.9</ele>
        <time>2023-01-18T15:11:43.000Z</time>
      </trkpt>
      <trkpt lat="43.53069" lon="6.13128">
        <ele>370.9</ele>
        <time>2023-01-18T15:11:47.000Z</time>
      </trkpt>
      <trkpt lat="43.53067" lon="6.13133">
        <ele>371</ele>
        <time>2023-01-18T15:11:52.000Z</time>
      </trkpt>
      <trkpt lat="43.53066" lon="6.1314">
        <ele>371</ele>
        <time>2023-01-18T15:11:56.000Z</time>
      </trkpt>
      <trkpt lat="43.53063" lon="6.13145">
        <ele>370.9</ele>
        <time>2023-01-18T15:12:01.000Z</time>
      </trkpt>
      <trkpt lat="43.53061" lon="6.13153">
        <ele>370.8</ele>
        <time>2023-01-18T15:12:05.000Z</time>
      </trkpt>
      <trkpt lat="43.53059" lon="6.13158">
        <ele>370.4</ele>
        <time>2023-01-18T15:12:10.000Z</time>
      </trkpt>
      <trkpt lat="43.53055" lon="6.13163">
        <ele>370.4</ele>
        <time>2023-01-18T15:12:15.000Z</time>
      </trkpt>
      <trkpt lat="43.53053" lon="6.1317">
        <ele>370.2</ele>
        <time>2023-01-18T15:12:20.000Z</time>
      </trkpt>
      <trkpt lat="43.5305" lon="6.13175">
        <ele>370.3</ele>
        <time>2023-01-18T15:12:24.000Z</time>
      </trkpt>
      <trkpt lat="43.53048" lon="6.13183">
        <ele>370</ele>
        <time>2023-01-18T15:12:31.000Z</time>
      </trkpt>
      <trkpt lat="43.53045" lon="6.13188">
        <ele>369.8</ele>
        <time>2023-01-18T15:12:36.000Z</time>
      </trkpt>
      <trkpt lat="43.53041" lon="6.13191">
        <ele>369.7</ele>
        <time>2023-01-18T15:12:41.000Z</time>
      </trkpt>
      <trkpt lat="43.53038" lon="6.13198">
        <ele>369.5</ele>
        <time>2023-01-18T15:12:46.000Z</time>
      </trkpt>
      <trkpt lat="43.53034" lon="6.13204">
        <ele>369.7</ele>
        <time>2023-01-18T15:12:52.000Z</time>
      </trkpt>
      <trkpt lat="43.53031" lon="6.13209">
        <ele>369.6</ele>
        <time>2023-01-18T15:12:56.000Z</time>
      </trkpt>
      <trkpt lat="43.53027" lon="6.13213">
        <ele>369.3</ele>
        <time>2023-01-18T15:13:01.000Z</time>
      </trkpt>
      <trkpt lat="43.53022" lon="6.13217">
        <ele>369.3</ele>
        <time>2023-01-18T15:13:04.000Z</time>
      </trkpt>
      <trkpt lat="43.53017" lon="6.13219">
        <ele>369</ele>
        <time>2023-01-18T15:13:09.000Z</time>
      </trkpt>
      <trkpt lat="43.53013" lon="6.13222">
        <ele>368.8</ele>
        <time>2023-01-18T15:13:13.000Z</time>
      </trkpt>
      <trkpt lat="43.53008" lon="6.13225">
        <ele>369</ele>
        <time>2023-01-18T15:13:19.000Z</time>
      </trkpt>
      <trkpt lat="43.53004" lon="6.13226">
        <ele>369.2</ele>
        <time>2023-01-18T15:13:23.000Z</time>
      </trkpt>
      <trkpt lat="43.53" lon="6.1323">
        <ele>369.3</ele>
        <time>2023-01-18T15:13:28.000Z</time>
      </trkpt>
      <trkpt lat="43.52995" lon="6.13232">
        <ele>369.4</ele>
        <time>2023-01-18T15:13:31.000Z</time>
      </trkpt>
      <trkpt lat="43.5299" lon="6.13236">
        <ele>369.1</ele>
        <time>2023-01-18T15:13:37.000Z</time>
      </trkpt>
      <trkpt lat="43.52985" lon="6.13238">
        <ele>368.9</ele>
        <time>2023-01-18T15:13:40.000Z</time>
      </trkpt>
      <trkpt lat="43.5298" lon="6.13242">
        <ele>368.5</ele>
        <time>2023-01-18T15:13:46.000Z</time>
      </trkpt>
      <trkpt lat="43.52976" lon="6.13245">
        <ele>368.2</ele>
        <time>2023-01-18T15:13:50.000Z</time>
      </trkpt>
      <trkpt lat="43.52971" lon="6.13248">
        <ele>368.4</ele>
        <time>2023-01-18T15:13:54.000Z</time>
      </trkpt>
      <trkpt lat="43.52968" lon="6.13252">
        <ele>368.4</ele>
        <time>2023-01-18T15:13:59.000Z</time>
      </trkpt>
      <trkpt lat="43.52962" lon="6.13256">
        <ele>368.9</ele>
        <time>2023-01-18T15:14:03.000Z</time>
      </trkpt>
      <trkpt lat="43.52958" lon="6.13259">
        <ele>368.3</ele>
        <time>2023-01-18T15:14:09.000Z</time>
      </trkpt>
      <trkpt lat="43.52953" lon="6.13262">
        <ele>368.1</ele>
        <time>2023-01-18T15:14:13.000Z</time>
      </trkpt>
      <trkpt lat="43.52949" lon="6.13265">
        <ele>368</ele>
        <time>2023-01-18T15:14:16.000Z</time>
      </trkpt>
      <trkpt lat="43.52944" lon="6.13269">
        <ele>367.8</ele>
        <time>2023-01-18T15:14:22.000Z</time>
      </trkpt>
      <trkpt lat="43.5294" lon="6.13272">
        <ele>368.1</ele>
        <time>2023-01-18T15:14:25.000Z</time>
      </trkpt>
      <trkpt lat="43.52935" lon="6.13275">
        <ele>368.3</ele>
        <time>2023-01-18T15:14:30.000Z</time>
      </trkpt>
      <trkpt lat="43.52931" lon="6.13279">
        <ele>368.4</ele>
        <time>2023-01-18T15:14:34.000Z</time>
      </trkpt>
      <trkpt lat="43.52927" lon="6.13281">
        <ele>368.5</ele>
        <time>2023-01-18T15:14:39.000Z</time>
      </trkpt>
      <trkpt lat="43.52921" lon="6.13286">
        <ele>368.4</ele>
        <time>2023-01-18T15:14:43.000Z</time>
      </trkpt>
      <trkpt lat="43.52917" lon="6.13289">
        <ele>368.7</ele>
        <time>2023-01-18T15:14:48.000Z</time>
      </trkpt>
      <trkpt lat="43.52912" lon="6.13292">
        <ele>369.1</ele>
        <time>2023-01-18T15:14:53.000Z</time>
      </trkpt>
      <trkpt lat="43.52907" lon="6.13295">
        <ele>369.4</ele>
        <time>2023-01-18T15:14:56.000Z</time>
      </trkpt>
      <trkpt lat="43.52903" lon="6.13298">
        <ele>369.2</ele>
        <time>2023-01-18T15:15:01.000Z</time>
      </trkpt>
      <trkpt lat="43.52898" lon="6.13301">
        <ele>369.1</ele>
        <time>2023-01-18T15:15:04.000Z</time>
      </trkpt>
      <trkpt lat="43.52893" lon="6.13303">
        <ele>369</ele>
        <time>2023-01-18T15:15:08.000Z</time>
      </trkpt>
      <trkpt lat="43.52889" lon="6.13306">
        <ele>368.9</ele>
        <time>2023-01-18T15:15:13.000Z</time>
      </trkpt>
      <trkpt lat="43.52884" lon="6.13307">
        <ele>369.1</ele>
        <time>2023-01-18T15:15:18.000Z</time>
      </trkpt>
      <trkpt lat="43.52879" lon="6.1331">
        <ele>368.9</ele>
        <time>2023-01-18T15:15:22.000Z</time>
      </trkpt>
      <trkpt lat="43.52875" lon="6.13313">
        <ele>368.7</ele>
        <time>2023-01-18T15:15:27.000Z</time>
      </trkpt>
      <trkpt lat="43.52871" lon="6.13316">
        <ele>368.9</ele>
        <time>2023-01-18T15:15:31.000Z</time>
      </trkpt>
      <trkpt lat="43.52867" lon="6.1332">
        <ele>369.4</ele>
        <time>2023-01-18T15:15:37.000Z</time>
      </trkpt>
      <trkpt lat="43.52863" lon="6.13323">
        <ele>369.9</ele>
        <time>2023-01-18T15:15:41.000Z</time>
      </trkpt>
      <trkpt lat="43.52858" lon="6.13328">
        <ele>370</ele>
        <time>2023-01-18T15:15:46.000Z</time>
      </trkpt>
      <trkpt lat="43.52855" lon="6.13331">
        <ele>369.8</ele>
        <time>2023-01-18T15:15:51.000Z</time>
      </trkpt>
      <trkpt lat="43.5285" lon="6.13335">
        <ele>370.3</ele>
        <time>2023-01-18T15:15:55.000Z</time>
      </trkpt>
      <trkpt lat="43.52846" lon="6.13337">
        <ele>371.3</ele>
        <time>2023-01-18T15:16:00.000Z</time>
      </trkpt>
      <trkpt lat="43.52841" lon="6.13339">
        <ele>372.1</ele>
        <time>2023-01-18T15:16:05.000Z</time>
      </trkpt>
      <trkpt lat="43.52837" lon="6.13341">
        <ele>372.2</ele>
        <time>2023-01-18T15:16:08.000Z</time>
      </trkpt>
      <trkpt lat="43.52832" lon="6.13344">
        <ele>371.8</ele>
        <time>2023-01-18T15:16:14.000Z</time>
      </trkpt>
      <trkpt lat="43.52827" lon="6.13346">
        <ele>372.1</ele>
        <time>2023-01-18T15:16:17.000Z</time>
      </trkpt>
      <trkpt lat="43.52822" lon="6.13349">
        <ele>372.6</ele>
        <time>2023-01-18T15:16:24.000Z</time>
      </trkpt>
      <trkpt lat="43.52817" lon="6.1335">
        <ele>372.2</ele>
        <time>2023-01-18T15:16:30.000Z</time>
      </trkpt>
      <trkpt lat="43.52812" lon="6.13353">
        <ele>372.5</ele>
        <time>2023-01-18T15:16:34.000Z</time>
      </trkpt>
      <trkpt lat="43.52807" lon="6.13355">
        <ele>372.7</ele>
        <time>2023-01-18T15:16:39.000Z</time>
      </trkpt>
      <trkpt lat="43.52803" lon="6.13357">
        <ele>373.2</ele>
        <time>2023-01-18T15:16:42.000Z</time>
      </trkpt>
      <trkpt lat="43.52798" lon="6.13359">
        <ele>373</ele>
        <time>2023-01-18T15:16:47.000Z</time>
      </trkpt>
      <trkpt lat="43.52794" lon="6.13362">
        <ele>373</ele>
        <time>2023-01-18T15:16:50.000Z</time>
      </trkpt>
      <trkpt lat="43.52788" lon="6.13365">
        <ele>373.1</ele>
        <time>2023-01-18T15:16:56.000Z</time>
      </trkpt>
      <trkpt lat="43.52784" lon="6.13368">
        <ele>373.4</ele>
        <time>2023-01-18T15:16:59.000Z</time>
      </trkpt>
      <trkpt lat="43.5278" lon="6.1337">
        <ele>373.8</ele>
        <time>2023-01-18T15:17:04.000Z</time>
      </trkpt>
      <trkpt lat="43.52774" lon="6.13374">
        <ele>374.2</ele>
        <time>2023-01-18T15:17:08.000Z</time>
      </trkpt>
      <trkpt lat="43.52769" lon="6.13376">
        <ele>374.3</ele>
        <time>2023-01-18T15:17:13.000Z</time>
      </trkpt>
      <trkpt lat="43.52765" lon="6.1338">
        <ele>374.2</ele>
        <time>2023-01-18T15:17:18.000Z</time>
      </trkpt>
      <trkpt lat="43.52761" lon="6.13384">
        <ele>374</ele>
        <time>2023-01-18T15:17:22.000Z</time>
      </trkpt>
      <trkpt lat="43.52757" lon="6.13388">
        <ele>373.3</ele>
        <time>2023-01-18T15:17:28.000Z</time>
      </trkpt>
      <trkpt lat="43.52753" lon="6.13394">
        <ele>372.9</ele>
        <time>2023-01-18T15:17:32.000Z</time>
      </trkpt>
      <trkpt lat="43.52748" lon="6.13399">
        <ele>372.7</ele>
        <time>2023-01-18T15:17:36.000Z</time>
      </trkpt>
      <trkpt lat="43.52744" lon="6.13405">
        <ele>372</ele>
        <time>2023-01-18T15:17:42.000Z</time>
      </trkpt>
      <trkpt lat="43.52741" lon="6.1341">
        <ele>372.5</ele>
        <time>2023-01-18T15:17:46.000Z</time>
      </trkpt>
      <trkpt lat="43.52738" lon="6.13416">
        <ele>372.7</ele>
        <time>2023-01-18T15:17:49.000Z</time>
      </trkpt>
      <trkpt lat="43.52736" lon="6.13423">
        <ele>372.2</ele>
        <time>2023-01-18T15:17:55.000Z</time>
      </trkpt>
      <trkpt lat="43.52735" lon="6.13429">
        <ele>371.8</ele>
        <time>2023-01-18T15:17:59.000Z</time>
      </trkpt>
      <trkpt lat="43.52733" lon="6.13436">
        <ele>370.8</ele>
        <time>2023-01-18T15:18:05.000Z</time>
      </trkpt>
      <trkpt lat="43.52731" lon="6.13442">
        <ele>370.3</ele>
        <time>2023-01-18T15:18:09.000Z</time>
      </trkpt>
      <trkpt lat="43.52729" lon="6.13448">
        <ele>370.3</ele>
        <time>2023-01-18T15:18:15.000Z</time>
      </trkpt>
      <trkpt lat="43.52727" lon="6.13455">
        <ele>369.9</ele>
        <time>2023-01-18T15:18:20.000Z</time>
      </trkpt>
      <trkpt lat="43.52726" lon="6.13462">
        <ele>369.3</ele>
        <time>2023-01-18T15:18:25.000Z</time>
      </trkpt>
      <trkpt lat="43.52724" lon="6.13468">
        <ele>368.7</ele>
        <time>2023-01-18T15:18:37.000Z</time>
      </trkpt>
      <trkpt lat="43.52723" lon="6.13475">
        <ele>368.5</ele>
        <time>2023-01-18T15:18:42.000Z</time>
      </trkpt>
      <trkpt lat="43.52721" lon="6.13481">
        <ele>368.4</ele>
        <time>2023-01-18T15:18:46.000Z</time>
      </trkpt>
      <trkpt lat="43.5272" lon="6.13488">
        <ele>366.7</ele>
        <time>2023-01-18T15:18:52.000Z</time>
      </trkpt>
      <trkpt lat="43.52718" lon="6.13497">
        <ele>366</ele>
        <time>2023-01-18T15:18:56.000Z</time>
      </trkpt>
      <trkpt lat="43.52716" lon="6.13502">
        <ele>365.8</ele>
        <time>2023-01-18T15:19:00.000Z</time>
      </trkpt>
      <trkpt lat="43.52712" lon="6.1351">
        <ele>366.1</ele>
        <time>2023-01-18T15:19:05.000Z</time>
      </trkpt>
      <trkpt lat="43.52709" lon="6.13515">
        <ele>366.3</ele>
        <time>2023-01-18T15:19:08.000Z</time>
      </trkpt>
      <trkpt lat="43.52705" lon="6.1352">
        <ele>365.7</ele>
        <time>2023-01-18T15:19:15.000Z</time>
      </trkpt>
      <trkpt lat="43.527" lon="6.13522">
        <ele>365.5</ele>
        <time>2023-01-18T15:19:18.000Z</time>
      </trkpt>
      <trkpt lat="43.52696" lon="6.13526">
        <ele>364.2</ele>
        <time>2023-01-18T15:19:24.000Z</time>
      </trkpt>
      <trkpt lat="43.52692" lon="6.1353">
        <ele>363.4</ele>
        <time>2023-01-18T15:19:30.000Z</time>
      </trkpt>
      <trkpt lat="43.5269" lon="6.13537">
        <ele>362.5</ele>
        <time>2023-01-18T15:19:36.000Z</time>
      </trkpt>
      <trkpt lat="43.52688" lon="6.13544">
        <ele>361.9</ele>
        <time>2023-01-18T15:19:40.000Z</time>
      </trkpt>
      <trkpt lat="43.52685" lon="6.1355">
        <ele>361.9</ele>
        <time>2023-01-18T15:19:43.000Z</time>
      </trkpt>
      <trkpt lat="43.52681" lon="6.13555">
        <ele>361.6</ele>
        <time>2023-01-18T15:19:48.000Z</time>
      </trkpt>
      <trkpt lat="43.52678" lon="6.13561">
        <ele>361.7</ele>
        <time>2023-01-18T15:19:52.000Z</time>
      </trkpt>
      <trkpt lat="43.52674" lon="6.13567">
        <ele>361.5</ele>
        <time>2023-01-18T15:19:56.000Z</time>
      </trkpt>
      <trkpt lat="43.5267" lon="6.13571">
        <ele>361</ele>
        <time>2023-01-18T15:20:02.000Z</time>
      </trkpt>
      <trkpt lat="43.52666" lon="6.13576">
        <ele>360.7</ele>
        <time>2023-01-18T15:20:06.000Z</time>
      </trkpt>
      <trkpt lat="43.52662" lon="6.13581">
        <ele>359.8</ele>
        <time>2023-01-18T15:20:11.000Z</time>
      </trkpt>
      <trkpt lat="43.52658" lon="6.13585">
        <ele>359.4</ele>
        <time>2023-01-18T15:20:15.000Z</time>
      </trkpt>
      <trkpt lat="43.52655" lon="6.1359">
        <ele>359.2</ele>
        <time>2023-01-18T15:20:18.000Z</time>
      </trkpt>
      <trkpt lat="43.5265" lon="6.13594">
        <ele>358.9</ele>
        <time>2023-01-18T15:20:23.000Z</time>
      </trkpt>
      <trkpt lat="43.52646" lon="6.13597">
        <ele>359.4</ele>
        <time>2023-01-18T15:20:27.000Z</time>
      </trkpt>
      <trkpt lat="43.52642" lon="6.13601">
        <ele>359.7</ele>
        <time>2023-01-18T15:20:32.000Z</time>
      </trkpt>
      <trkpt lat="43.52638" lon="6.13605">
        <ele>360.5</ele>
        <time>2023-01-18T15:20:38.000Z</time>
      </trkpt>
      <trkpt lat="43.52635" lon="6.1361">
        <ele>359.6</ele>
        <time>2023-01-18T15:20:42.000Z</time>
      </trkpt>
      <trkpt lat="43.52631" lon="6.13617">
        <ele>360.8</ele>
        <time>2023-01-18T15:20:46.000Z</time>
      </trkpt>
      <trkpt lat="43.52627" lon="6.13622">
        <ele>361.4</ele>
        <time>2023-01-18T15:20:51.000Z</time>
      </trkpt>
      <trkpt lat="43.52623" lon="6.13628">
        <ele>362.6</ele>
        <time>2023-01-18T15:20:56.000Z</time>
      </trkpt>
      <trkpt lat="43.52619" lon="6.13632">
        <ele>363.2</ele>
        <time>2023-01-18T15:21:00.000Z</time>
      </trkpt>
      <trkpt lat="43.52615" lon="6.13637">
        <ele>363.3</ele>
        <time>2023-01-18T15:21:04.000Z</time>
      </trkpt>
      <trkpt lat="43.52611" lon="6.13643">
        <ele>363.1</ele>
        <time>2023-01-18T15:21:10.000Z</time>
      </trkpt>
      <trkpt lat="43.52608" lon="6.13647">
        <ele>363.4</ele>
        <time>2023-01-18T15:21:16.000Z</time>
      </trkpt>
      <trkpt lat="43.52604" lon="6.13653">
        <ele>363.6</ele>
        <time>2023-01-18T15:21:22.000Z</time>
      </trkpt>
      <trkpt lat="43.52601" lon="6.13658">
        <ele>362.5</ele>
        <time>2023-01-18T15:21:29.000Z</time>
      </trkpt>
      <trkpt lat="43.52599" lon="6.13663">
        <ele>361.7</ele>
        <time>2023-01-18T15:21:35.000Z</time>
      </trkpt>
      <trkpt lat="43.52595" lon="6.13668">
        <ele>361.6</ele>
        <time>2023-01-18T15:21:41.000Z</time>
      </trkpt>
      <trkpt lat="43.5259" lon="6.1367">
        <ele>360.1</ele>
        <time>2023-01-18T15:21:49.000Z</time>
      </trkpt>
      <trkpt lat="43.52585" lon="6.13674">
        <ele>359.1</ele>
        <time>2023-01-18T15:21:55.000Z</time>
      </trkpt>
      <trkpt lat="43.52582" lon="6.13678">
        <ele>358.2</ele>
        <time>2023-01-18T15:22:00.000Z</time>
      </trkpt>
      <trkpt lat="43.52579" lon="6.13683">
        <ele>357.4</ele>
        <time>2023-01-18T15:22:06.000Z</time>
      </trkpt>
      <trkpt lat="43.52576" lon="6.13689">
        <ele>356.3</ele>
        <time>2023-01-18T15:22:12.000Z</time>
      </trkpt>
      <trkpt lat="43.52574" lon="6.13696">
        <ele>354.9</ele>
        <time>2023-01-18T15:22:18.000Z</time>
      </trkpt>
      <trkpt lat="43.52571" lon="6.13701">
        <ele>354.4</ele>
        <time>2023-01-18T15:22:24.000Z</time>
      </trkpt>
      <trkpt lat="43.52569" lon="6.13707">
        <ele>353.6</ele>
        <time>2023-01-18T15:22:32.000Z</time>
      </trkpt>
      <trkpt lat="43.52567" lon="6.13713">
        <ele>352.9</ele>
        <time>2023-01-18T15:22:37.000Z</time>
      </trkpt>
      <trkpt lat="43.52564" lon="6.13719">
        <ele>351.4</ele>
        <time>2023-01-18T15:22:43.000Z</time>
      </trkpt>
      <trkpt lat="43.52562" lon="6.13725">
        <ele>349.7</ele>
        <time>2023-01-18T15:22:56.000Z</time>
      </trkpt>
      <trkpt lat="43.52559" lon="6.13732">
        <ele>349.7</ele>
        <time>2023-01-18T15:23:01.000Z</time>
      </trkpt>
      <trkpt lat="43.52558" lon="6.13738">
        <ele>348.9</ele>
        <time>2023-01-18T15:23:06.000Z</time>
      </trkpt>
      <trkpt lat="43.52556" lon="6.13745">
        <ele>348.2</ele>
        <time>2023-01-18T15:23:10.000Z</time>
      </trkpt>
      <trkpt lat="43.52555" lon="6.13751">
        <ele>347.3</ele>
        <time>2023-01-18T15:23:16.000Z</time>
      </trkpt>
      <trkpt lat="43.52555" lon="6.13758">
        <ele>346.5</ele>
        <time>2023-01-18T15:23:21.000Z</time>
      </trkpt>
      <trkpt lat="43.52555" lon="6.13766">
        <ele>345.8</ele>
        <time>2023-01-18T15:23:26.000Z</time>
      </trkpt>
      <trkpt lat="43.52555" lon="6.13772">
        <ele>346.5</ele>
        <time>2023-01-18T15:23:43.000Z</time>
      </trkpt>
      <trkpt lat="43.52556" lon="6.13779">
        <ele>345.8</ele>
        <time>2023-01-18T15:23:48.000Z</time>
      </trkpt>
      <trkpt lat="43.52559" lon="6.13783">
        <ele>344.8</ele>
        <time>2023-01-18T15:23:56.000Z</time>
      </trkpt>
      <trkpt lat="43.52564" lon="6.13785">
        <ele>344.4</ele>
        <time>2023-01-18T15:24:03.000Z</time>
      </trkpt>
      <trkpt lat="43.52569" lon="6.13786">
        <ele>343.4</ele>
        <time>2023-01-18T15:24:12.000Z</time>
      </trkpt>
      <trkpt lat="43.52574" lon="6.13784">
        <ele>342.7</ele>
        <time>2023-01-18T15:24:21.000Z</time>
      </trkpt>
      <trkpt lat="43.52578" lon="6.13782">
        <ele>340.9</ele>
        <time>2023-01-18T15:24:30.000Z</time>
      </trkpt>
      <trkpt lat="43.52583" lon="6.13779">
        <ele>339.8</ele>
        <time>2023-01-18T15:24:38.000Z</time>
      </trkpt>
      <trkpt lat="43.52587" lon="6.13781">
        <ele>339</ele>
        <time>2023-01-18T15:24:49.000Z</time>
      </trkpt>
      <trkpt lat="43.52592" lon="6.13781">
        <ele>337.2</ele>
        <time>2023-01-18T15:24:59.000Z</time>
      </trkpt>
      <trkpt lat="43.52597" lon="6.13782">
        <ele>335.8</ele>
        <time>2023-01-18T15:25:10.000Z</time>
      </trkpt>
      <trkpt lat="43.52601" lon="6.13786">
        <ele>334.6</ele>
        <time>2023-01-18T15:25:22.000Z</time>
      </trkpt>
      <trkpt lat="43.52605" lon="6.1379">
        <ele>332.9</ele>
        <time>2023-01-18T15:25:32.000Z</time>
      </trkpt>
      <trkpt lat="43.52609" lon="6.13791">
        <ele>331.9</ele>
        <time>2023-01-18T15:25:38.000Z</time>
      </trkpt>
      <trkpt lat="43.52614" lon="6.13791">
        <ele>330.4</ele>
        <time>2023-01-18T15:25:46.000Z</time>
      </trkpt>
      <trkpt lat="43.52619" lon="6.1379">
        <ele>329.9</ele>
        <time>2023-01-18T15:25:52.000Z</time>
      </trkpt>
      <trkpt lat="43.52624" lon="6.13791">
        <ele>329.4</ele>
        <time>2023-01-18T15:26:00.000Z</time>
      </trkpt>
      <trkpt lat="43.52629" lon="6.13793">
        <ele>328.9</ele>
        <time>2023-01-18T15:26:07.000Z</time>
      </trkpt>
      <trkpt lat="43.52632" lon="6.13798">
        <ele>328.1</ele>
        <time>2023-01-18T15:26:17.000Z</time>
      </trkpt>
      <trkpt lat="43.52636" lon="6.13801">
        <ele>327.5</ele>
        <time>2023-01-18T15:26:25.000Z</time>
      </trkpt>
      <trkpt lat="43.52641" lon="6.13803">
        <ele>326.6</ele>
        <time>2023-01-18T15:26:33.000Z</time>
      </trkpt>
      <trkpt lat="43.52646" lon="6.13807">
        <ele>324.8</ele>
        <time>2023-01-18T15:26:42.000Z</time>
      </trkpt>
      <trkpt lat="43.5265" lon="6.13809">
        <ele>323.8</ele>
        <time>2023-01-18T15:26:54.000Z</time>
      </trkpt>
      <trkpt lat="43.52655" lon="6.1381">
        <ele>322.6</ele>
        <time>2023-01-18T15:27:02.000Z</time>
      </trkpt>
      <trkpt lat="43.52658" lon="6.13815">
        <ele>321.5</ele>
        <time>2023-01-18T15:27:11.000Z</time>
      </trkpt>
      <trkpt lat="43.52661" lon="6.1382">
        <ele>320.6</ele>
        <time>2023-01-18T15:27:18.000Z</time>
      </trkpt>
      <trkpt lat="43.52665" lon="6.13824">
        <ele>319.6</ele>
        <time>2023-01-18T15:27:25.000Z</time>
      </trkpt>
      <trkpt lat="43.52668" lon="6.13829">
        <ele>318.7</ele>
        <time>2023-01-18T15:27:33.000Z</time>
      </trkpt>
      <trkpt lat="43.52671" lon="6.13834">
        <ele>318</ele>
        <time>2023-01-18T15:27:41.000Z</time>
      </trkpt>
      <trkpt lat="43.52674" lon="6.13839">
        <ele>317.1</ele>
        <time>2023-01-18T15:27:49.000Z</time>
      </trkpt>
      <trkpt lat="43.52678" lon="6.13844">
        <ele>316.1</ele>
        <time>2023-01-18T15:27:57.000Z</time>
      </trkpt>
      <trkpt lat="43.52678" lon="6.1385">
        <ele>314.3</ele>
        <time>2023-01-18T15:28:14.000Z</time>
      </trkpt>
      <trkpt lat="43.52682" lon="6.13856">
        <ele>313.3</ele>
        <time>2023-01-18T15:28:23.000Z</time>
      </trkpt>
      <trkpt lat="43.52686" lon="6.1386">
        <ele>312.6</ele>
        <time>2023-01-18T15:28:30.000Z</time>
      </trkpt>
      <trkpt lat="43.52686" lon="6.13867">
        <ele>311.2</ele>
        <time>2023-01-18T15:28:42.000Z</time>
      </trkpt>
      <trkpt lat="43.52688" lon="6.13874">
        <ele>310.1</ele>
        <time>2023-01-18T15:28:52.000Z</time>
      </trkpt>
      <trkpt lat="43.52689" lon="6.1388">
        <ele>309.6</ele>
        <time>2023-01-18T15:29:02.000Z</time>
      </trkpt>
      <trkpt lat="43.52691" lon="6.13886">
        <ele>308.5</ele>
        <time>2023-01-18T15:29:10.000Z</time>
      </trkpt>
      <trkpt lat="43.52695" lon="6.1389">
        <ele>306.8</ele>
        <time>2023-01-18T15:29:20.000Z</time>
      </trkpt>
      <trkpt lat="43.52697" lon="6.13896">
        <ele>306.2</ele>
        <time>2023-01-18T15:29:29.000Z</time>
      </trkpt>
      <trkpt lat="43.52699" lon="6.13903">
        <ele>305.5</ele>
        <time>2023-01-18T15:29:41.000Z</time>
      </trkpt>
      <trkpt lat="43.52701" lon="6.13909">
        <ele>304.7</ele>
        <time>2023-01-18T15:29:48.000Z</time>
      </trkpt>
      <trkpt lat="43.52704" lon="6.13914">
        <ele>303.5</ele>
        <time>2023-01-18T15:29:57.000Z</time>
      </trkpt>
      <trkpt lat="43.52705" lon="6.13921">
        <ele>303</ele>
        <time>2023-01-18T15:30:01.000Z</time>
      </trkpt>
      <trkpt lat="43.52709" lon="6.13923">
        <ele>302.4</ele>
        <time>2023-01-18T15:30:18.000Z</time>
      </trkpt>
      <trkpt lat="43.52712" lon="6.13928">
        <ele>301.4</ele>
        <time>2023-01-18T15:30:25.000Z</time>
      </trkpt>
      <trkpt lat="43.52713" lon="6.13935">
        <ele>299.7</ele>
        <time>2023-01-18T15:30:31.000Z</time>
      </trkpt>
      <trkpt lat="43.52717" lon="6.1394">
        <ele>298.6</ele>
        <time>2023-01-18T15:30:37.000Z</time>
      </trkpt>
      <trkpt lat="43.5272" lon="6.13943">
        <ele>297.5</ele>
        <time>2023-01-18T15:30:45.000Z</time>
      </trkpt>
      <trkpt lat="43.52725" lon="6.13945">
        <ele>296.9</ele>
        <time>2023-01-18T15:30:50.000Z</time>
      </trkpt>
      <trkpt lat="43.52729" lon="6.13948">
        <ele>296.3</ele>
        <time>2023-01-18T15:30:55.000Z</time>
      </trkpt>
      <trkpt lat="43.52734" lon="6.13949">
        <ele>296</ele>
        <time>2023-01-18T15:30:59.000Z</time>
      </trkpt>
      <trkpt lat="43.52738" lon="6.13953">
        <ele>295.3</ele>
        <time>2023-01-18T15:31:03.000Z</time>
      </trkpt>
      <trkpt lat="43.52743" lon="6.13955">
        <ele>294.9</ele>
        <time>2023-01-18T15:31:07.000Z</time>
      </trkpt>
      <trkpt lat="43.52746" lon="6.1396">
        <ele>294.4</ele>
        <time>2023-01-18T15:31:12.000Z</time>
      </trkpt>
      <trkpt lat="43.52751" lon="6.13963">
        <ele>294.2</ele>
        <time>2023-01-18T15:31:18.000Z</time>
      </trkpt>
      <trkpt lat="43.52755" lon="6.13966">
        <ele>293.6</ele>
        <time>2023-01-18T15:31:24.000Z</time>
      </trkpt>
      <trkpt lat="43.52759" lon="6.13967">
        <ele>293</ele>
        <time>2023-01-18T15:31:29.000Z</time>
      </trkpt>
      <trkpt lat="43.52764" lon="6.13971">
        <ele>292.7</ele>
        <time>2023-01-18T15:31:34.000Z</time>
      </trkpt>
      <trkpt lat="43.52768" lon="6.13973">
        <ele>292.3</ele>
        <time>2023-01-18T15:31:39.000Z</time>
      </trkpt>
      <trkpt lat="43.52773" lon="6.13977">
        <ele>291.2</ele>
        <time>2023-01-18T15:31:45.000Z</time>
      </trkpt>
      <trkpt lat="43.52776" lon="6.13981">
        <ele>290.6</ele>
        <time>2023-01-18T15:31:52.000Z</time>
      </trkpt>
      <trkpt lat="43.52781" lon="6.13983">
        <ele>290</ele>
        <time>2023-01-18T15:31:58.000Z</time>
      </trkpt>
      <trkpt lat="43.52786" lon="6.13985">
        <ele>288.8</ele>
        <time>2023-01-18T15:32:05.000Z</time>
      </trkpt>
      <trkpt lat="43.5279" lon="6.13988">
        <ele>287.9</ele>
        <time>2023-01-18T15:32:12.000Z</time>
      </trkpt>
      <trkpt lat="43.52795" lon="6.13989">
        <ele>286.8</ele>
        <time>2023-01-18T15:32:21.000Z</time>
      </trkpt>
      <trkpt lat="43.528" lon="6.13991">
        <ele>286</ele>
        <time>2023-01-18T15:32:28.000Z</time>
      </trkpt>
      <trkpt lat="43.52803" lon="6.13995">
        <ele>284.2</ele>
        <time>2023-01-18T15:32:35.000Z</time>
      </trkpt>
      <trkpt lat="43.52808" lon="6.13997">
        <ele>282.5</ele>
        <time>2023-01-18T15:32:44.000Z</time>
      </trkpt>
      <trkpt lat="43.52812" lon="6.13998">
        <ele>282.4</ele>
        <time>2023-01-18T15:33:14.000Z</time>
      </trkpt>
      <trkpt lat="43.52817" lon="6.13995">
        <ele>281.6</ele>
        <time>2023-01-18T15:33:26.000Z</time>
      </trkpt>
      <trkpt lat="43.52821" lon="6.13997">
        <ele>280.5</ele>
        <time>2023-01-18T15:33:58.000Z</time>
      </trkpt>
      <trkpt lat="43.52825" lon="6.13992">
        <ele>279.5</ele>
        <time>2023-01-18T15:34:05.000Z</time>
      </trkpt>
      <trkpt lat="43.5283" lon="6.1399">
        <ele>278.5</ele>
        <time>2023-01-18T15:34:13.000Z</time>
      </trkpt>
      <trkpt lat="43.52835" lon="6.13988">
        <ele>277.5</ele>
        <time>2023-01-18T15:34:22.000Z</time>
      </trkpt>
      <trkpt lat="43.52839" lon="6.13985">
        <ele>276.9</ele>
        <time>2023-01-18T15:34:30.000Z</time>
      </trkpt>
      <trkpt lat="43.52844" lon="6.13984">
        <ele>275.9</ele>
        <time>2023-01-18T15:34:38.000Z</time>
      </trkpt>
      <trkpt lat="43.52849" lon="6.13982">
        <ele>274.9</ele>
        <time>2023-01-18T15:34:49.000Z</time>
      </trkpt>
      <trkpt lat="43.52853" lon="6.1398">
        <ele>274.7</ele>
        <time>2023-01-18T15:34:53.000Z</time>
      </trkpt>
      <trkpt lat="43.52859" lon="6.1398">
        <ele>273.8</ele>
        <time>2023-01-18T15:35:00.000Z</time>
      </trkpt>
      <trkpt lat="43.52865" lon="6.1398">
        <ele>272.8</ele>
        <time>2023-01-18T15:35:08.000Z</time>
      </trkpt>
      <trkpt lat="43.5287" lon="6.13981">
        <ele>272.3</ele>
        <time>2023-01-18T15:35:12.000Z</time>
      </trkpt>
      <trkpt lat="43.52875" lon="6.13981">
        <ele>271.8</ele>
        <time>2023-01-18T15:35:16.000Z</time>
      </trkpt>
      <trkpt lat="43.5288" lon="6.13982">
        <ele>271.6</ele>
        <time>2023-01-18T15:35:20.000Z</time>
      </trkpt>
      <trkpt lat="43.52884" lon="6.13984">
        <ele>271.5</ele>
        <time>2023-01-18T15:35:26.000Z</time>
      </trkpt>
      <trkpt lat="43.52889" lon="6.13983">
        <ele>271.1</ele>
        <time>2023-01-18T15:35:36.000Z</time>
      </trkpt>
      <trkpt lat="43.52889" lon="6.1399">
        <ele>270.6</ele>
        <time>2023-01-18T15:35:48.000Z</time>
      </trkpt>
      <trkpt lat="43.52888" lon="6.13997">
        <ele>269.6</ele>
        <time>2023-01-18T15:35:53.000Z</time>
      </trkpt>
      <trkpt lat="43.52888" lon="6.14004">
        <ele>268.3</ele>
        <time>2023-01-18T15:35:59.000Z</time>
      </trkpt>
      <trkpt lat="43.52888" lon="6.14011">
        <ele>267.7</ele>
        <time>2023-01-18T15:36:04.000Z</time>
      </trkpt>
      <trkpt lat="43.5289" lon="6.14017">
        <ele>266.5</ele>
        <time>2023-01-18T15:36:13.000Z</time>
      </trkpt>
      <trkpt lat="43.52893" lon="6.14022">
        <ele>266</ele>
        <time>2023-01-18T15:36:18.000Z</time>
      </trkpt>
      <trkpt lat="43.52896" lon="6.14028">
        <ele>264.9</ele>
        <time>2023-01-18T15:36:26.000Z</time>
      </trkpt>
      <trkpt lat="43.52899" lon="6.14033">
        <ele>264.7</ele>
        <time>2023-01-18T15:36:31.000Z</time>
      </trkpt>
      <trkpt lat="43.52902" lon="6.14038">
        <ele>264.3</ele>
        <time>2023-01-18T15:36:35.000Z</time>
      </trkpt>
      <trkpt lat="43.52906" lon="6.14043">
        <ele>264.1</ele>
        <time>2023-01-18T15:36:38.000Z</time>
      </trkpt>
      <trkpt lat="43.5291" lon="6.14048">
        <ele>263.9</ele>
        <time>2023-01-18T15:36:44.000Z</time>
      </trkpt>
      <trkpt lat="43.52912" lon="6.14054">
        <ele>263.6</ele>
        <time>2023-01-18T15:36:48.000Z</time>
      </trkpt>
      <trkpt lat="43.52913" lon="6.14061">
        <ele>263</ele>
        <time>2023-01-18T15:36:52.000Z</time>
      </trkpt>
      <trkpt lat="43.52912" lon="6.14068">
        <ele>262.2</ele>
        <time>2023-01-18T15:36:57.000Z</time>
      </trkpt>
      <trkpt lat="43.52911" lon="6.14076">
        <ele>261.6</ele>
        <time>2023-01-18T15:37:01.000Z</time>
      </trkpt>
      <trkpt lat="43.52911" lon="6.14082">
        <ele>260.7</ele>
        <time>2023-01-18T15:37:07.000Z</time>
      </trkpt>
      <trkpt lat="43.52911" lon="6.1409">
        <ele>260.4</ele>
        <time>2023-01-18T15:37:11.000Z</time>
      </trkpt>
      <trkpt lat="43.52913" lon="6.14096">
        <ele>259.9</ele>
        <time>2023-01-18T15:37:16.000Z</time>
      </trkpt>
      <trkpt lat="43.52916" lon="6.14101">
        <ele>259.8</ele>
        <time>2023-01-18T15:37:20.000Z</time>
      </trkpt>
      <trkpt lat="43.52919" lon="6.14106">
        <ele>259.9</ele>
        <time>2023-01-18T15:37:24.000Z</time>
      </trkpt>
      <trkpt lat="43.52921" lon="6.14112">
        <ele>259.4</ele>
        <time>2023-01-18T15:37:29.000Z</time>
      </trkpt>
      <trkpt lat="43.52924" lon="6.14118">
        <ele>259.3</ele>
        <time>2023-01-18T15:37:34.000Z</time>
      </trkpt>
      <trkpt lat="43.52927" lon="6.14123">
        <ele>259.3</ele>
        <time>2023-01-18T15:37:38.000Z</time>
      </trkpt>
      <trkpt lat="43.52929" lon="6.14128">
        <ele>259.4</ele>
        <time>2023-01-18T15:37:42.000Z</time>
      </trkpt>
      <trkpt lat="43.52933" lon="6.14134">
        <ele>259.5</ele>
        <time>2023-01-18T15:37:47.000Z</time>
      </trkpt>
      <trkpt lat="43.52936" lon="6.14138">
        <ele>259.5</ele>
        <time>2023-01-18T15:37:52.000Z</time>
      </trkpt>
      <trkpt lat="43.52937" lon="6.14144">
        <ele>259.4</ele>
        <time>2023-01-18T15:37:57.000Z</time>
      </trkpt>
      <trkpt lat="43.52935" lon="6.1415">
        <ele>259.3</ele>
        <time>2023-01-18T15:38:02.000Z</time>
      </trkpt>
      <trkpt lat="43.52933" lon="6.14156">
        <ele>258</ele>
        <time>2023-01-18T15:38:10.000Z</time>
      </trkpt>
      <trkpt lat="43.52929" lon="6.1416">
        <ele>257.2</ele>
        <time>2023-01-18T15:38:16.000Z</time>
      </trkpt>
      <trkpt lat="43.52927" lon="6.14165">
        <ele>256.4</ele>
        <time>2023-01-18T15:38:24.000Z</time>
      </trkpt>
      <trkpt lat="43.52924" lon="6.1417">
        <ele>256.1</ele>
        <time>2023-01-18T15:38:31.000Z</time>
      </trkpt>
      <trkpt lat="43.52921" lon="6.14176">
        <ele>255.5</ele>
        <time>2023-01-18T15:38:45.000Z</time>
      </trkpt>
      <trkpt lat="43.52917" lon="6.1418">
        <ele>255.5</ele>
        <time>2023-01-18T15:38:48.000Z</time>
      </trkpt>
      <trkpt lat="43.52913" lon="6.14184">
        <ele>255.2</ele>
        <time>2023-01-18T15:38:51.000Z</time>
      </trkpt>
      <trkpt lat="43.52909" lon="6.14188">
        <ele>254.3</ele>
        <time>2023-01-18T15:38:56.000Z</time>
      </trkpt>
      <trkpt lat="43.52905" lon="6.14192">
        <ele>253.2</ele>
        <time>2023-01-18T15:39:02.000Z</time>
      </trkpt>
      <trkpt lat="43.52901" lon="6.14195">
        <ele>252.8</ele>
        <time>2023-01-18T15:39:05.000Z</time>
      </trkpt>
      <trkpt lat="43.52898" lon="6.142">
        <ele>251.8</ele>
        <time>2023-01-18T15:39:11.000Z</time>
      </trkpt>
      <trkpt lat="43.52895" lon="6.14207">
        <ele>250.8</ele>
        <time>2023-01-18T15:39:17.000Z</time>
      </trkpt>
      <trkpt lat="43.52894" lon="6.14214">
        <ele>250.1</ele>
        <time>2023-01-18T15:39:23.000Z</time>
      </trkpt>
      <trkpt lat="43.52891" lon="6.14219">
        <ele>249.2</ele>
        <time>2023-01-18T15:39:29.000Z</time>
      </trkpt>
      <trkpt lat="43.52889" lon="6.14225">
        <ele>248.4</ele>
        <time>2023-01-18T15:39:35.000Z</time>
      </trkpt>
      <trkpt lat="43.52886" lon="6.14231">
        <ele>247.7</ele>
        <time>2023-01-18T15:39:40.000Z</time>
      </trkpt>
      <trkpt lat="43.52885" lon="6.14237">
        <ele>246.3</ele>
        <time>2023-01-18T15:39:53.000Z</time>
      </trkpt>
      <trkpt lat="43.52882" lon="6.14242">
        <ele>246.2</ele>
        <time>2023-01-18T15:40:04.000Z</time>
      </trkpt>
      <trkpt lat="43.52877" lon="6.14244">
        <ele>246.1</ele>
        <time>2023-01-18T15:40:18.000Z</time>
      </trkpt>
      <trkpt lat="43.52873" lon="6.14248">
        <ele>245.5</ele>
        <time>2023-01-18T15:40:33.000Z</time>
      </trkpt>
      <trkpt lat="43.52874" lon="6.14255">
        <ele>245.4</ele>
        <time>2023-01-18T15:40:52.000Z</time>
      </trkpt>
      <trkpt lat="43.52873" lon="6.14262">
        <ele>245.5</ele>
        <time>2023-01-18T15:40:58.000Z</time>
      </trkpt>
      <trkpt lat="43.52873" lon="6.14269">
        <ele>246</ele>
        <time>2023-01-18T15:41:04.000Z</time>
      </trkpt>
      <trkpt lat="43.52873" lon="6.14276">
        <ele>246.6</ele>
        <time>2023-01-18T15:41:10.000Z</time>
      </trkpt>
      <trkpt lat="43.52872" lon="6.14283">
        <ele>247.2</ele>
        <time>2023-01-18T15:41:18.000Z</time>
      </trkpt>
      <trkpt lat="43.52872" lon="6.1429">
        <ele>248.6</ele>
        <time>2023-01-18T15:41:24.000Z</time>
      </trkpt>
      <trkpt lat="43.52868" lon="6.14293">
        <ele>249.6</ele>
        <time>2023-01-18T15:41:28.000Z</time>
      </trkpt>
      <trkpt lat="43.52864" lon="6.14297">
        <ele>249.7</ele>
        <time>2023-01-18T15:41:36.000Z</time>
      </trkpt>
      <trkpt lat="43.52861" lon="6.14302">
        <ele>252</ele>
        <time>2023-01-18T15:41:41.000Z</time>
      </trkpt>
      <trkpt lat="43.52857" lon="6.14306">
        <ele>252.8</ele>
        <time>2023-01-18T15:41:46.000Z</time>
      </trkpt>
      <trkpt lat="43.52854" lon="6.14311">
        <ele>253.5</ele>
        <time>2023-01-18T15:41:50.000Z</time>
      </trkpt>
      <trkpt lat="43.5285" lon="6.14315">
        <ele>253.8</ele>
        <time>2023-01-18T15:41:55.000Z</time>
      </trkpt>
      <trkpt lat="43.52847" lon="6.14321">
        <ele>253.7</ele>
        <time>2023-01-18T15:42:00.000Z</time>
      </trkpt>
      <trkpt lat="43.52843" lon="6.14325">
        <ele>253.5</ele>
        <time>2023-01-18T15:42:04.000Z</time>
      </trkpt>
      <trkpt lat="43.5284" lon="6.1433">
        <ele>253.3</ele>
        <time>2023-01-18T15:42:09.000Z</time>
      </trkpt>
      <trkpt lat="43.52837" lon="6.14335">
        <ele>253.2</ele>
        <time>2023-01-18T15:42:12.000Z</time>
      </trkpt>
      <trkpt lat="43.52837" lon="6.14342">
        <ele>253.1</ele>
        <time>2023-01-18T15:42:18.000Z</time>
      </trkpt>
      <trkpt lat="43.52836" lon="6.14349">
        <ele>252.7</ele>
        <time>2023-01-18T15:42:21.000Z</time>
      </trkpt>
      <trkpt lat="43.52836" lon="6.14356">
        <ele>252.3</ele>
        <time>2023-01-18T15:42:26.000Z</time>
      </trkpt>
      <trkpt lat="43.52837" lon="6.14363">
        <ele>252</ele>
        <time>2023-01-18T15:42:30.000Z</time>
      </trkpt>
      <trkpt lat="43.52838" lon="6.1437">
        <ele>251.8</ele>
        <time>2023-01-18T15:42:33.000Z</time>
      </trkpt>
      <trkpt lat="43.52837" lon="6.14377">
        <ele>251.6</ele>
        <time>2023-01-18T15:42:38.000Z</time>
      </trkpt>
      <trkpt lat="43.52836" lon="6.14384">
        <ele>251.9</ele>
        <time>2023-01-18T15:42:42.000Z</time>
      </trkpt>
      <trkpt lat="43.52833" lon="6.1439">
        <ele>252.1</ele>
        <time>2023-01-18T15:42:51.000Z</time>
      </trkpt>
      <trkpt lat="43.52832" lon="6.14396">
        <ele>252.1</ele>
        <time>2023-01-18T15:42:57.000Z</time>
      </trkpt>
      <trkpt lat="43.52831" lon="6.14403">
        <ele>252.5</ele>
        <time>2023-01-18T15:43:01.000Z</time>
      </trkpt>
      <trkpt lat="43.52832" lon="6.1441">
        <ele>253.2</ele>
        <time>2023-01-18T15:43:08.000Z</time>
      </trkpt>
      <trkpt lat="43.52833" lon="6.14417">
        <ele>254.1</ele>
        <time>2023-01-18T15:43:13.000Z</time>
      </trkpt>
      <trkpt lat="43.52833" lon="6.14424">
        <ele>254.5</ele>
        <time>2023-01-18T15:43:18.000Z</time>
      </trkpt>
      <trkpt lat="43.52833" lon="6.14431">
        <ele>255.5</ele>
        <time>2023-01-18T15:43:23.000Z</time>
      </trkpt>
      <trkpt lat="43.52832" lon="6.14438">
        <ele>255.8</ele>
        <time>2023-01-18T15:43:28.000Z</time>
      </trkpt>
      <trkpt lat="43.5283" lon="6.14445">
        <ele>256</ele>
        <time>2023-01-18T15:43:33.000Z</time>
      </trkpt>
      <trkpt lat="43.5283" lon="6.14452">
        <ele>256.3</ele>
        <time>2023-01-18T15:43:38.000Z</time>
      </trkpt>
      <trkpt lat="43.5283" lon="6.1446">
        <ele>256.4</ele>
        <time>2023-01-18T15:43:43.000Z</time>
      </trkpt>
      <trkpt lat="43.52832" lon="6.14467">
        <ele>257.5</ele>
        <time>2023-01-18T15:43:49.000Z</time>
      </trkpt>
      <trkpt lat="43.52834" lon="6.14473">
        <ele>257.7</ele>
        <time>2023-01-18T15:43:52.000Z</time>
      </trkpt>
      <trkpt lat="43.52836" lon="6.14479">
        <ele>257.9</ele>
        <time>2023-01-18T15:43:56.000Z</time>
      </trkpt>
      <trkpt lat="43.52838" lon="6.14486">
        <ele>257.3</ele>
        <time>2023-01-18T15:44:02.000Z</time>
      </trkpt>
      <trkpt lat="43.52839" lon="6.14492">
        <ele>257</ele>
        <time>2023-01-18T15:44:06.000Z</time>
      </trkpt>
      <trkpt lat="43.52837" lon="6.14498">
        <ele>256.4</ele>
        <time>2023-01-18T15:44:10.000Z</time>
      </trkpt>
      <trkpt lat="43.52834" lon="6.14505">
        <ele>256.2</ele>
        <time>2023-01-18T15:44:13.000Z</time>
      </trkpt>
      <trkpt lat="43.52832" lon="6.14511">
        <ele>255.9</ele>
        <time>2023-01-18T15:44:16.000Z</time>
      </trkpt>
      <trkpt lat="43.52831" lon="6.14518">
        <ele>254.9</ele>
        <time>2023-01-18T15:44:22.000Z</time>
      </trkpt>
      <trkpt lat="43.52829" lon="6.14525">
        <ele>255.1</ele>
        <time>2023-01-18T15:44:26.000Z</time>
      </trkpt>
      <trkpt lat="43.52828" lon="6.14533">
        <ele>255.4</ele>
        <time>2023-01-18T15:44:29.000Z</time>
      </trkpt>
      <trkpt lat="43.52828" lon="6.1454">
        <ele>255.9</ele>
        <time>2023-01-18T15:44:33.000Z</time>
      </trkpt>
      <trkpt lat="43.52827" lon="6.14547">
        <ele>255.9</ele>
        <time>2023-01-18T15:44:40.000Z</time>
      </trkpt>
      <trkpt lat="43.52826" lon="6.14554">
        <ele>255</ele>
        <time>2023-01-18T15:44:46.000Z</time>
      </trkpt>
      <trkpt lat="43.52824" lon="6.14561">
        <ele>253.9</ele>
        <time>2023-01-18T15:44:51.000Z</time>
      </trkpt>
      <trkpt lat="43.52824" lon="6.14568">
        <ele>254.7</ele>
        <time>2023-01-18T15:44:55.000Z</time>
      </trkpt>
      <trkpt lat="43.52824" lon="6.14575">
        <ele>254.1</ele>
        <time>2023-01-18T15:44:59.000Z</time>
      </trkpt>
      <trkpt lat="43.52824" lon="6.14583">
        <ele>253.9</ele>
        <time>2023-01-18T15:45:03.000Z</time>
      </trkpt>
      <trkpt lat="43.52824" lon="6.14589">
        <ele>254.2</ele>
        <time>2023-01-18T15:45:07.000Z</time>
      </trkpt>
      <trkpt lat="43.52821" lon="6.14595">
        <ele>253.6</ele>
        <time>2023-01-18T15:45:12.000Z</time>
      </trkpt>
      <trkpt lat="43.5282" lon="6.14602">
        <ele>253</ele>
        <time>2023-01-18T15:45:17.000Z</time>
      </trkpt>
      <trkpt lat="43.5282" lon="6.1461">
        <ele>253.3</ele>
        <time>2023-01-18T15:45:21.000Z</time>
      </trkpt>
      <trkpt lat="43.52818" lon="6.14616">
        <ele>253.5</ele>
        <time>2023-01-18T15:45:24.000Z</time>
      </trkpt>
      <trkpt lat="43.5282" lon="6.14622">
        <ele>253.5</ele>
        <time>2023-01-18T15:45:27.000Z</time>
      </trkpt>
      <trkpt lat="43.52825" lon="6.14627">
        <ele>254.2</ele>
        <time>2023-01-18T15:45:30.000Z</time>
      </trkpt>
      <trkpt lat="43.52828" lon="6.14631">
        <ele>254.6</ele>
        <time>2023-01-18T15:45:32.000Z</time>
      </trkpt>
      <trkpt lat="43.52832" lon="6.14635">
        <ele>254.9</ele>
        <time>2023-01-18T15:45:35.000Z</time>
      </trkpt>
      <trkpt lat="43.52836" lon="6.1464">
        <ele>255.3</ele>
        <time>2023-01-18T15:45:39.000Z</time>
      </trkpt>
      <trkpt lat="43.52839" lon="6.14646">
        <ele>252.6</ele>
        <time>2023-01-18T15:45:47.000Z</time>
      </trkpt>
      <trkpt lat="43.52844" lon="6.14648">
        <ele>252.2</ele>
        <time>2023-01-18T15:45:52.000Z</time>
      </trkpt>
      <trkpt lat="43.52848" lon="6.14653">
        <ele>252.5</ele>
        <time>2023-01-18T15:45:55.000Z</time>
      </trkpt>
      <trkpt lat="43.52852" lon="6.14658">
        <ele>254.5</ele>
        <time>2023-01-18T15:45:57.000Z</time>
      </trkpt>
      <trkpt lat="43.52856" lon="6.14664">
        <ele>256.1</ele>
        <time>2023-01-18T15:46:00.000Z</time>
      </trkpt>
      <trkpt lat="43.5286" lon="6.14667">
        <ele>257.2</ele>
        <time>2023-01-18T15:46:02.000Z</time>
      </trkpt>
      <trkpt lat="43.52865" lon="6.1467">
        <ele>257.9</ele>
        <time>2023-01-18T15:46:04.000Z</time>
      </trkpt>
      <trkpt lat="43.5287" lon="6.14672">
        <ele>258.4</ele>
        <time>2023-01-18T15:46:07.000Z</time>
      </trkpt>
      <trkpt lat="43.52873" lon="6.14679">
        <ele>258.1</ele>
        <time>2023-01-18T15:46:15.000Z</time>
      </trkpt>
      <trkpt lat="43.52875" lon="6.14686">
        <ele>257.6</ele>
        <time>2023-01-18T15:46:18.000Z</time>
      </trkpt>
      <trkpt lat="43.52875" lon="6.14694">
        <ele>257</ele>
        <time>2023-01-18T15:46:21.000Z</time>
      </trkpt>
      <trkpt lat="43.52875" lon="6.14702">
        <ele>256.4</ele>
        <time>2023-01-18T15:46:24.000Z</time>
      </trkpt>
      <trkpt lat="43.52873" lon="6.14709">
        <ele>255.9</ele>
        <time>2023-01-18T15:46:27.000Z</time>
      </trkpt>
      <trkpt lat="43.52871" lon="6.14714">
        <ele>255</ele>
        <time>2023-01-18T15:46:33.000Z</time>
      </trkpt>
      <trkpt lat="43.52869" lon="6.14721">
        <ele>254.7</ele>
        <time>2023-01-18T15:46:37.000Z</time>
      </trkpt>
      <trkpt lat="43.52868" lon="6.14728">
        <ele>254.4</ele>
        <time>2023-01-18T15:46:41.000Z</time>
      </trkpt>
      <trkpt lat="43.52869" lon="6.14735">
        <ele>254.2</ele>
        <time>2023-01-18T15:46:44.000Z</time>
      </trkpt>
      <trkpt lat="43.52869" lon="6.14741">
        <ele>254.2</ele>
        <time>2023-01-18T15:46:47.000Z</time>
      </trkpt>
      <trkpt lat="43.52871" lon="6.14747">
        <ele>253.6</ele>
        <time>2023-01-18T15:46:53.000Z</time>
      </trkpt>
      <trkpt lat="43.52875" lon="6.14751">
        <ele>253.7</ele>
        <time>2023-01-18T15:46:57.000Z</time>
      </trkpt>
      <trkpt lat="43.5288" lon="6.14754">
        <ele>254</ele>
        <time>2023-01-18T15:47:03.000Z</time>
      </trkpt>
      <trkpt lat="43.52882" lon="6.1476">
        <ele>254.3</ele>
        <time>2023-01-18T15:47:12.000Z</time>
      </trkpt>
      <trkpt lat="43.52885" lon="6.14766">
        <ele>254.4</ele>
        <time>2023-01-18T15:47:17.000Z</time>
      </trkpt>
      <trkpt lat="43.52889" lon="6.14768">
        <ele>255.1</ele>
        <time>2023-01-18T15:47:23.000Z</time>
      </trkpt>
      <trkpt lat="43.52893" lon="6.14773">
        <ele>255.3</ele>
        <time>2023-01-18T15:47:30.000Z</time>
      </trkpt>
      <trkpt lat="43.52897" lon="6.14777">
        <ele>255.8</ele>
        <time>2023-01-18T15:47:36.000Z</time>
      </trkpt>
      <trkpt lat="43.52899" lon="6.14782">
        <ele>257.3</ele>
        <time>2023-01-18T15:47:42.000Z</time>
      </trkpt>
      <trkpt lat="43.52901" lon="6.14789">
        <ele>259.3</ele>
        <time>2023-01-18T15:47:50.000Z</time>
      </trkpt>
      <trkpt lat="43.52905" lon="6.14786">
        <ele>262.9</ele>
        <time>2023-01-18T15:48:32.000Z</time>
      </trkpt>
      <trkpt lat="43.52905" lon="6.14779">
        <ele>263.4</ele>
        <time>2023-01-18T15:48:38.000Z</time>
      </trkpt>
      <trkpt lat="43.52905" lon="6.14772">
        <ele>264.7</ele>
        <time>2023-01-18T15:48:43.000Z</time>
      </trkpt>
      <trkpt lat="43.52905" lon="6.14766">
        <ele>265.5</ele>
        <time>2023-01-18T15:48:47.000Z</time>
      </trkpt>
      <trkpt lat="43.52909" lon="6.14761">
        <ele>266.7</ele>
        <time>2023-01-18T15:48:55.000Z</time>
      </trkpt>
      <trkpt lat="43.52912" lon="6.14756">
        <ele>266.2</ele>
        <time>2023-01-18T15:49:00.000Z</time>
      </trkpt>
      <trkpt lat="43.52912" lon="6.1475">
        <ele>270.3</ele>
        <time>2023-01-18T15:49:07.000Z</time>
      </trkpt>
      <trkpt lat="43.52915" lon="6.14742">
        <ele>270.1</ele>
        <time>2023-01-18T15:49:17.000Z</time>
      </trkpt>
      <trkpt lat="43.52919" lon="6.14736">
        <ele>270.7</ele>
        <time>2023-01-18T15:49:21.000Z</time>
      </trkpt>
      <trkpt lat="43.52918" lon="6.1473">
        <ele>272.9</ele>
        <time>2023-01-18T15:49:26.000Z</time>
      </trkpt>
      <trkpt lat="43.52913" lon="6.14727">
        <ele>276.6</ele>
        <time>2023-01-18T15:49:39.000Z</time>
      </trkpt>
      <trkpt lat="43.52911" lon="6.14721">
        <ele>279.1</ele>
        <time>2023-01-18T15:49:46.000Z</time>
      </trkpt>
      <trkpt lat="43.52911" lon="6.14715">
        <ele>280.2</ele>
        <time>2023-01-18T15:49:55.000Z</time>
      </trkpt>
      <trkpt lat="43.52913" lon="6.14709">
        <ele>284.1</ele>
        <time>2023-01-18T15:50:07.000Z</time>
      </trkpt>
      <trkpt lat="43.52911" lon="6.14704">
        <ele>285.1</ele>
        <time>2023-01-18T15:50:28.000Z</time>
      </trkpt>
      <trkpt lat="43.52915" lon="6.14706">
        <ele>285.7</ele>
        <time>2023-01-18T15:50:48.000Z</time>
      </trkpt>
      <trkpt lat="43.52921" lon="6.14705">
        <ele>287.5</ele>
        <time>2023-01-18T15:50:53.000Z</time>
      </trkpt>
      <trkpt lat="43.52926" lon="6.14705">
        <ele>287.9</ele>
        <time>2023-01-18T15:51:02.000Z</time>
      </trkpt>
      <trkpt lat="43.5293" lon="6.14705">
        <ele>291.1</ele>
        <time>2023-01-18T15:51:13.000Z</time>
      </trkpt>
      <trkpt lat="43.52933" lon="6.14699">
        <ele>292.6</ele>
        <time>2023-01-18T15:51:23.000Z</time>
      </trkpt>
      <trkpt lat="43.52934" lon="6.14692">
        <ele>292.3</ele>
        <time>2023-01-18T15:51:30.000Z</time>
      </trkpt>
      <trkpt lat="43.52938" lon="6.14686">
        <ele>295.5</ele>
        <time>2023-01-18T15:51:37.000Z</time>
      </trkpt>
      <trkpt lat="43.52941" lon="6.1468">
        <ele>297.3</ele>
        <time>2023-01-18T15:51:44.000Z</time>
      </trkpt>
      <trkpt lat="43.52943" lon="6.14673">
        <ele>298.4</ele>
        <time>2023-01-18T15:51:49.000Z</time>
      </trkpt>
      <trkpt lat="43.52947" lon="6.14669">
        <ele>298.8</ele>
        <time>2023-01-18T15:51:52.000Z</time>
      </trkpt>
      <trkpt lat="43.52951" lon="6.14663">
        <ele>300.1</ele>
        <time>2023-01-18T15:51:58.000Z</time>
      </trkpt>
      <trkpt lat="43.52954" lon="6.14656">
        <ele>300.4</ele>
        <time>2023-01-18T15:52:05.000Z</time>
      </trkpt>
      <trkpt lat="43.52956" lon="6.14651">
        <ele>301.4</ele>
        <time>2023-01-18T15:52:10.000Z</time>
      </trkpt>
      <trkpt lat="43.5296" lon="6.14646">
        <ele>301.5</ele>
        <time>2023-01-18T15:52:15.000Z</time>
      </trkpt>
      <trkpt lat="43.52964" lon="6.14642">
        <ele>302</ele>
        <time>2023-01-18T15:52:19.000Z</time>
      </trkpt>
      <trkpt lat="43.52969" lon="6.14638">
        <ele>302.4</ele>
        <time>2023-01-18T15:52:25.000Z</time>
      </trkpt>
      <trkpt lat="43.52973" lon="6.14633">
        <ele>302.7</ele>
        <time>2023-01-18T15:52:31.000Z</time>
      </trkpt>
      <trkpt lat="43.52976" lon="6.14628">
        <ele>302.7</ele>
        <time>2023-01-18T15:52:35.000Z</time>
      </trkpt>
      <trkpt lat="43.5298" lon="6.14622">
        <ele>302.3</ele>
        <time>2023-01-18T15:52:41.000Z</time>
      </trkpt>
      <trkpt lat="43.52984" lon="6.14617">
        <ele>302.3</ele>
        <time>2023-01-18T15:52:47.000Z</time>
      </trkpt>
      <trkpt lat="43.52988" lon="6.14613">
        <ele>302.1</ele>
        <time>2023-01-18T15:52:52.000Z</time>
      </trkpt>
      <trkpt lat="43.52991" lon="6.14609">
        <ele>303.1</ele>
        <time>2023-01-18T15:53:02.000Z</time>
      </trkpt>
      <trkpt lat="43.52996" lon="6.14608">
        <ele>302.9</ele>
        <time>2023-01-18T15:53:23.000Z</time>
      </trkpt>
      <trkpt lat="43.52999" lon="6.14613">
        <ele>302.8</ele>
        <time>2023-01-18T15:53:46.000Z</time>
      </trkpt>
      <trkpt lat="43.53" lon="6.14619">
        <ele>302.4</ele>
        <time>2023-01-18T15:54:39.000Z</time>
      </trkpt>
      <trkpt lat="43.52999" lon="6.14627">
        <ele>302.7</ele>
        <time>2023-01-18T15:54:45.000Z</time>
      </trkpt>
      <trkpt lat="43.52999" lon="6.14634">
        <ele>302.9</ele>
        <time>2023-01-18T15:54:49.000Z</time>
      </trkpt>
      <trkpt lat="43.52999" lon="6.14641">
        <ele>303.2</ele>
        <time>2023-01-18T15:54:52.000Z</time>
      </trkpt>
      <trkpt lat="43.52998" lon="6.14648">
        <ele>303.2</ele>
        <time>2023-01-18T15:54:57.000Z</time>
      </trkpt>
      <trkpt lat="43.52998" lon="6.14655">
        <ele>303.5</ele>
        <time>2023-01-18T15:55:02.000Z</time>
      </trkpt>
      <trkpt lat="43.52998" lon="6.14662">
        <ele>303.4</ele>
        <time>2023-01-18T15:55:05.000Z</time>
      </trkpt>
      <trkpt lat="43.52999" lon="6.14669">
        <ele>303.4</ele>
        <time>2023-01-18T15:55:09.000Z</time>
      </trkpt>
      <trkpt lat="43.53" lon="6.14675">
        <ele>303.3</ele>
        <time>2023-01-18T15:55:15.000Z</time>
      </trkpt>
      <trkpt lat="43.53001" lon="6.14681">
        <ele>303</ele>
        <time>2023-01-18T15:55:19.000Z</time>
      </trkpt>
      <trkpt lat="43.53002" lon="6.1469">
        <ele>302.9</ele>
        <time>2023-01-18T15:55:23.000Z</time>
      </trkpt>
      <trkpt lat="43.53002" lon="6.14697">
        <ele>303.8</ele>
        <time>2023-01-18T15:55:27.000Z</time>
      </trkpt>
      <trkpt lat="43.53003" lon="6.14704">
        <ele>305.3</ele>
        <time>2023-01-18T15:55:31.000Z</time>
      </trkpt>
      <trkpt lat="43.53004" lon="6.14711">
        <ele>304.2</ele>
        <time>2023-01-18T15:55:36.000Z</time>
      </trkpt>
      <trkpt lat="43.53005" lon="6.14718">
        <ele>303.7</ele>
        <time>2023-01-18T15:55:40.000Z</time>
      </trkpt>
      <trkpt lat="43.53005" lon="6.14724">
        <ele>303</ele>
        <time>2023-01-18T15:55:44.000Z</time>
      </trkpt>
      <trkpt lat="43.53006" lon="6.14731">
        <ele>302.8</ele>
        <time>2023-01-18T15:55:48.000Z</time>
      </trkpt>
      <trkpt lat="43.53007" lon="6.14737">
        <ele>303.1</ele>
        <time>2023-01-18T15:55:52.000Z</time>
      </trkpt>
      <trkpt lat="43.53008" lon="6.14745">
        <ele>302.8</ele>
        <time>2023-01-18T15:55:57.000Z</time>
      </trkpt>
      <trkpt lat="43.53007" lon="6.14752">
        <ele>302.9</ele>
        <time>2023-01-18T15:56:00.000Z</time>
      </trkpt>
      <trkpt lat="43.53006" lon="6.14759">
        <ele>302.9</ele>
        <time>2023-01-18T15:56:03.000Z</time>
      </trkpt>
      <trkpt lat="43.53004" lon="6.14766">
        <ele>302.6</ele>
        <time>2023-01-18T15:56:08.000Z</time>
      </trkpt>
      <trkpt lat="43.53001" lon="6.14772">
        <ele>302.7</ele>
        <time>2023-01-18T15:56:13.000Z</time>
      </trkpt>
      <trkpt lat="43.52997" lon="6.14777">
        <ele>303</ele>
        <time>2023-01-18T15:56:17.000Z</time>
      </trkpt>
      <trkpt lat="43.52993" lon="6.14781">
        <ele>302.5</ele>
        <time>2023-01-18T15:56:22.000Z</time>
      </trkpt>
      <trkpt lat="43.5299" lon="6.14787">
        <ele>302.1</ele>
        <time>2023-01-18T15:56:26.000Z</time>
      </trkpt>
      <trkpt lat="43.52991" lon="6.14794">
        <ele>301.4</ele>
        <time>2023-01-18T15:56:30.000Z</time>
      </trkpt>
      <trkpt lat="43.52994" lon="6.14799">
        <ele>301.4</ele>
        <time>2023-01-18T15:56:33.000Z</time>
      </trkpt>
      <trkpt lat="43.52997" lon="6.14804">
        <ele>301.4</ele>
        <time>2023-01-18T15:56:37.000Z</time>
      </trkpt>
      <trkpt lat="43.52996" lon="6.14811">
        <ele>300.9</ele>
        <time>2023-01-18T15:57:20.000Z</time>
      </trkpt>
      <trkpt lat="43.52996" lon="6.14818">
        <ele>300.9</ele>
        <time>2023-01-18T15:57:25.000Z</time>
      </trkpt>
      <trkpt lat="43.52996" lon="6.14824">
        <ele>300.6</ele>
        <time>2023-01-18T15:57:30.000Z</time>
      </trkpt>
      <trkpt lat="43.52998" lon="6.14831">
        <ele>300.9</ele>
        <time>2023-01-18T15:57:34.000Z</time>
      </trkpt>
      <trkpt lat="43.53001" lon="6.14838">
        <ele>301.1</ele>
        <time>2023-01-18T15:57:37.000Z</time>
      </trkpt>
      <trkpt lat="43.53003" lon="6.14844">
        <ele>301.1</ele>
        <time>2023-01-18T15:57:40.000Z</time>
      </trkpt>
      <trkpt lat="43.53005" lon="6.1485">
        <ele>300.4</ele>
        <time>2023-01-18T15:57:46.000Z</time>
      </trkpt>
      <trkpt lat="43.53005" lon="6.14856">
        <ele>299.9</ele>
        <time>2023-01-18T15:57:58.000Z</time>
      </trkpt>
      <trkpt lat="43.53" lon="6.14853">
        <ele>299.9</ele>
        <time>2023-01-18T15:58:05.000Z</time>
      </trkpt>
      <trkpt lat="43.52998" lon="6.14848">
        <ele>300.2</ele>
        <time>2023-01-18T15:58:11.000Z</time>
      </trkpt>
      <trkpt lat="43.52997" lon="6.14841">
        <ele>300.5</ele>
        <time>2023-01-18T15:58:24.000Z</time>
      </trkpt>
      <trkpt lat="43.52995" lon="6.14836">
        <ele>300.6</ele>
        <time>2023-01-18T15:58:46.000Z</time>
      </trkpt>
      <trkpt lat="43.5299" lon="6.14835">
        <ele>300.1</ele>
        <time>2023-01-18T15:59:40.000Z</time>
      </trkpt>
      <trkpt lat="43.52991" lon="6.14829">
        <ele>300.3</ele>
        <time>2023-01-18T16:00:07.000Z</time>
      </trkpt>
      <trkpt lat="43.52995" lon="6.14826">
        <ele>299.4</ele>
        <time>2023-01-18T16:00:13.000Z</time>
      </trkpt>
      <trkpt lat="43.52998" lon="6.1482">
        <ele>299.9</ele>
        <time>2023-01-18T16:00:17.000Z</time>
      </trkpt>
      <trkpt lat="43.52996" lon="6.14813">
        <ele>300.4</ele>
        <time>2023-01-18T16:00:20.000Z</time>
      </trkpt>
      <trkpt lat="43.52995" lon="6.14806">
        <ele>300.8</ele>
        <time>2023-01-18T16:00:23.000Z</time>
      </trkpt>
      <trkpt lat="43.52994" lon="6.14798">
        <ele>300.7</ele>
        <time>2023-01-18T16:00:26.000Z</time>
      </trkpt>
      <trkpt lat="43.52993" lon="6.1479">
        <ele>300.1</ele>
        <time>2023-01-18T16:00:29.000Z</time>
      </trkpt>
      <trkpt lat="43.52994" lon="6.14782">
        <ele>300.3</ele>
        <time>2023-01-18T16:00:32.000Z</time>
      </trkpt>
      <trkpt lat="43.52997" lon="6.14776">
        <ele>300.6</ele>
        <time>2023-01-18T16:00:36.000Z</time>
      </trkpt>
      <trkpt lat="43.53002" lon="6.14771">
        <ele>301.1</ele>
        <time>2023-01-18T16:00:40.000Z</time>
      </trkpt>
      <trkpt lat="43.53004" lon="6.14766">
        <ele>301.3</ele>
        <time>2023-01-18T16:00:44.000Z</time>
      </trkpt>
      <trkpt lat="43.53007" lon="6.1476">
        <ele>301.9</ele>
        <time>2023-01-18T16:00:49.000Z</time>
      </trkpt>
      <trkpt lat="43.53007" lon="6.14753">
        <ele>300.6</ele>
        <time>2023-01-18T16:00:54.000Z</time>
      </trkpt>
      <trkpt lat="43.53008" lon="6.14747">
        <ele>300.1</ele>
        <time>2023-01-18T16:00:59.000Z</time>
      </trkpt>
      <trkpt lat="43.53007" lon="6.14739">
        <ele>300.7</ele>
        <time>2023-01-18T16:01:03.000Z</time>
      </trkpt>
      <trkpt lat="43.53006" lon="6.14732">
        <ele>301</ele>
        <time>2023-01-18T16:01:06.000Z</time>
      </trkpt>
      <trkpt lat="43.53006" lon="6.14725">
        <ele>301.4</ele>
        <time>2023-01-18T16:01:09.000Z</time>
      </trkpt>
      <trkpt lat="43.53007" lon="6.14717">
        <ele>301.7</ele>
        <time>2023-01-18T16:01:12.000Z</time>
      </trkpt>
      <trkpt lat="43.53008" lon="6.1471">
        <ele>301.4</ele>
        <time>2023-01-18T16:01:16.000Z</time>
      </trkpt>
      <trkpt lat="43.53006" lon="6.14704">
        <ele>299.9</ele>
        <time>2023-01-18T16:01:22.000Z</time>
      </trkpt>
      <trkpt lat="43.53007" lon="6.14696">
        <ele>300.7</ele>
        <time>2023-01-18T16:01:27.000Z</time>
      </trkpt>
      <trkpt lat="43.53007" lon="6.14689">
        <ele>301</ele>
        <time>2023-01-18T16:01:30.000Z</time>
      </trkpt>
      <trkpt lat="43.53006" lon="6.14683">
        <ele>301.4</ele>
        <time>2023-01-18T16:01:33.000Z</time>
      </trkpt>
      <trkpt lat="43.53006" lon="6.14676">
        <ele>301.9</ele>
        <time>2023-01-18T16:01:36.000Z</time>
      </trkpt>
      <trkpt lat="43.53005" lon="6.14669">
        <ele>302</ele>
        <time>2023-01-18T16:01:40.000Z</time>
      </trkpt>
      <trkpt lat="43.53003" lon="6.14663">
        <ele>300.8</ele>
        <time>2023-01-18T16:01:46.000Z</time>
      </trkpt>
      <trkpt lat="43.53004" lon="6.14657">
        <ele>300.4</ele>
        <time>2023-01-18T16:01:51.000Z</time>
      </trkpt>
      <trkpt lat="43.53004" lon="6.14649">
        <ele>300.7</ele>
        <time>2023-01-18T16:01:56.000Z</time>
      </trkpt>
      <trkpt lat="43.53004" lon="6.14642">
        <ele>300.9</ele>
        <time>2023-01-18T16:02:00.000Z</time>
      </trkpt>
      <trkpt lat="43.53005" lon="6.14635">
        <ele>301.1</ele>
        <time>2023-01-18T16:02:04.000Z</time>
      </trkpt>
      <trkpt lat="43.53005" lon="6.14628">
        <ele>301</ele>
        <time>2023-01-18T16:02:07.000Z</time>
      </trkpt>
      <trkpt lat="43.53005" lon="6.14621">
        <ele>301.1</ele>
        <time>2023-01-18T16:02:10.000Z</time>
      </trkpt>
      <trkpt lat="43.53003" lon="6.14615">
        <ele>300.7</ele>
        <time>2023-01-18T16:02:15.000Z</time>
      </trkpt>
      <trkpt lat="43.53002" lon="6.14608">
        <ele>300.5</ele>
        <time>2023-01-18T16:02:19.000Z</time>
      </trkpt>
      <trkpt lat="43.53001" lon="6.14601">
        <ele>300.6</ele>
        <time>2023-01-18T16:02:24.000Z</time>
      </trkpt>
      <trkpt lat="43.53003" lon="6.14595">
        <ele>300.5</ele>
        <time>2023-01-18T16:02:28.000Z</time>
      </trkpt>
      <trkpt lat="43.52998" lon="6.14596">
        <ele>300.3</ele>
        <time>2023-01-18T16:02:40.000Z</time>
      </trkpt>
      <trkpt lat="43.52994" lon="6.14601">
        <ele>300.7</ele>
        <time>2023-01-18T16:02:44.000Z</time>
      </trkpt>
      <trkpt lat="43.52989" lon="6.14605">
        <ele>299.4</ele>
        <time>2023-01-18T16:02:50.000Z</time>
      </trkpt>
      <trkpt lat="43.52985" lon="6.1461">
        <ele>299.2</ele>
        <time>2023-01-18T16:02:55.000Z</time>
      </trkpt>
      <trkpt lat="43.5298" lon="6.14614">
        <ele>298.3</ele>
        <time>2023-01-18T16:02:59.000Z</time>
      </trkpt>
      <trkpt lat="43.52976" lon="6.14618">
        <ele>298.6</ele>
        <time>2023-01-18T16:03:02.000Z</time>
      </trkpt>
      <trkpt lat="43.52972" lon="6.14622">
        <ele>298.9</ele>
        <time>2023-01-18T16:03:06.000Z</time>
      </trkpt>
      <trkpt lat="43.52968" lon="6.14627">
        <ele>299.1</ele>
        <time>2023-01-18T16:03:09.000Z</time>
      </trkpt>
      <trkpt lat="43.52964" lon="6.14634">
        <ele>299.3</ele>
        <time>2023-01-18T16:03:13.000Z</time>
      </trkpt>
      <trkpt lat="43.5296" lon="6.14639">
        <ele>299.1</ele>
        <time>2023-01-18T16:03:16.000Z</time>
      </trkpt>
      <trkpt lat="43.52958" lon="6.14646">
        <ele>298.7</ele>
        <time>2023-01-18T16:03:19.000Z</time>
      </trkpt>
      <trkpt lat="43.52956" lon="6.14652">
        <ele>298.2</ele>
        <time>2023-01-18T16:03:22.000Z</time>
      </trkpt>
      <trkpt lat="43.52952" lon="6.14658">
        <ele>297.9</ele>
        <time>2023-01-18T16:03:26.000Z</time>
      </trkpt>
      <trkpt lat="43.52948" lon="6.14661">
        <ele>297.9</ele>
        <time>2023-01-18T16:03:29.000Z</time>
      </trkpt>
      <trkpt lat="43.52943" lon="6.14663">
        <ele>297.6</ele>
        <time>2023-01-18T16:03:32.000Z</time>
      </trkpt>
      <trkpt lat="43.52939" lon="6.14666">
        <ele>296.4</ele>
        <time>2023-01-18T16:03:38.000Z</time>
      </trkpt>
      <trkpt lat="43.52934" lon="6.14669">
        <ele>295.6</ele>
        <time>2023-01-18T16:03:44.000Z</time>
      </trkpt>
      <trkpt lat="43.52931" lon="6.14674">
        <ele>294.8</ele>
        <time>2023-01-18T16:03:49.000Z</time>
      </trkpt>
      <trkpt lat="43.52929" lon="6.14681">
        <ele>293.9</ele>
        <time>2023-01-18T16:03:55.000Z</time>
      </trkpt>
      <trkpt lat="43.52926" lon="6.14686">
        <ele>293.2</ele>
        <time>2023-01-18T16:04:00.000Z</time>
      </trkpt>
      <trkpt lat="43.52923" lon="6.14692">
        <ele>291.7</ele>
        <time>2023-01-18T16:04:11.000Z</time>
      </trkpt>
      <trkpt lat="43.5292" lon="6.14697">
        <ele>288.7</ele>
        <time>2023-01-18T16:04:28.000Z</time>
      </trkpt>
      <trkpt lat="43.52915" lon="6.14699">
        <ele>287.1</ele>
        <time>2023-01-18T16:04:40.000Z</time>
      </trkpt>
      <trkpt lat="43.52911" lon="6.14701">
        <ele>285.3</ele>
        <time>2023-01-18T16:04:50.000Z</time>
      </trkpt>
      <trkpt lat="43.52906" lon="6.14705">
        <ele>279.9</ele>
        <time>2023-01-18T16:05:24.000Z</time>
      </trkpt>
      <trkpt lat="43.52902" lon="6.14703">
        <ele>279.7</ele>
        <time>2023-01-18T16:05:33.000Z</time>
      </trkpt>
      <trkpt lat="43.52901" lon="6.1471">
        <ele>278.3</ele>
        <time>2023-01-18T16:05:43.000Z</time>
      </trkpt>
      <trkpt lat="43.52904" lon="6.14717">
        <ele>277.4</ele>
        <time>2023-01-18T16:05:49.000Z</time>
      </trkpt>
      <trkpt lat="43.52902" lon="6.14723">
        <ele>275.6</ele>
        <time>2023-01-18T16:06:03.000Z</time>
      </trkpt>
      <trkpt lat="43.52898" lon="6.14726">
        <ele>274.1</ele>
        <time>2023-01-18T16:06:11.000Z</time>
      </trkpt>
      <trkpt lat="43.52896" lon="6.14732">
        <ele>273.1</ele>
        <time>2023-01-18T16:06:17.000Z</time>
      </trkpt>
      <trkpt lat="43.52899" lon="6.14737">
        <ele>272.2</ele>
        <time>2023-01-18T16:06:25.000Z</time>
      </trkpt>
      <trkpt lat="43.52902" lon="6.14743">
        <ele>270.4</ele>
        <time>2023-01-18T16:06:37.000Z</time>
      </trkpt>
      <trkpt lat="43.52903" lon="6.1475">
        <ele>267</ele>
        <time>2023-01-18T16:06:51.000Z</time>
      </trkpt>
      <trkpt lat="43.52903" lon="6.14756">
        <ele>266</ele>
        <time>2023-01-18T16:06:57.000Z</time>
      </trkpt>
      <trkpt lat="43.52901" lon="6.14761">
        <ele>265</ele>
        <time>2023-01-18T16:07:02.000Z</time>
      </trkpt>
      <trkpt lat="43.52898" lon="6.14768">
        <ele>263.9</ele>
        <time>2023-01-18T16:07:07.000Z</time>
      </trkpt>
      <trkpt lat="43.52898" lon="6.14774">
        <ele>262.7</ele>
        <time>2023-01-18T16:07:13.000Z</time>
      </trkpt>
      <trkpt lat="43.529" lon="6.1478">
        <ele>260.9</ele>
        <time>2023-01-18T16:07:21.000Z</time>
      </trkpt>
      <trkpt lat="43.52899" lon="6.14787">
        <ele>259.5</ele>
        <time>2023-01-18T16:07:28.000Z</time>
      </trkpt>
      <trkpt lat="43.529" lon="6.14781">
        <ele>255.5</ele>
        <time>2023-01-18T16:07:53.000Z</time>
      </trkpt>
      <trkpt lat="43.52897" lon="6.14776">
        <ele>254.3</ele>
        <time>2023-01-18T16:07:59.000Z</time>
      </trkpt>
      <trkpt lat="43.52893" lon="6.14774">
        <ele>253</ele>
        <time>2023-01-18T16:08:06.000Z</time>
      </trkpt>
      <trkpt lat="43.52892" lon="6.14782">
        <ele>252</ele>
        <time>2023-01-18T16:08:12.000Z</time>
      </trkpt>
      <trkpt lat="43.52893" lon="6.14789">
        <ele>251.6</ele>
        <time>2023-01-18T16:08:16.000Z</time>
      </trkpt>
      <trkpt lat="43.52895" lon="6.14796">
        <ele>250.3</ele>
        <time>2023-01-18T16:08:23.000Z</time>
      </trkpt>
      <trkpt lat="43.52897" lon="6.14802">
        <ele>249.6</ele>
        <time>2023-01-18T16:08:28.000Z</time>
      </trkpt>
      <trkpt lat="43.529" lon="6.14807">
        <ele>248.4</ele>
        <time>2023-01-18T16:08:39.000Z</time>
      </trkpt>
      <trkpt lat="43.52901" lon="6.14814">
        <ele>248</ele>
        <time>2023-01-18T16:08:45.000Z</time>
      </trkpt>
      <trkpt lat="43.52905" lon="6.14819">
        <ele>247.9</ele>
        <time>2023-01-18T16:08:50.000Z</time>
      </trkpt>
      <trkpt lat="43.52907" lon="6.14824">
        <ele>247.6</ele>
        <time>2023-01-18T16:08:55.000Z</time>
      </trkpt>
      <trkpt lat="43.52907" lon="6.14831">
        <ele>247.3</ele>
        <time>2023-01-18T16:09:04.000Z</time>
      </trkpt>
      <trkpt lat="43.52912" lon="6.1483">
        <ele>246.7</ele>
        <time>2023-01-18T16:09:51.000Z</time>
      </trkpt>
      <trkpt lat="43.52917" lon="6.14828">
        <ele>246.7</ele>
        <time>2023-01-18T16:10:00.000Z</time>
      </trkpt>
      <trkpt lat="43.5292" lon="6.14824">
        <ele>246.6</ele>
        <time>2023-01-18T16:10:05.000Z</time>
      </trkpt>
      <trkpt lat="43.52927" lon="6.14823">
        <ele>246</ele>
        <time>2023-01-18T16:10:14.000Z</time>
      </trkpt>
      <trkpt lat="43.52932" lon="6.1482">
        <ele>245</ele>
        <time>2023-01-18T16:10:22.000Z</time>
      </trkpt>
      <trkpt lat="43.52932" lon="6.14827">
        <ele>243.7</ele>
        <time>2023-01-18T16:10:38.000Z</time>
      </trkpt>
      <trkpt lat="43.52932" lon="6.14834">
        <ele>242.4</ele>
        <time>2023-01-18T16:10:47.000Z</time>
      </trkpt>
      <trkpt lat="43.52931" lon="6.14841">
        <ele>241.8</ele>
        <time>2023-01-18T16:10:51.000Z</time>
      </trkpt>
      <trkpt lat="43.52935" lon="6.14845">
        <ele>240.8</ele>
        <time>2023-01-18T16:10:56.000Z</time>
      </trkpt>
      <trkpt lat="43.52939" lon="6.14849">
        <ele>240.9</ele>
        <time>2023-01-18T16:11:00.000Z</time>
      </trkpt>
      <trkpt lat="43.52942" lon="6.14854">
        <ele>241.6</ele>
        <time>2023-01-18T16:11:06.000Z</time>
      </trkpt>
      <trkpt lat="43.52939" lon="6.14861">
        <ele>243.2</ele>
        <time>2023-01-18T16:11:19.000Z</time>
      </trkpt>
      <trkpt lat="43.52939" lon="6.14871">
        <ele>243.8</ele>
        <time>2023-01-18T16:11:22.000Z</time>
      </trkpt>
      <trkpt lat="43.5294" lon="6.14878">
        <ele>244</ele>
        <time>2023-01-18T16:11:24.000Z</time>
      </trkpt>
      <trkpt lat="43.52942" lon="6.14884">
        <ele>244.2</ele>
        <time>2023-01-18T16:11:28.000Z</time>
      </trkpt>
      <trkpt lat="43.52941" lon="6.14892">
        <ele>244.4</ele>
        <time>2023-01-18T16:11:33.000Z</time>
      </trkpt>
      <trkpt lat="43.52946" lon="6.14891">
        <ele>244.5</ele>
        <time>2023-01-18T16:11:43.000Z</time>
      </trkpt>
      <trkpt lat="43.5295" lon="6.14892">
        <ele>244.6</ele>
        <time>2023-01-18T16:11:56.000Z</time>
      </trkpt>
      <trkpt lat="43.52954" lon="6.14895">
        <ele>244.1</ele>
        <time>2023-01-18T16:12:04.000Z</time>
      </trkpt>
      <trkpt lat="43.52959" lon="6.14895">
        <ele>244</ele>
        <time>2023-01-18T16:12:14.000Z</time>
      </trkpt>
      <trkpt lat="43.52965" lon="6.14894">
        <ele>244.3</ele>
        <time>2023-01-18T16:12:30.000Z</time>
      </trkpt>
      <trkpt lat="43.52969" lon="6.14895">
        <ele>244.6</ele>
        <time>2023-01-18T16:12:41.000Z</time>
      </trkpt>
      <trkpt lat="43.52971" lon="6.14888">
        <ele>244.4</ele>
        <time>2023-01-18T16:12:53.000Z</time>
      </trkpt>
      <trkpt lat="43.5297" lon="6.14881">
        <ele>244</ele>
        <time>2023-01-18T16:13:10.000Z</time>
      </trkpt>
      <trkpt lat="43.52966" lon="6.14877">
        <ele>244.2</ele>
        <time>2023-01-18T16:13:39.000Z</time>
      </trkpt>
      <trkpt lat="43.52962" lon="6.14875">
        <ele>244.5</ele>
        <time>2023-01-18T16:13:58.000Z</time>
      </trkpt>
      <trkpt lat="43.52958" lon="6.14878">
        <ele>244.8</ele>
        <time>2023-01-18T16:14:21.000Z</time>
      </trkpt>
      <trkpt lat="43.52954" lon="6.14884">
        <ele>244.6</ele>
        <time>2023-01-18T16:14:25.000Z</time>
      </trkpt>
      <trkpt lat="43.5295" lon="6.14884">
        <ele>244.6</ele>
        <time>2023-01-18T16:14:30.000Z</time>
      </trkpt>
      <trkpt lat="43.52944" lon="6.14883">
        <ele>244.3</ele>
        <time>2023-01-18T16:14:35.000Z</time>
      </trkpt>
      <trkpt lat="43.5294" lon="6.14882">
        <ele>244.2</ele>
        <time>2023-01-18T16:14:39.000Z</time>
      </trkpt>
      <trkpt lat="43.52939" lon="6.14875">
        <ele>243.8</ele>
        <time>2023-01-18T16:14:43.000Z</time>
      </trkpt>
      <trkpt lat="43.52936" lon="6.14869">
        <ele>241.3</ele>
        <time>2023-01-18T16:14:52.000Z</time>
      </trkpt>
      <trkpt lat="43.52931" lon="6.14868">
        <ele>239.6</ele>
        <time>2023-01-18T16:14:58.000Z</time>
      </trkpt>
      <trkpt lat="43.52927" lon="6.14872">
        <ele>238.7</ele>
        <time>2023-01-18T16:15:06.000Z</time>
      </trkpt>
      <trkpt lat="43.52928" lon="6.14879">
        <ele>238.3</ele>
        <time>2023-01-18T16:15:10.000Z</time>
      </trkpt>
      <trkpt lat="43.52927" lon="6.14885">
        <ele>238.1</ele>
        <time>2023-01-18T16:15:16.000Z</time>
      </trkpt>
      <trkpt lat="43.52929" lon="6.14892">
        <ele>237.9</ele>
        <time>2023-01-18T16:15:20.000Z</time>
      </trkpt>
      <trkpt lat="43.52931" lon="6.14899">
        <ele>237.3</ele>
        <time>2023-01-18T16:15:25.000Z</time>
      </trkpt>
      <trkpt lat="43.52933" lon="6.14905">
        <ele>236.5</ele>
        <time>2023-01-18T16:15:31.000Z</time>
      </trkpt>
      <trkpt lat="43.52934" lon="6.14912">
        <ele>235.2</ele>
        <time>2023-01-18T16:15:38.000Z</time>
      </trkpt>
      <trkpt lat="43.52934" lon="6.14919">
        <ele>233.3</ele>
        <time>2023-01-18T16:15:46.000Z</time>
      </trkpt>
      <trkpt lat="43.52934" lon="6.14926">
        <ele>232.9</ele>
        <time>2023-01-18T16:15:52.000Z</time>
      </trkpt>
      <trkpt lat="43.52936" lon="6.14932">
        <ele>232.5</ele>
        <time>2023-01-18T16:15:58.000Z</time>
      </trkpt>
      <trkpt lat="43.52937" lon="6.14939">
        <ele>232.5</ele>
        <time>2023-01-18T16:16:03.000Z</time>
      </trkpt>
      <trkpt lat="43.5294" lon="6.14944">
        <ele>232.3</ele>
        <time>2023-01-18T16:16:07.000Z</time>
      </trkpt>
      <trkpt lat="43.52944" lon="6.1495">
        <ele>232.5</ele>
        <time>2023-01-18T16:16:11.000Z</time>
      </trkpt>
      <trkpt lat="43.52945" lon="6.14956">
        <ele>232.4</ele>
        <time>2023-01-18T16:16:22.000Z</time>
      </trkpt>
      <trkpt lat="43.5295" lon="6.14956">
        <ele>231.9</ele>
        <time>2023-01-18T16:16:37.000Z</time>
      </trkpt>
      <trkpt lat="43.52955" lon="6.14956">
        <ele>231.8</ele>
        <time>2023-01-18T16:16:45.000Z</time>
      </trkpt>
      <trkpt lat="43.52956" lon="6.14949">
        <ele>230.7</ele>
        <time>2023-01-18T16:17:04.000Z</time>
      </trkpt>
      <trkpt lat="43.52953" lon="6.14944">
        <ele>229.4</ele>
        <time>2023-01-18T16:17:16.000Z</time>
      </trkpt>
      <trkpt lat="43.5295" lon="6.14939">
        <ele>227.3</ele>
        <time>2023-01-18T16:17:33.000Z</time>
      </trkpt>
      <trkpt lat="43.52946" lon="6.1494">
        <ele>226.5</ele>
        <time>2023-01-18T16:17:40.000Z</time>
      </trkpt>
      <trkpt lat="43.52942" lon="6.14945">
        <ele>225.9</ele>
        <time>2023-01-18T16:17:49.000Z</time>
      </trkpt>
      <trkpt lat="43.52938" lon="6.14947">
        <ele>225.6</ele>
        <time>2023-01-18T16:17:53.000Z</time>
      </trkpt>
      <trkpt lat="43.52933" lon="6.1495">
        <ele>224.7</ele>
        <time>2023-01-18T16:18:00.000Z</time>
      </trkpt>
      <trkpt lat="43.52937" lon="6.14945">
        <ele>223.6</ele>
        <time>2023-01-18T16:18:09.000Z</time>
      </trkpt>
      <trkpt lat="43.52939" lon="6.14938">
        <ele>222.9</ele>
        <time>2023-01-18T16:18:13.000Z</time>
      </trkpt>
      <trkpt lat="43.5294" lon="6.14931">
        <ele>222.1</ele>
        <time>2023-01-18T16:18:19.000Z</time>
      </trkpt>
      <trkpt lat="43.52936" lon="6.14927">
        <ele>221.7</ele>
        <time>2023-01-18T16:18:25.000Z</time>
      </trkpt>
      <trkpt lat="43.52931" lon="6.14926">
        <ele>221.7</ele>
        <time>2023-01-18T16:18:33.000Z</time>
      </trkpt>
      <trkpt lat="43.52926" lon="6.14925">
        <ele>221.8</ele>
        <time>2023-01-18T16:18:39.000Z</time>
      </trkpt>
      <trkpt lat="43.52922" lon="6.1492">
        <ele>222.2</ele>
        <time>2023-01-18T16:18:45.000Z</time>
      </trkpt>
      <trkpt lat="43.52917" lon="6.14919">
        <ele>222</ele>
        <time>2023-01-18T16:18:52.000Z</time>
      </trkpt>
      <trkpt lat="43.52915" lon="6.14914">
        <ele>222.1</ele>
        <time>2023-01-18T16:19:05.000Z</time>
      </trkpt>
      <trkpt lat="43.5291" lon="6.14912">
        <ele>221.9</ele>
        <time>2023-01-18T16:19:11.000Z</time>
      </trkpt>
      <trkpt lat="43.52906" lon="6.14915">
        <ele>221.7</ele>
        <time>2023-01-18T16:19:17.000Z</time>
      </trkpt>
      <trkpt lat="43.52901" lon="6.14918">
        <ele>221.4</ele>
        <time>2023-01-18T16:19:23.000Z</time>
      </trkpt>
      <trkpt lat="43.52899" lon="6.14924">
        <ele>221.1</ele>
        <time>2023-01-18T16:20:06.000Z</time>
      </trkpt>
      <trkpt lat="43.52895" lon="6.1492">
        <ele>220.8</ele>
        <time>2023-01-18T16:20:11.000Z</time>
      </trkpt>
      <trkpt lat="43.52891" lon="6.14917">
        <ele>220.1</ele>
        <time>2023-01-18T16:20:15.000Z</time>
      </trkpt>
      <trkpt lat="43.52887" lon="6.14913">
        <ele>219.5</ele>
        <time>2023-01-18T16:20:20.000Z</time>
      </trkpt>
      <trkpt lat="43.52882" lon="6.14912">
        <ele>219.3</ele>
        <time>2023-01-18T16:20:28.000Z</time>
      </trkpt>
      <trkpt lat="43.52878" lon="6.14906">
        <ele>219.2</ele>
        <time>2023-01-18T16:20:35.000Z</time>
      </trkpt>
      <trkpt lat="43.52874" lon="6.14902">
        <ele>219.1</ele>
        <time>2023-01-18T16:20:38.000Z</time>
      </trkpt>
      <trkpt lat="43.52869" lon="6.14902">
        <ele>219.2</ele>
        <time>2023-01-18T16:20:42.000Z</time>
      </trkpt>
      <trkpt lat="43.52864" lon="6.14903">
        <ele>219.2</ele>
        <time>2023-01-18T16:20:46.000Z</time>
      </trkpt>
      <trkpt lat="43.5286" lon="6.14907">
        <ele>219.2</ele>
        <time>2023-01-18T16:20:51.000Z</time>
      </trkpt>
      <trkpt lat="43.52857" lon="6.14911">
        <ele>219</ele>
        <time>2023-01-18T16:20:56.000Z</time>
      </trkpt>
      <trkpt lat="43.52855" lon="6.14905">
        <ele>219.1</ele>
        <time>2023-01-18T16:21:02.000Z</time>
      </trkpt>
      <trkpt lat="43.52854" lon="6.14898">
        <ele>219.1</ele>
        <time>2023-01-18T16:21:06.000Z</time>
      </trkpt>
      <trkpt lat="43.52849" lon="6.14899">
        <ele>219</ele>
        <time>2023-01-18T16:21:11.000Z</time>
      </trkpt>
      <trkpt lat="43.52846" lon="6.14904">
        <ele>218.6</ele>
        <time>2023-01-18T16:21:17.000Z</time>
      </trkpt>
      <trkpt lat="43.5284" lon="6.14903">
        <ele>218.5</ele>
        <time>2023-01-18T16:21:21.000Z</time>
      </trkpt>
      <trkpt lat="43.52836" lon="6.14905">
        <ele>218.4</ele>
        <time>2023-01-18T16:21:26.000Z</time>
      </trkpt>
      <trkpt lat="43.52831" lon="6.14908">
        <ele>218.1</ele>
        <time>2023-01-18T16:21:33.000Z</time>
      </trkpt>
      <trkpt lat="43.52826" lon="6.14907">
        <ele>217.8</ele>
        <time>2023-01-18T16:21:37.000Z</time>
      </trkpt>
      <trkpt lat="43.52821" lon="6.14909">
        <ele>217.3</ele>
        <time>2023-01-18T16:22:05.000Z</time>
      </trkpt>
      <trkpt lat="43.52817" lon="6.14912">
        <ele>217.2</ele>
        <time>2023-01-18T16:22:08.000Z</time>
      </trkpt>
      <trkpt lat="43.52811" lon="6.14913">
        <ele>217</ele>
        <time>2023-01-18T16:22:11.000Z</time>
      </trkpt>
      <trkpt lat="43.52803" lon="6.14914">
        <ele>216.9</ele>
        <time>2023-01-18T16:22:13.000Z</time>
      </trkpt>
      <trkpt lat="43.52794" lon="6.14917">
        <ele>216.8</ele>
        <time>2023-01-18T16:22:15.000Z</time>
      </trkpt>
      <trkpt lat="43.52801" lon="6.14913">
        <ele>217.1</ele>
        <time>2023-01-18T16:22:22.000Z</time>
      </trkpt>
      <trkpt lat="43.52805" lon="6.14912">
        <ele>217.2</ele>
        <time>2023-01-18T16:22:24.000Z</time>
      </trkpt>
      <trkpt lat="43.52808" lon="6.149">
        <ele>217</ele>
        <time>2023-01-18T16:22:31.000Z</time>
      </trkpt>
      <trkpt lat="43.52809" lon="6.14891">
        <ele>216</ele>
        <time>2023-01-18T16:22:36.000Z</time>
      </trkpt>
      <trkpt lat="43.52816" lon="6.14884">
        <ele>217</ele>
        <time>2023-01-18T16:22:44.000Z</time>
      </trkpt>
      <trkpt lat="43.52829" lon="6.14883">
        <ele>217.7</ele>
        <time>2023-01-18T16:22:47.000Z</time>
      </trkpt>
      <trkpt lat="43.52832" lon="6.14877">
        <ele>217.1</ele>
        <time>2023-01-18T16:22:56.000Z</time>
      </trkpt>
      <trkpt lat="43.52829" lon="6.14871">
        <ele>217.5</ele>
        <time>2023-01-18T16:22:58.000Z</time>
      </trkpt>
      <trkpt lat="43.52827" lon="6.14866">
        <ele>217.3</ele>
        <time>2023-01-18T16:22:59.000Z</time>
      </trkpt>
      <trkpt lat="43.52823" lon="6.14861">
        <ele>217.5</ele>
        <time>2023-01-18T16:23:00.000Z</time>
      </trkpt>
      <trkpt lat="43.52818" lon="6.14856">
        <ele>217.6</ele>
        <time>2023-01-18T16:23:01.000Z</time>
      </trkpt>
      <trkpt lat="43.52815" lon="6.14849">
        <ele>217.8</ele>
        <time>2023-01-18T16:23:03.000Z</time>
      </trkpt>
      <trkpt lat="43.5281" lon="6.14854">
        <ele>217.9</ele>
        <time>2023-01-18T16:23:05.000Z</time>
      </trkpt>
      <trkpt lat="43.52806" lon="6.1486">
        <ele>218</ele>
        <time>2023-01-18T16:23:09.000Z</time>
      </trkpt>
      <trkpt lat="43.52804" lon="6.14867">
        <ele>217.8</ele>
        <time>2023-01-18T16:23:12.000Z</time>
      </trkpt>
      <trkpt lat="43.52801" lon="6.14874">
        <ele>217.4</ele>
        <time>2023-01-18T16:23:16.000Z</time>
      </trkpt>
      <trkpt lat="43.528" lon="6.1488">
        <ele>217.4</ele>
        <time>2023-01-18T16:23:18.000Z</time>
      </trkpt>
      <trkpt lat="43.528" lon="6.14886">
        <ele>217.2</ele>
        <time>2023-01-18T16:23:21.000Z</time>
      </trkpt>
      <trkpt lat="43.52795" lon="6.14891">
        <ele>216.9</ele>
        <time>2023-01-18T16:23:25.000Z</time>
      </trkpt>
      <trkpt lat="43.52793" lon="6.14897">
        <ele>216.3</ele>
        <time>2023-01-18T16:23:30.000Z</time>
      </trkpt>
      <trkpt lat="43.52788" lon="6.14901">
        <ele>216.3</ele>
        <time>2023-01-18T16:23:34.000Z</time>
      </trkpt>
      <trkpt lat="43.52785" lon="6.14906">
        <ele>216.3</ele>
        <time>2023-01-18T16:23:38.000Z</time>
      </trkpt>
      <trkpt lat="43.5278" lon="6.1491">
        <ele>216.1</ele>
        <time>2023-01-18T16:23:43.000Z</time>
      </trkpt>
      <trkpt lat="43.52775" lon="6.1491">
        <ele>215.6</ele>
        <time>2023-01-18T16:23:48.000Z</time>
      </trkpt>
      <trkpt lat="43.52769" lon="6.14911">
        <ele>215.4</ele>
        <time>2023-01-18T16:23:52.000Z</time>
      </trkpt>
      <trkpt lat="43.52764" lon="6.14916">
        <ele>214.1</ele>
        <time>2023-01-18T16:24:02.000Z</time>
      </trkpt>
      <trkpt lat="43.52759" lon="6.14918">
        <ele>213.5</ele>
        <time>2023-01-18T16:24:06.000Z</time>
      </trkpt>
      <trkpt lat="43.52754" lon="6.14917">
        <ele>213.6</ele>
        <time>2023-01-18T16:24:10.000Z</time>
      </trkpt>
      <trkpt lat="43.52748" lon="6.14918">
        <ele>213.9</ele>
        <time>2023-01-18T16:24:13.000Z</time>
      </trkpt>
      <trkpt lat="43.52744" lon="6.14916">
        <ele>214</ele>
        <time>2023-01-18T16:24:15.000Z</time>
      </trkpt>
      <trkpt lat="43.52738" lon="6.14917">
        <ele>214.1</ele>
        <time>2023-01-18T16:24:18.000Z</time>
      </trkpt>
      <trkpt lat="43.52731" lon="6.14918">
        <ele>214.1</ele>
        <time>2023-01-18T16:24:22.000Z</time>
      </trkpt>
      <trkpt lat="43.52726" lon="6.14919">
        <ele>214.1</ele>
        <time>2023-01-18T16:24:25.000Z</time>
      </trkpt>
      <trkpt lat="43.5272" lon="6.14921">
        <ele>214.4</ele>
        <time>2023-01-18T16:24:28.000Z</time>
      </trkpt>
      <trkpt lat="43.52714" lon="6.1492">
        <ele>214.4</ele>
        <time>2023-01-18T16:24:32.000Z</time>
      </trkpt>
      <trkpt lat="43.5271" lon="6.14922">
        <ele>214.2</ele>
        <time>2023-01-18T16:24:35.000Z</time>
      </trkpt>
      <trkpt lat="43.52705" lon="6.14923">
        <ele>213.7</ele>
        <time>2023-01-18T16:24:39.000Z</time>
      </trkpt>
      <trkpt lat="43.527" lon="6.14926">
        <ele>213.3</ele>
        <time>2023-01-18T16:24:44.000Z</time>
      </trkpt>
      <trkpt lat="43.52696" lon="6.14929">
        <ele>213.3</ele>
        <time>2023-01-18T16:24:49.000Z</time>
      </trkpt>
      <trkpt lat="43.5269" lon="6.14929">
        <ele>213.3</ele>
        <time>2023-01-18T16:24:54.000Z</time>
      </trkpt>
      <trkpt lat="43.52686" lon="6.14931">
        <ele>213.3</ele>
        <time>2023-01-18T16:24:57.000Z</time>
      </trkpt>
      <trkpt lat="43.52681" lon="6.1493">
        <ele>213.3</ele>
        <time>2023-01-18T16:24:59.000Z</time>
      </trkpt>
      <trkpt lat="43.52675" lon="6.14929">
        <ele>212.5</ele>
        <time>2023-01-18T16:25:02.000Z</time>
      </trkpt>
      <trkpt lat="43.5267" lon="6.14931">
        <ele>212.6</ele>
        <time>2023-01-18T16:25:05.000Z</time>
      </trkpt>
      <trkpt lat="43.52666" lon="6.14934">
        <ele>212.6</ele>
        <time>2023-01-18T16:25:07.000Z</time>
      </trkpt>
      <trkpt lat="43.52661" lon="6.14934">
        <ele>212.6</ele>
        <time>2023-01-18T16:25:10.000Z</time>
      </trkpt>
      <trkpt lat="43.52656" lon="6.14933">
        <ele>212.7</ele>
        <time>2023-01-18T16:25:14.000Z</time>
      </trkpt>
      <trkpt lat="43.52651" lon="6.14932">
        <ele>212.7</ele>
        <time>2023-01-18T16:25:23.000Z</time>
      </trkpt>
      <trkpt lat="43.52653" lon="6.14938">
        <ele>212.8</ele>
        <time>2023-01-18T16:25:36.000Z</time>
      </trkpt>
      <trkpt lat="43.52652" lon="6.14944">
        <ele>212.4</ele>
        <time>2023-01-18T16:25:43.000Z</time>
      </trkpt>
      <trkpt lat="43.52651" lon="6.1495">
        <ele>211.7</ele>
        <time>2023-01-18T16:25:52.000Z</time>
      </trkpt>
      <trkpt lat="43.52647" lon="6.14949">
        <ele>211.1</ele>
        <time>2023-01-18T16:26:01.000Z</time>
      </trkpt>
      <trkpt lat="43.52641" lon="6.14947">
        <ele>210.9</ele>
        <time>2023-01-18T16:26:03.000Z</time>
      </trkpt>
      <trkpt lat="43.52636" lon="6.14948">
        <ele>210.7</ele>
        <time>2023-01-18T16:26:06.000Z</time>
      </trkpt>
      <trkpt lat="43.52632" lon="6.14949">
        <ele>209.4</ele>
        <time>2023-01-18T16:26:18.000Z</time>
      </trkpt>
      <trkpt lat="43.52627" lon="6.14948">
        <ele>209.2</ele>
        <time>2023-01-18T16:26:27.000Z</time>
      </trkpt>
      <trkpt lat="43.52625" lon="6.14941">
        <ele>209</ele>
        <time>2023-01-18T16:26:36.000Z</time>
      </trkpt>
      <trkpt lat="43.52621" lon="6.14938">
        <ele>208.7</ele>
        <time>2023-01-18T16:26:41.000Z</time>
      </trkpt>
      <trkpt lat="43.52616" lon="6.14938">
        <ele>208.5</ele>
        <time>2023-01-18T16:26:44.000Z</time>
      </trkpt>
      <trkpt lat="43.52611" lon="6.14936">
        <ele>208.2</ele>
        <time>2023-01-18T16:26:49.000Z</time>
      </trkpt>
      <trkpt lat="43.52606" lon="6.14931">
        <ele>207.1</ele>
        <time>2023-01-18T16:26:56.000Z</time>
      </trkpt>
      <trkpt lat="43.52601" lon="6.14929">
        <ele>206.7</ele>
        <time>2023-01-18T16:26:59.000Z</time>
      </trkpt>
      <trkpt lat="43.52599" lon="6.14921">
        <ele>207.1</ele>
        <time>2023-01-18T16:27:05.000Z</time>
      </trkpt>
      <trkpt lat="43.52598" lon="6.14914">
        <ele>207.2</ele>
        <time>2023-01-18T16:27:09.000Z</time>
      </trkpt>
      <trkpt lat="43.52598" lon="6.14908">
        <ele>207.2</ele>
        <time>2023-01-18T16:27:19.000Z</time>
      </trkpt>
      <trkpt lat="43.52593" lon="6.14906">
        <ele>206.5</ele>
        <time>2023-01-18T16:27:25.000Z</time>
      </trkpt>
      <trkpt lat="43.52588" lon="6.14903">
        <ele>206.5</ele>
        <time>2023-01-18T16:27:29.000Z</time>
      </trkpt>
      <trkpt lat="43.52583" lon="6.14901">
        <ele>206.5</ele>
        <time>2023-01-18T16:27:32.000Z</time>
      </trkpt>
      <trkpt lat="43.52579" lon="6.14898">
        <ele>206.3</ele>
        <time>2023-01-18T16:27:38.000Z</time>
      </trkpt>
      <trkpt lat="43.52575" lon="6.14894">
        <ele>206.6</ele>
        <time>2023-01-18T16:27:48.000Z</time>
      </trkpt>
      <trkpt lat="43.5257" lon="6.14895">
        <ele>207</ele>
        <time>2023-01-18T16:27:58.000Z</time>
      </trkpt>
      <trkpt lat="43.52565" lon="6.14895">
        <ele>207</ele>
        <time>2023-01-18T16:28:03.000Z</time>
      </trkpt>
      <trkpt lat="43.52561" lon="6.14899">
        <ele>207.2</ele>
        <time>2023-01-18T16:28:13.000Z</time>
      </trkpt>
      <trkpt lat="43.52557" lon="6.14902">
        <ele>207.2</ele>
        <time>2023-01-18T16:28:18.000Z</time>
      </trkpt>
      <trkpt lat="43.52552" lon="6.14905">
        <ele>207.2</ele>
        <time>2023-01-18T16:28:23.000Z</time>
      </trkpt>
      <trkpt lat="43.52548" lon="6.14908">
        <ele>207.9</ele>
        <time>2023-01-18T16:28:37.000Z</time>
      </trkpt>
      <trkpt lat="43.52544" lon="6.14911">
        <ele>208.4</ele>
        <time>2023-01-18T16:28:50.000Z</time>
      </trkpt>
      <trkpt lat="43.52539" lon="6.14915">
        <ele>208.7</ele>
        <time>2023-01-18T16:28:56.000Z</time>
      </trkpt>
      <trkpt lat="43.52536" lon="6.14921">
        <ele>209.4</ele>
        <time>2023-01-18T16:29:06.000Z</time>
      </trkpt>
      <trkpt lat="43.52531" lon="6.14924">
        <ele>209.4</ele>
        <time>2023-01-18T16:29:12.000Z</time>
      </trkpt>
      <trkpt lat="43.52526" lon="6.14927">
        <ele>209.4</ele>
        <time>2023-01-18T16:29:18.000Z</time>
      </trkpt>
      <trkpt lat="43.52524" lon="6.14933">
        <ele>209.7</ele>
        <time>2023-01-18T16:29:24.000Z</time>
      </trkpt>
      <trkpt lat="43.52522" lon="6.1494">
        <ele>209.9</ele>
        <time>2023-01-18T16:29:30.000Z</time>
      </trkpt>
      <trkpt lat="43.5252" lon="6.14945">
        <ele>210.5</ele>
        <time>2023-01-18T16:29:38.000Z</time>
      </trkpt>
      <trkpt lat="43.52516" lon="6.1495">
        <ele>211</ele>
        <time>2023-01-18T16:29:44.000Z</time>
      </trkpt>
      <trkpt lat="43.52512" lon="6.14954">
        <ele>211.2</ele>
        <time>2023-01-18T16:29:47.000Z</time>
      </trkpt>
      <trkpt lat="43.52508" lon="6.14959">
        <ele>211.2</ele>
        <time>2023-01-18T16:29:52.000Z</time>
      </trkpt>
      <trkpt lat="43.52504" lon="6.14964">
        <ele>211.6</ele>
        <time>2023-01-18T16:29:56.000Z</time>
      </trkpt>
      <trkpt lat="43.525" lon="6.14968">
        <ele>211.7</ele>
        <time>2023-01-18T16:29:59.000Z</time>
      </trkpt>
      <trkpt lat="43.52496" lon="6.14972">
        <ele>211.6</ele>
        <time>2023-01-18T16:30:05.000Z</time>
      </trkpt>
      <trkpt lat="43.52492" lon="6.14975">
        <ele>211.6</ele>
        <time>2023-01-18T16:30:09.000Z</time>
      </trkpt>
      <trkpt lat="43.52487" lon="6.14979">
        <ele>211.5</ele>
        <time>2023-01-18T16:30:15.000Z</time>
      </trkpt>
      <trkpt lat="43.52483" lon="6.14983">
        <ele>211.4</ele>
        <time>2023-01-18T16:30:19.000Z</time>
      </trkpt>
      <trkpt lat="43.5248" lon="6.14988">
        <ele>211.2</ele>
        <time>2023-01-18T16:30:23.000Z</time>
      </trkpt>
      <trkpt lat="43.52477" lon="6.14993">
        <ele>210.6</ele>
        <time>2023-01-18T16:30:28.000Z</time>
      </trkpt>
      <trkpt lat="43.52473" lon="6.14997">
        <ele>210</ele>
        <time>2023-01-18T16:30:32.000Z</time>
      </trkpt>
      <trkpt lat="43.52469" lon="6.15002">
        <ele>209.6</ele>
        <time>2023-01-18T16:30:36.000Z</time>
      </trkpt>
      <trkpt lat="43.52465" lon="6.15007">
        <ele>209</ele>
        <time>2023-01-18T16:30:41.000Z</time>
      </trkpt>
      <trkpt lat="43.52461" lon="6.15011">
        <ele>209</ele>
        <time>2023-01-18T16:30:45.000Z</time>
      </trkpt>
      <trkpt lat="43.52458" lon="6.15016">
        <ele>208.8</ele>
        <time>2023-01-18T16:30:49.000Z</time>
      </trkpt>
      <trkpt lat="43.52452" lon="6.15017">
        <ele>209.2</ele>
        <time>2023-01-18T16:30:53.000Z</time>
      </trkpt>
      <trkpt lat="43.52454" lon="6.15024">
        <ele>210.6</ele>
        <time>2023-01-18T16:32:03.000Z</time>
      </trkpt>
      <trkpt lat="43.52455" lon="6.1503">
        <ele>210.5</ele>
        <time>2023-01-18T16:32:23.000Z</time>
      </trkpt>
      <trkpt lat="43.52457" lon="6.15034">
        <ele>211.8</ele>
        <time>2023-01-18T16:33:00.000Z</time>
      </trkpt>
    </trkseg>
  </trk>
</gpx>